[[{"header":{"parameterUnit":"m.s-1","parameterCategory":1,"la1":31.0,"la2":29.5877,"lo1":-88.7671,"lo2":-86.6584,"dy":0.0162,"dx":0.0185,"nx":115,"ny":88,"refTime":"2024-06-09T12:00:00:Z","depth":0,"parameterNumber":2,"parameterNumberName":"U-component_of_WINDS"},"data":[0.0,0.0,0.0,0.0,0.0,0.0,0.0,0.0,0.0,0.0,0.0,0.0,0.0,0.0,0.0,0.0,0.0,0.0,0.0,0.0,0.0,0.0,0.0,0.0,0.0,0.0,0.0,0.0,0.0,0.0,0.0,0.0,0.0,0.0,0.0,0.0,0.0,0.0,0.0,0.0,0.0,0.0,0.0,0.0,0.0,0.0,0.0,0.0,0.0,0.0,0.0,0.0,0.0,0.0,0.0,0.0,0.0,0.0,0.0,0.0,0.0,0.0,0.0,0.0,0.0,0.0,0.0,0.0,0.0,0.0,0.0,0.0,0.0,0.0,0.0,0.0,0.0,0.0,0.0,0.0,0.0,0.0,0.0,0.0,0.0,0.0,0.0,0.0,0.0,0.0,0.0,0.0,0.0,0.0,0.0,0.0,0.0,0.0,0.0,0.0,0.0,0.0,0.0,0.0,0.0,0.0,0.0,0.0,0.0,0.0,0.0,0.0,0.0,0.0,0.0,0.0,0.0,0.0,0.0,0.0,0.0,0.0,0.0,0.0,0.0,0.0,0.0,0.0,0.0,0.0,0.0,0.0,0.0,0.0,0.0,0.0,0.0,0.0,0.0,0.0,0.0,0.0,0.0,0.0,0.0,0.0,0.0,0.0,0.0,0.0,0.0,0.0,0.0,0.0,0.0,0.0,0.0,0.0,0.0,0.0,0.0,0.0,0.0,0.0,0.0,0.0,0.0,0.0,0.0,0.0,0.0,0.0,0.0,0.0,0.0,0.0,0.0,0.0,0.0,0.0,0.0,0.0,0.0,0.0,0.0,0.0,0.0,0.0,0.0,0.0,0.0,0.0,0.0,0.0,0.0,0.0,0.0,0.0,0.0,0.0,0.0,0.0,0.0,0.0,0.0,0.0,0.0,0.0,0.0,0.0,0.0,0.0,0.0,0.0,0.0,0.0,0.0,0.0,0.0,0.0,0.0,0.0,0.0,0.0,0.0,0.0,0.0,0.0,0.0,0.0,0.0,0.0,0.0,0.0,0.0,0.0,0.0,0.0,0.0,0.0,0.0,0.0,0.0,0.0,0.0,0.0,0.0,0.0,0.0,0.0,0.0,0.0,0.0,0.0,0.0,0.0,0.0,0.0,0.0,0.0,0.0,0.0,0.0,0.0,0.0,0.0,0.0,0.0,0.0,0.0,0.0,0.0,0.0,0.0,0.0,0.0,0.0,0.0,0.0,0.0,0.0,0.0,0.0,0.0,0.0,0.0,0.0,0.0,0.0,0.0,0.0,0.0,0.0,0.0,0.0,0.0,0.0,0.0,0.0,0.0,0.0,0.0,0.0,0.0,0.0,0.0,0.0,0.0,0.0,0.0,0.0,0.0,0.0,0.0,0.0,0.0,0.0,0.0,0.0,0.0,0.0,0.0,0.0,0.0,0.0,0.0,0.0,0.0,0.0,0.0,0.0,0.0,0.0,0.0,0.0,0.0,0.0,0.0,0.0,0.0,0.0,0.0,0.0,0.0,0.0,0.0,0.0,0.0,0.0,0.0,0.0,0.0,0.0,0.0,0.0,0.0,0.0,0.0,0.0,0.0,0.0,0.0,0.0,0.0,0.0,0.0,0.0,0.0,0.0,0.0,0.0,0.0,0.0,0.0,0.0,0.0,0.0,0.0,0.0,0.0,0.0,0.0,0.0,0.0,0.0,0.0,0.0,0.0,0.0,0.0,0.0,0.0,0.0,0.0,0.0,0.0,0.0,0.0,0.0,0.0,0.0,0.0,0.0,0.0,0.0,0.0,0.0,0.0,0.0,0.0,0.0,0.0,0.0,0.0,0.0,0.0,0.0,0.0,0.0,0.0,0.0,0.0,0.0,0.0,0.0,0.0,0.0,0.0,0.0,0.0,0.0,0.0,0.0,0.0,0.0,0.0,0.0,0.0,0.0,0.0,0.0,0.0,0.0,0.0,0.0,0.0,0.0,0.0,0.0,0.0,0.0,0.0,0.0,0.0,0.0,0.0,0.0,0.0,0.0,0.0,0.0,0.0,0.0,0.0,0.0,0.0,0.0,0.0,0.0,0.0,0.0,0.0,0.0,0.0,0.0,0.0,0.0,0.0,0.0,0.0,0.0,0.0,0.0,0.0,0.0,0.0,0.0,0.0,0.0,0.0,0.0,0.0,0.0,0.0,0.0,0.0,0.0,0.0,0.0,0.0,0.0,0.0,0.0,0.0,0.0,0.0,0.0,0.0,0.0,0.0,0.0,0.0,0.0,0.0,0.0,0.0,0.0,0.0,0.0,0.0,0.0,0.0,0.0,0.0,0.0,0.0,0.0,0.0,0.0,0.0,0.0,0.0,0.0,0.0,0.0,0.0,0.0,0.0,0.0,0.0,0.0,0.0,0.0,0.0,0.0,0.0,0.0,0.0,0.0,0.0,0.0,0.0,0.0,0.0,0.0,0.0,0.0,0.0,0.0,0.0,0.0,0.0,0.0,0.0,0.0,0.0,0.0,0.0,0.0,0.0,0.0,0.0,0.0,0.0,0.0,0.0,0.0,0.0,0.0,0.0,0.0,0.0,0.0,0.0,0.0,0.0,0.0,0.0,0.0,0.0,0.0,0.0,0.0,0.0,0.0,0.0,0.0,0.0,0.0,0.0,0.0,0.0,0.0,0.0,0.0,0.0,0.0,0.0,0.0,0.0,0.0,0.0,0.0,0.0,0.0,0.0,0.0,0.0,0.0,0.0,0.0,0.0,0.0,0.0,0.0,0.0,0.0,0.0,0.0,0.0,0.0,0.0,0.0,0.0,0.0,0.0,0.0,0.0,0.0,0.0,0.0,0.0,0.0,0.0,0.0,0.0,0.0,0.0,0.0,0.0,0.0,0.0,0.0,0.0,0.0,0.0,0.0,0.0,0.0,0.0,0.0,0.0,0.0,0.0,0.0,0.0,0.0,0.0,0.0,0.0,0.0,0.0,0.0,0.0,0.0,0.0,0.0,0.0,0.0,0.0,0.0,0.0,0.0,0.0,0.0,0.0,0.0,0.0,0.0,0.0,0.0,0.0,0.0,0.0,0.0,0.0,0.0,0.0,0.0,0.0,0.0,0.0,0.0,0.0,0.0,0.0,0.0,0.0,0.0,0.0,0.0,0.0,0.0,0.0,0.0,0.0,0.0,0.0,0.0,0.0,0.0,0.0,0.0,0.0,0.0,0.0,0.0,0.0,0.0,0.0,0.0,0.0,0.0,0.0,0.0,0.0,0.0,0.0,0.0,0.0,0.0,0.0,0.0,0.0,0.0,0.0,0.0,0.0,0.0,0.0,0.0,0.0,0.0,0.0,0.0,0.0,0.0,0.0,0.0,0.0,0.0,0.0,0.0,0.0,0.0,0.0,0.0,0.0,0.0,0.0,0.0,0.0,0.0,0.0,0.0,0.0,0.0,0.0,0.0,0.0,0.0,0.0,0.0,0.0,0.0,0.0,0.0,0.0,0.0,0.0,0.0,0.0,0.0,0.0,0.0,0.0,0.0,0.0,0.0,0.0,0.0,0.0,0.0,0.0,0.0,0.0,0.0,0.0,0.0,0.0,0.0,0.0,0.0,0.0,0.0,0.0,0.0,0.0,0.0,0.0,0.0,0.0,0.0,0.0,0.0,0.0,0.0,0.0,0.0,0.0,0.0,0.0,0.0,0.0,0.0,0.0,0.0,0.0,0.0,0.0,0.0,0.0,0.0,0.0,0.0,0.0,0.0,0.0,0.0,0.0,0.0,0.0,0.0,0.0,0.0,0.0,0.0,0.0,0.0,0.0,0.0,0.0,0.0,0.0,0.0,0.0,0.0,0.0,0.0,0.0,0.0,0.0,0.0,0.0,0.0,0.0,0.0,0.0,0.0,0.0,0.0,0.0,0.0,0.0,0.0,0.0,0.0,0.0,0.0,0.0,0.0,0.0,0.0,0.0,0.0,0.0,0.0,0.0,0.0,0.0,0.0,0.0,0.0,0.0,0.0,0.0,0.0,0.0,0.0,0.0,0.0,0.0,0.0,0.0,0.0,0.0,0.0,0.0,0.0,0.0,0.0,0.0,0.0,0.0,0.0,0.0,0.0,0.0,0.0,0.0,0.0,0.0,0.0,0.0,0.0,0.0,0.0,0.0,0.0,0.0,0.0,0.0,0.0,0.0,0.0,0.0,0.0,0.0,0.0,0.0,0.0,0.0,0.0,0.0,0.0,0.0,0.0,0.0,0.0,0.0,0.0,0.0,0.0,0.0,0.0,0.0,-0.6224,0.0,0.0,0.0,0.0,0.0,0.0,0.0,0.0,0.0,0.0,0.0,0.0,0.0,0.0,0.0,0.0,0.0,0.0,0.0,0.0,0.0,0.0,0.0,0.0,0.0,0.0,0.0,0.0,0.0,0.0,0.0,0.0,0.0,0.0,0.0,0.0,0.0,0.0,0.0,0.0,0.0,0.0,0.0,0.0,0.0,0.0,0.0,0.0,0.0,0.0,0.0,0.0,0.0,0.0,0.0,0.0,0.0,0.0,0.0,0.0,0.0,0.0,0.0,0.0,0.0,0.0,0.0,0.0,0.0,0.0,0.0,0.0,0.0,0.0,0.0,0.0,0.0,0.0,0.0,0.0,0.0,0.0,0.0,0.0,0.0,0.0,0.0,0.0,0.0,0.0,0.0,0.0,0.0,0.0,0.0,0.0,0.0,0.0,0.0,0.0,0.0,0.0,0.0,0.0,0.0,0.0,0.0,0.0,0.0,0.0,-0.6528,-0.6671,-0.6652,-0.6609,-0.6602,0.0,0.0,0.0,0.0,0.0,0.0,0.0,0.0,0.0,0.0,0.0,0.0,0.0,0.0,0.0,0.0,0.0,0.0,0.0,0.0,0.0,0.0,0.0,0.0,0.0,0.0,0.0,0.0,0.0,0.0,0.0,0.0,0.0,0.0,0.0,0.0,0.0,0.0,0.0,0.0,0.0,0.0,0.0,0.0,0.0,0.0,0.0,0.0,0.0,0.0,0.0,0.0,0.0,0.0,0.0,0.0,0.0,0.0,0.0,0.0,0.0,0.0,0.0,0.0,0.0,0.0,0.0,0.0,0.0,0.0,0.0,0.0,0.0,0.0,0.0,0.0,0.0,0.0,0.0,0.0,0.0,0.0,0.0,0.0,0.0,0.0,0.0,0.0,0.0,0.0,0.0,0.0,0.0,0.0,0.0,0.0,0.0,0.0,0.0,0.0,0.0,0.0,0.0,0.0,0.0,0.0,0.0,0.0,0.0,0.0,0.0,0.0,-0.722,-0.7148,-0.6932,0.0,0.0,0.0,0.0,0.0,0.0,0.0,0.0,0.0,0.0,0.0,0.0,0.0,0.0,0.0,0.0,0.0,0.0,0.0,0.0,0.0,0.0,0.0,0.0,0.0,0.0,0.0,0.0,0.0,0.0,0.0,0.0,0.0,0.0,0.0,0.0,0.0,0.0,0.0,0.0,0.0,0.0,0.0,0.0,0.0,0.0,0.0,0.0,0.0,0.0,0.0,0.0,0.0,0.0,0.0,0.0,0.0,0.0,0.0,0.0,0.0,0.0,0.0,0.0,0.0,0.0,0.0,0.0,0.0,0.0,0.0,0.0,0.0,0.0,0.0,0.0,0.0,0.0,0.0,0.0,0.0,0.0,0.0,0.0,0.0,0.0,0.0,0.0,0.0,0.0,0.0,0.0,0.0,0.0,0.0,0.0,0.0,0.0,0.0,0.0,0.0,0.0,0.0,0.0,0.0,0.0,0.0,0.0,0.0,0.0,-0.7753,-0.79,-0.7966,0.0,-0.737,0.0,0.0,0.0,0.0,0.0,0.0,0.0,0.0,0.0,0.0,0.0,0.0,0.0,0.0,0.0,0.0,0.0,0.0,0.0,0.0,0.0,0.0,0.0,0.0,0.0,0.0,0.0,0.0,0.0,0.0,0.0,0.0,0.0,0.0,0.0,0.0,0.0,0.0,0.0,0.0,0.0,0.0,0.0,0.0,0.0,0.0,0.0,0.0,0.0,0.0,0.0,0.0,0.0,0.0,0.0,0.0,0.0,0.0,0.0,0.0,0.0,0.0,0.0,0.0,0.0,0.0,0.0,0.0,0.0,0.0,0.0,0.0,0.0,0.0,0.0,0.0,0.0,0.0,0.0,0.0,0.0,0.0,0.0,0.0,0.0,0.0,0.0,0.0,0.0,0.0,0.0,0.0,0.0,0.0,0.0,0.0,0.0,0.0,0.0,0.0,0.0,0.0,0.0,0.0,0.0,0.0,0.0,0.0,0.0,0.0,-0.8493,-0.8816,-0.8716,-0.8608,0.0,0.0,0.0,0.0,0.0,0.0,0.0,0.0,0.0,0.0,0.0,0.0,0.0,0.0,0.0,0.0,0.0,0.0,0.0,0.0,0.0,0.0,0.0,0.0,0.0,0.0,0.0,0.0,0.0,0.0,0.0,0.0,0.0,0.0,0.0,0.0,0.0,0.0,0.0,0.0,0.0,0.0,0.0,0.0,0.0,0.0,0.0,0.0,0.0,0.0,0.0,0.0,0.0,0.0,0.0,0.0,0.0,0.0,0.0,0.0,0.0,0.0,0.0,0.0,0.0,0.0,0.0,0.0,0.0,0.0,0.0,0.0,0.0,0.0,0.0,0.0,0.0,0.0,0.0,0.0,0.0,0.0,0.0,0.0,0.0,0.0,0.0,0.0,0.0,0.0,0.0,0.0,0.0,0.0,0.0,0.0,0.0,0.0,0.0,0.0,0.0,0.0,0.0,0.0,0.0,0.0,0.0,0.0,0.0,0.0,-0.8958,0.0,-0.9791,-0.9558,-0.9399,-0.9398,0.0,0.0,0.0,0.0,0.0,0.0,0.0,0.0,0.0,0.0,0.0,0.0,0.0,0.0,0.0,0.0,0.0,0.0,0.0,0.0,0.0,0.0,0.0,0.0,0.0,0.0,0.0,0.0,0.0,0.0,0.0,0.0,0.0,0.0,0.0,0.0,0.0,0.0,0.0,0.0,0.0,0.0,0.0,0.0,0.0,0.0,0.0,0.0,0.0,0.0,0.0,0.0,0.0,0.0,0.0,0.0,0.0,0.0,0.0,0.0,0.0,0.0,0.0,0.0,0.0,0.0,0.0,0.0,0.0,0.0,0.0,0.0,0.0,0.0,0.0,0.0,0.0,0.0,0.0,0.0,0.0,0.0,0.0,0.0,0.0,0.0,0.0,0.0,0.0,0.0,0.0,0.0,0.0,0.0,0.0,0.0,0.0,0.0,0.0,0.0,0.0,0.0,0.0,0.0,0.0,0.0,0.0,0.0,0.0,-0.9743,-1.0267,-1.0893,-1.0542,-1.0134,0.0,0.0,0.0,0.0,0.0,0.0,0.0,0.0,0.0,0.0,0.0,0.0,0.0,0.0,0.0,0.0,0.0,0.0,0.0,0.0,0.0,0.0,0.0,0.0,0.0,0.0,0.0,0.0,0.0,0.0,0.0,0.0,0.0,0.0,0.0,0.0,0.0,0.0,0.0,0.0,0.0,0.0,0.0,0.0,0.0,0.0,0.0,0.0,0.0,0.0,0.0,0.0,0.0,0.0,0.0,0.0,0.0,0.0,0.0,0.0,0.0,0.0,0.0,0.0,0.0,0.0,0.0,0.0,0.0,0.0,0.0,0.0,0.0,0.0,0.0,0.0,0.0,0.0,0.0,0.0,0.0,0.0,0.0,0.0,0.0,0.0,0.0,0.0,0.0,0.0,0.0,0.0,0.0,0.0,0.0,0.0,0.0,0.0,0.0,0.0,0.0,0.0,0.0,0.0,0.0,0.0,0.0,0.0,0.0,-1.0348,-1.1135,-1.1659,-1.1926,-1.1125,-1.0618,0.0,0.0,0.0,0.0,0.0,0.0,0.0,0.0,0.0,0.0,0.0,0.0,0.0,0.0,0.0,0.0,0.0,0.0,0.0,0.0,0.0,0.0,0.0,0.0,0.0,0.0,0.0,0.0,0.0,0.0,0.0,0.0,0.0,0.0,0.0,0.0,0.0,0.0,0.0,0.0,0.0,0.0,0.0,0.0,0.0,0.0,0.0,0.0,0.0,0.0,0.0,0.0,0.0,0.0,0.0,0.0,0.0,0.0,0.0,0.0,0.0,0.0,0.0,0.0,0.0,0.0,0.0,0.0,0.0,0.0,0.0,0.0,0.0,0.0,0.0,0.0,0.0,0.0,0.0,0.0,0.0,0.0,0.0,0.0,0.0,0.0,0.0,0.0,0.0,0.0,0.0,0.0,0.0,0.0,0.0,0.0,0.0,0.0,0.0,0.0,0.0,0.0,0.0,0.0,0.0,0.0,0.0,0.0,0.0,-1.1155,0.0,-1.2703,0.0,-1.1607,-1.104,0.0,0.0,0.0,0.0,0.0,0.0,0.0,0.0,0.0,0.0,0.0,0.0,0.0,0.0,0.0,0.0,0.0,0.0,0.0,0.0,0.0,0.0,0.0,0.0,0.0,0.0,0.0,0.0,0.0,0.0,0.0,0.0,0.0,0.0,0.0,0.0,0.0,0.0,0.0,0.0,0.0,0.0,0.0,0.0,0.0,0.0,0.0,0.0,0.0,0.0,0.0,0.0,0.0,0.0,0.0,0.0,0.0,0.0,0.0,0.0,0.0,0.0,0.0,0.0,0.0,0.0,0.0,0.0,0.0,0.0,0.0,0.0,0.0,0.0,0.0,0.0,0.0,0.0,0.0,0.0,0.0,0.0,0.0,0.0,0.0,0.0,0.0,0.0,0.0,0.0,0.0,0.0,0.0,0.0,0.0,0.0,0.0,0.0,0.0,0.0,0.0,0.0,0.0,0.0,0.0,0.0,0.0,0.0,-1.0793,-1.1723,-1.2815,-1.3288,-1.3082,-1.2079,-1.1449,0.0,0.0,0.0,0.0,0.0,0.0,0.0,0.0,0.0,0.0,0.0,0.0,0.0,0.0,0.0,0.0,0.0,0.0,0.0,0.0,0.0,0.0,0.0,0.0,0.0,0.0,0.0,0.0,0.0,0.0,0.0,0.0,0.0,0.0,0.0,0.0,0.0,0.0,0.0,0.0,0.0,0.0,0.0,0.0,0.0,0.0,0.0,0.0,0.0,0.0,0.0,0.0,0.0,0.0,0.0,0.0,0.0,0.0,0.0,0.0,0.0,0.0,0.0,0.0,0.0,0.0,0.0,0.0,0.0,0.0,0.0,0.0,0.0,0.0,0.0,0.0,0.0,0.0,0.0,0.0,0.0,0.0,0.0,0.0,0.0,0.0,0.0,0.0,0.0,0.0,0.0,0.0,0.0,0.0,0.0,0.0,0.0,0.0,0.0,0.0,0.0,0.0,0.0,0.0,0.0,0.0,0.0,0.0,0.0,-1.2744,-1.3363,-1.3607,-1.3433,-1.2724,-1.2073,0.0,0.0,0.0,0.0,0.0,0.0,0.0,0.0,0.0,0.0,0.0,0.0,0.0,0.0,0.0,0.0,0.0,0.0,0.0,0.0,0.0,0.0,0.0,0.0,0.0,0.0,0.0,0.0,0.0,0.0,0.0,0.0,0.0,0.0,0.0,0.0,0.0,0.0,0.0,0.0,0.0,0.0,0.0,0.0,0.0,0.0,0.0,0.0,0.0,0.0,0.0,0.0,0.0,0.0,0.0,0.0,0.0,0.0,0.0,0.0,0.0,0.0,0.0,0.0,0.0,0.0,0.0,0.0,0.0,0.0,0.0,0.0,0.0,0.0,0.0,0.0,0.0,0.0,0.0,0.0,0.0,0.0,0.0,0.0,0.0,0.0,0.0,0.0,0.0,0.0,0.0,0.0,0.0,0.0,0.0,0.0,0.0,0.0,0.0,0.0,0.0,0.0,0.0,0.0,0.0,0.0,0.0,0.0,0.0,-1.3779,-1.3918,-1.3891,-1.3698,-1.3103,-1.2453,-1.171,0.0,0.0,0.0,0.0,0.0,0.0,0.0,0.0,0.0,0.0,0.0,0.0,0.0,0.0,0.0,0.0,0.0,0.0,0.0,0.0,0.0,0.0,0.0,0.0,0.0,0.0,0.0,0.0,0.0,0.0,0.0,0.0,0.0,0.0,0.0,0.0,0.0,0.0,0.0,0.0,0.0,0.0,0.0,0.0,0.0,0.0,0.0,0.0,0.0,0.0,0.0,0.0,0.0,0.0,0.0,0.0,0.0,0.0,0.0,0.0,0.0,0.0,0.0,0.0,0.0,0.0,0.0,0.0,0.0,0.0,0.0,0.0,0.0,0.0,0.0,0.0,0.0,0.0,0.0,0.0,0.0,0.0,0.0,0.0,0.0,0.0,0.0,0.0,0.0,0.0,0.0,0.0,0.0,0.0,0.0,0.0,0.0,0.0,0.0,0.0,0.0,0.0,0.0,0.0,0.0,0.0,0.0,0.0,-1.485,-1.4548,-1.4243,-1.3924,-1.3358,-1.269,0.0,0.0,0.0,0.0,0.0,0.0,0.0,0.0,0.0,0.0,0.0,0.0,0.0,0.0,0.0,0.0,0.0,0.0,0.0,0.0,0.0,0.0,0.0,0.0,0.0,0.0,0.0,0.0,0.0,0.0,0.0,0.0,0.0,0.0,0.0,0.0,0.0,0.0,0.0,0.0,0.0,0.0,0.0,0.0,0.0,0.0,0.0,0.0,0.0,0.0,0.0,0.0,0.0,0.0,0.0,0.0,0.0,0.0,0.0,0.0,0.0,0.0,0.0,0.0,0.0,0.0,0.0,0.0,0.0,0.0,0.0,0.0,0.0,0.0,0.0,0.0,0.0,0.0,0.0,0.0,0.0,0.0,0.0,0.0,0.0,0.0,0.0,0.0,0.0,0.0,0.0,0.0,0.0,0.0,0.0,0.0,0.0,0.0,0.0,0.0,0.0,0.0,0.0,0.0,0.0,0.0,0.0,0.0,0.0,-1.541,-1.5335,-1.4916,-1.4246,-1.4472,-1.3808,0.0,0.0,0.0,0.0,0.0,0.0,0.0,0.0,0.0,0.0,0.0,0.0,0.0,0.0,0.0,0.0,0.0,0.0,0.0,0.0,0.0,0.0,0.0,0.0,0.0,0.0,0.0,0.0,0.0,0.0,0.0,0.0,0.0,0.0,0.0,0.0,0.0,0.0,0.0,0.0,0.0,0.0,0.0,0.0,0.0,0.0,0.0,0.0,0.0,0.0,0.0,0.0,0.0,0.0,0.0,0.0,0.0,0.0,0.0,0.0,0.0,0.0,0.0,0.0,0.0,0.0,0.0,0.0,0.0,0.0,0.0,0.0,0.0,0.0,0.0,0.0,0.0,0.0,0.0,0.0,0.0,0.0,0.0,0.0,0.0,0.0,0.0,0.0,0.0,0.0,0.0,0.0,0.0,0.0,0.0,0.0,0.0,0.0,0.0,0.0,0.0,0.0,0.0,0.0,0.0,0.0,0.0,0.0,-1.5178,-1.5785,-1.6207,-1.6059,-1.5249,-1.523,-1.4433,0.0,0.0,0.0,0.0,0.0,0.0,0.0,0.0,0.0,0.0,0.0,0.0,0.0,0.0,0.0,0.0,0.0,0.0,0.0,0.0,0.0,0.0,0.0,0.0,0.0,0.0,0.0,0.0,0.0,0.0,0.0,0.0,0.0,0.0,0.0,0.0,0.0,0.0,0.0,0.0,0.0,0.0,0.0,0.0,0.0,0.0,0.0,0.0,0.0,0.0,0.0,0.0,0.0,0.0,0.0,0.0,0.0,0.0,0.0,0.0,0.0,0.0,0.0,0.0,0.0,0.0,0.0,0.0,0.0,0.0,0.0,0.0,0.0,0.0,0.0,0.0,0.0,0.0,0.0,0.0,0.0,0.0,0.0,0.0,0.0,0.0,0.0,0.0,0.0,0.0,0.0,0.0,0.0,0.0,0.0,0.0,0.0,0.0,0.0,0.0,0.0,0.0,0.0,0.0,0.0,0.0,0.0,0.0,-1.5992,-1.6009,-1.7054,-1.7287,-1.6623,-1.5837,-1.4826,0.0,0.0,0.0,0.0,0.0,0.0,0.0,0.0,0.0,0.0,0.0,0.0,0.0,0.0,0.0,0.0,0.0,0.0,0.0,0.0,0.0,0.0,0.0,0.0,0.0,0.0,0.0,0.0,0.0,0.0,0.0,0.0,0.0,0.0,0.0,0.0,0.0,0.0,0.0,0.0,0.0,0.0,0.0,0.0,0.0,0.0,0.0,0.0,0.0,0.0,0.0,0.0,0.0,0.0,0.0,0.0,0.0,0.0,0.0,0.0,0.0,0.0,0.0,0.0,0.0,0.0,0.0,0.0,0.0,0.0,0.0,0.0,0.0,0.0,0.0,0.0,0.0,0.0,0.0,0.0,0.0,0.0,0.0,0.0,0.0,0.0,0.0,0.0,0.0,0.0,0.0,0.0,0.0,0.0,0.0,0.0,0.0,0.0,0.0,0.0,0.0,0.0,0.0,0.0,0.0,0.0,0.0,0.0,-1.6156,-1.6607,-1.7251,-1.7515,-1.7357,-1.6633,-1.5626,0.0,0.0,0.0,0.0,0.0,0.0,0.0,0.0,0.0,0.0,0.0,0.0,0.0,0.0,0.0,0.0,0.0,0.0,0.0,0.0,0.0,0.0,0.0,0.0,0.0,0.0,0.0,0.0,0.0,0.0,0.0,0.0,0.0,0.0,0.0,0.0,0.0,0.0,0.0,0.0,0.0,0.0,0.0,0.0,0.0,0.0,0.0,0.0,-0.537,0.0,0.0,0.0,0.0,0.0,0.0,0.0,0.0,0.0,0.0,0.0,0.0,0.0,0.0,0.0,0.0,0.0,0.0,0.0,0.0,0.0,0.0,0.0,0.0,0.0,0.0,0.0,0.0,0.0,0.0,0.0,0.0,0.0,0.0,0.0,0.0,0.0,0.0,0.0,0.0,0.0,0.0,0.0,0.0,0.0,0.0,0.0,0.0,0.0,0.0,0.0,0.0,0.0,0.0,0.0,0.0,0.0,0.0,0.0,-1.6343,-1.6666,-1.7478,-1.7993,-1.8073,-1.7159,-1.6114,0.0,0.0,0.0,0.0,0.0,0.0,0.0,0.0,0.0,0.0,0.0,0.0,0.0,0.0,0.0,0.0,0.0,0.0,0.0,0.0,0.0,0.0,0.0,0.0,0.0,0.0,0.0,0.0,0.0,0.0,0.0,0.0,0.0,0.0,0.0,0.0,0.0,0.0,0.0,0.0,0.0,0.0,0.0,0.0,0.0,0.0,0.0,0.0,0.0,0.0,0.0,0.0,0.0,0.0,0.0,0.0,0.0,0.0,0.0,0.0,0.0,0.0,0.0,0.0,0.0,0.0,0.0,0.0,0.0,0.0,0.0,0.0,0.0,0.0,0.0,0.0,0.0,0.0,0.0,0.0,0.0,0.0,0.0,0.0,0.0,0.0,0.0,0.0,0.0,0.0,0.0,0.0,0.0,0.0,0.0,0.0,0.0,0.0,0.0,0.0,0.0,0.0,0.0,0.0,0.0,0.0,0.0,-1.5561,-1.6476,-1.6553,-1.7711,-1.8394,-1.8536,-1.7426,-1.6437,-1.5672,0.0,0.0,0.0,0.0,0.0,0.0,0.0,0.0,0.0,0.0,0.0,0.0,0.0,0.0,0.0,0.0,0.0,0.0,0.0,0.0,0.0,0.0,0.0,0.0,0.0,0.0,0.0,0.0,0.0,0.0,0.0,0.0,0.0,0.0,0.0,0.0,0.0,0.0,-0.4548,-0.4985,0.0,0.0,0.0,0.0,0.0,0.0,0.0,0.0,-0.6887,0.0,0.0,0.0,0.0,0.0,0.0,0.0,0.0,0.0,0.0,0.0,0.0,0.0,0.0,0.0,0.0,0.0,0.0,0.0,0.0,0.0,0.0,0.0,0.0,0.0,0.0,0.0,0.0,0.0,0.0,0.0,0.0,0.0,0.0,0.0,0.0,0.0,0.0,0.0,0.0,0.0,0.0,0.0,0.0,0.0,0.0,0.0,0.0,0.0,0.0,0.0,0.0,0.0,0.0,0.0,0.0,-1.3645,-1.5485,-1.6451,-1.6539,-1.7782,-1.8284,-1.7847,-1.721,-1.6576,-1.5907,0.0,0.0,0.0,0.0,0.0,0.0,0.0,0.0,0.0,0.0,0.0,0.0,0.0,0.0,0.0,0.0,0.0,0.0,0.0,0.0,0.0,0.0,0.0,0.0,0.0,0.0,0.0,0.0,0.0,0.0,0.0,0.0,0.0,0.0,0.0,0.0,0.0,0.0,0.0,-0.5075,-0.5434,0.0,0.0,0.0,0.0,0.0,0.0,0.0,0.0,-0.7777,0.0,0.0,0.0,0.0,0.0,0.0,0.0,0.0,0.0,0.0,0.0,0.0,0.0,0.0,0.0,0.0,0.0,0.0,0.0,0.0,0.0,0.0,0.0,0.0,0.0,0.0,0.0,0.0,0.0,0.0,0.0,0.0,0.0,0.0,0.0,0.0,0.0,0.0,0.0,0.0,0.0,0.0,0.0,0.0,0.0,0.0,0.0,0.0,0.0,0.0,0.0,0.0,0.0,0.0,0.0,-1.4034,-1.5431,-1.6286,-1.6469,-1.7725,-1.8227,-1.7811,-1.727,-1.6706,0.0,0.0,0.0,0.0,0.0,0.0,0.0,0.0,0.0,0.0,0.0,0.0,0.0,0.0,0.0,0.0,0.0,0.0,0.0,0.0,0.0,0.0,0.0,0.0,0.0,0.0,0.0,0.0,0.0,0.0,0.0,0.0,0.0,0.0,0.0,0.0,0.0,0.0,0.0,0.0,-0.5336,-0.5621,-0.6038,0.0,0.0,0.0,0.0,0.0,0.0,-0.7979,-0.8238,0.0,0.0,0.0,0.0,0.0,0.0,0.0,0.0,0.0,0.0,0.0,0.0,0.0,0.0,0.0,0.0,0.0,0.0,0.0,0.0,0.0,0.0,0.0,0.0,0.0,0.0,0.0,0.0,0.0,0.0,0.0,0.0,0.0,0.0,0.0,0.0,0.0,0.0,0.0,0.0,0.0,0.0,0.0,0.0,0.0,0.0,0.0,0.0,0.0,0.0,0.0,0.0,0.0,0.0,0.0,-1.4367,-1.5463,-1.6164,-1.6443,-1.7697,-1.8176,-1.7723,-1.7314,-1.6764,0.0,0.0,0.0,0.0,0.0,0.0,0.0,0.0,0.0,0.0,0.0,0.0,0.0,0.0,0.0,0.0,0.0,0.0,0.0,0.0,0.0,0.0,0.0,0.0,0.0,0.0,0.0,0.0,0.0,0.0,0.0,0.0,0.0,0.0,0.0,0.0,0.0,0.0,0.0,0.0,0.0,-0.5797,-0.6238,-0.6458,0.0,0.0,0.0,0.0,-0.8202,-0.8458,0.0,0.0,0.0,0.0,0.0,0.0,0.0,0.0,0.0,0.0,0.0,0.0,0.0,0.0,0.0,0.0,0.0,0.0,0.0,0.0,0.0,0.0,0.0,0.0,0.0,0.0,0.0,0.0,0.0,0.0,0.0,0.0,0.0,0.0,0.0,0.0,0.0,0.0,0.0,0.0,0.0,0.0,0.0,0.0,0.0,0.0,0.0,0.0,0.0,0.0,0.0,0.0,0.0,0.0,0.0,0.0,-1.4303,-1.5537,-1.6231,-1.6461,-1.7857,-1.8143,-1.7052,-1.7124,-1.6632,0.0,0.0,0.0,0.0,0.0,0.0,0.0,0.0,0.0,0.0,0.0,0.0,0.0,0.0,0.0,0.0,0.0,0.0,0.0,0.0,0.0,0.0,0.0,0.0,0.0,0.0,0.0,0.0,0.0,0.0,0.0,0.0,0.0,0.0,0.0,0.0,0.0,0.0,0.0,0.0,0.0,-0.5893,-0.6263,-0.6623,-0.7009,0.0,0.0,-0.8403,-0.8823,-0.9301,0.0,0.0,0.0,0.0,0.0,0.0,0.0,0.0,0.0,0.0,0.0,0.0,0.0,0.0,0.0,0.0,0.0,0.0,0.0,0.0,0.0,0.0,0.0,0.0,0.0,0.0,0.0,0.0,0.0,0.0,0.0,0.0,0.0,0.0,0.0,0.0,0.0,0.0,0.0,0.0,0.0,0.0,0.0,0.0,0.0,0.0,0.0,0.0,0.0,0.0,0.0,0.0,0.0,0.0,0.0,-1.3194,-1.4828,-1.5714,-1.6463,-1.7078,-1.8134,-1.8323,-1.7555,-1.7303,-1.6779,0.0,0.0,0.0,0.0,0.0,0.0,0.0,0.0,0.0,0.0,0.0,0.0,0.0,0.0,0.0,0.0,0.0,0.0,0.0,0.0,0.0,0.0,0.0,0.0,0.0,0.0,0.0,0.0,0.0,0.0,0.0,0.0,0.0,0.0,0.0,0.0,0.0,0.0,0.0,0.0,0.0,0.0,-0.6476,-0.6731,0.0,0.0,0.0,-0.858,-0.9035,0.0,0.0,0.0,0.0,0.0,0.0,0.0,0.0,0.0,0.0,0.0,0.0,0.0,0.0,0.0,0.0,0.0,0.0,0.0,0.0,0.0,0.0,0.0,0.0,0.0,0.0,0.0,0.0,0.0,0.0,0.0,0.0,0.0,0.0,0.0,0.0,0.0,0.0,0.0,0.0,0.0,0.0,0.0,0.0,0.0,0.0,0.0,0.0,0.0,0.0,0.0,0.0,0.0,0.0,0.0,0.0,0.0,-1.5261,-1.5925,-1.6696,-1.7571,-1.8366,-1.8512,-1.8029,-1.7482,0.0,0.0,0.0,0.0,0.0,0.0,0.0,0.0,0.0,0.0,0.0,0.0,0.0,0.0,0.0,0.0,0.0,0.0,0.0,0.0,0.0,0.0,0.0,0.0,0.0,0.0,0.0,-0.5512,0.0,0.0,0.0,0.0,0.0,0.0,0.0,0.0,0.0,0.0,0.0,0.0,0.0,0.0,-0.6346,-0.6775,-0.6985,-0.7253,0.0,0.0,-0.8931,-0.939,-0.9937,-1.0454,0.0,0.0,0.0,0.0,0.0,0.0,0.0,0.0,0.0,0.0,0.0,0.0,0.0,0.0,0.0,0.0,0.0,0.0,0.0,0.0,0.0,0.0,0.0,0.0,0.0,0.0,0.0,0.0,0.0,0.0,0.0,0.0,0.0,0.0,0.0,0.0,0.0,0.0,0.0,0.0,0.0,0.0,0.0,0.0,0.0,0.0,0.0,0.0,0.0,0.0,0.0,0.0,0.0,0.0,0.0,-1.5264,-1.6205,-1.6979,-1.7603,-1.8517,-1.8677,-1.8014,-1.7464,-1.6895,0.0,0.0,0.0,0.0,0.0,0.0,0.0,0.0,0.0,0.0,0.0,0.0,0.0,0.0,0.0,0.0,0.0,0.0,0.0,0.0,0.0,0.0,0.0,0.0,0.0,0.0,0.0,0.0,0.0,0.0,0.0,0.0,0.0,0.0,0.0,0.0,0.0,0.0,0.0,0.0,0.0,-0.6628,-0.7125,-0.7447,-0.7898,0.0,0.0,-0.9882,-1.0193,-1.0732,-1.1162,-1.126,0.0,0.0,0.0,0.0,0.0,0.0,0.0,0.0,0.0,0.0,0.0,0.0,0.0,0.0,0.0,0.0,0.0,0.0,0.0,0.0,0.0,0.0,0.0,0.0,0.0,0.0,0.0,0.0,0.0,0.0,0.0,0.0,0.0,0.0,0.0,0.0,0.0,0.0,0.0,0.0,0.0,0.0,0.0,0.0,0.0,0.0,0.0,0.0,0.0,0.0,0.0,0.0,0.0,-1.4047,-1.5948,-1.6453,-1.7238,-1.8309,-1.8774,-1.8902,-1.8697,-1.7702,-1.7067,0.0,0.0,0.0,0.0,0.0,0.0,0.0,0.0,0.0,0.0,0.0,0.0,0.0,0.0,0.0,0.0,0.0,0.0,0.0,0.0,0.0,0.0,0.0,0.0,0.0,0.0,0.0,0.0,-0.6447,-0.6463,-0.6714,0.0,0.0,0.0,0.0,0.0,0.0,0.0,0.0,0.0,0.0,-0.7065,-0.7447,-0.7822,0.0,0.0,-0.9644,-1.0236,-1.0727,-1.1296,-1.1806,-1.2067,-1.2449,0.0,0.0,0.0,0.0,0.0,0.0,0.0,0.0,0.0,0.0,0.0,0.0,0.0,0.0,0.0,0.0,0.0,0.0,0.0,0.0,0.0,0.0,0.0,0.0,0.0,0.0,0.0,0.0,0.0,0.0,0.0,0.0,0.0,0.0,0.0,0.0,0.0,0.0,0.0,0.0,0.0,0.0,0.0,0.0,0.0,0.0,0.0,0.0,0.0,0.0,0.0,0.0,-1.4452,-1.6378,-1.6666,-1.7455,-1.8755,-1.8965,-1.904,-1.9087,-1.8071,-1.7417,0.0,0.0,0.0,0.0,0.0,0.0,0.0,0.0,0.0,0.0,0.0,0.0,0.0,0.0,0.0,0.0,0.0,0.0,0.0,0.0,0.0,0.0,0.0,0.0,0.0,0.0,0.0,0.0,-0.6659,-0.6714,-0.6979,0.0,0.0,0.0,0.0,0.0,0.0,0.0,0.0,0.0,0.0,-0.7494,-0.7958,-0.8357,-0.8878,-0.9586,-1.023,-1.0821,-1.1326,-1.1853,-1.233,-1.2692,0.0,0.0,0.0,0.0,0.0,0.0,0.0,0.0,0.0,0.0,0.0,0.0,0.0,0.0,0.0,0.0,0.0,0.0,0.0,0.0,0.0,0.0,0.0,0.0,0.0,0.0,0.0,0.0,0.0,0.0,-0.8775,0.0,0.0,0.0,0.0,0.0,0.0,0.0,0.0,0.0,0.0,0.0,0.0,0.0,0.0,0.0,0.0,0.0,0.0,0.0,0.0,0.0,0.0,-1.4604,-1.6378,-1.6782,-1.7587,-1.876,-1.8988,-1.9101,-1.9101,-1.8506,-1.7882,-1.72,0.0,0.0,0.0,0.0,0.0,0.0,0.0,0.0,0.0,0.0,0.0,0.0,0.0,0.0,0.0,0.0,0.0,0.0,0.0,0.0,0.0,0.0,0.0,0.0,0.0,0.0,-0.653,-0.6738,-0.6978,0.0,0.0,0.0,0.0,0.0,0.0,0.0,0.0,0.0,0.0,-0.7779,-0.7942,-0.859,-0.9095,-0.9703,-1.0607,-1.1219,-1.1706,-1.2126,-1.2489,-1.2777,0.0,0.0,0.0,0.0,0.0,0.0,0.0,0.0,0.0,0.0,0.0,0.0,0.0,0.0,0.0,0.0,0.0,0.0,0.0,0.0,0.0,0.0,0.0,0.0,0.0,0.0,0.0,-1.0075,-1.0085,0.0,0.0,0.0,0.0,0.0,0.0,0.0,0.0,0.0,0.0,0.0,-1.3702,-1.3886,0.0,0.0,0.0,0.0,0.0,0.0,0.0,0.0,0.0,0.0,0.0,0.0,-1.531,-1.6381,-1.7096,-1.79,-1.8774,-1.8993,-1.9116,-1.9101,-1.8521,-1.7658,-1.6506,0.0,0.0,0.0,0.0,0.0,0.0,0.0,0.0,0.0,0.0,0.0,0.0,0.0,0.0,0.0,0.0,0.0,0.0,0.0,0.0,0.0,0.0,0.0,0.0,0.0,-0.6754,0.0,0.0,0.0,0.0,0.0,0.0,0.0,0.0,0.0,0.0,0.0,-0.8043,-0.8276,-0.841,-0.8608,-0.8997,-0.9569,-1.0319,0.0,0.0,0.0,0.0,0.0,0.0,0.0,0.0,0.0,0.0,0.0,0.0,0.0,0.0,-1.5828,-1.4754,-1.4486,-1.446,-1.4407,0.0,0.0,0.0,0.0,0.0,0.0,0.0,0.0,0.0,0.0,0.0,0.0,0.0,0.0,-1.1421,0.0,-1.1038,0.0,0.0,0.0,0.0,0.0,0.0,0.0,0.0,-1.3849,-1.4352,-1.473,-1.4894,-1.5152,0.0,-1.5241,-1.4679,0.0,0.0,0.0,0.0,0.0,0.0,0.0,0.0,-1.5974,-1.6706,-1.7347,-1.804,-1.8774,-1.8969,-1.9078,-1.9087,-1.847,-1.7693,-1.6774,-1.5841,-1.499,0.0,0.0,0.0,0.0,0.0,0.0,0.0,0.0,0.0,0.0,0.0,0.0,0.0,0.0,0.0,0.0,0.0,0.0,0.0,0.0,0.0,0.0,0.0,-0.6997,0.0,0.0,0.0,0.0,0.0,0.0,0.0,0.0,0.0,-0.8427,-0.8401,-0.8473,-0.8699,-0.8955,-0.9307,-0.9718,0.0,0.0,0.0,0.0,0.0,0.0,0.0,-1.4719,-1.4977,-1.5315,-1.5608,-1.5959,-1.6346,-1.6774,-1.7172,0.0,0.0,-1.5812,-1.5594,-1.5566,-1.5566,-1.5537,-1.5566,-1.5678,-1.5706,-1.5761,0.0,0.0,0.0,0.0,0.0,0.0,0.0,0.0,-1.2924,-1.2892,0.0,-1.2451,0.0,0.0,0.0,0.0,0.0,-1.3291,0.0,0.0,-1.4868,-1.5545,-1.6303,-1.675,-1.6979,-1.6988,-1.6483,-1.6181,-1.6046,-1.5549,0.0,0.0,0.0,0.0,0.0,0.0,-1.6574,-1.7263,-1.7506,-1.8007,-1.8769,-1.8941,-1.9036,-1.9087,-1.8415,-1.8011,-1.7939,-1.6661,-1.5606,-1.4835,-1.4157,0.0,0.0,0.0,0.0,0.0,0.0,0.0,0.0,0.0,0.0,0.0,0.0,0.0,0.0,0.0,0.0,0.0,0.0,0.0,0.0,-0.6947,0.0,0.0,0.0,0.0,0.0,0.0,0.0,0.0,0.0,0.0,-0.8404,-0.8484,-0.8687,-0.9095,0.0,0.0,0.0,0.0,-1.2282,-1.3024,-1.34,-1.3891,-1.4592,-1.5002,-1.5425,-1.5891,0.0,0.0,-1.7128,-1.7471,-1.7688,-1.7719,-1.7719,-1.7688,-1.7554,-1.7431,-1.7379,-1.7296,-1.7256,-1.7399,-1.7688,-1.7614,-1.7747,-1.4473,0.0,0.0,0.0,0.0,-1.4709,-1.485,-1.4936,-1.4482,-1.417,-1.3936,-1.3466,0.0,0.0,0.0,0.0,0.0,0.0,-1.5124,-1.5643,-1.6008,-1.6389,-1.6784,-1.6925,-1.7206,-1.7564,-1.7417,-1.7524,-1.784,-1.7708,-1.6883,-1.5526,0.0,0.0,0.0,0.0,-1.6802,-1.7183,-1.7788,-1.8249,-1.8581,-1.8846,-1.9012,-1.9036,-1.874,-1.8331,-1.7797,-1.7247,-1.6481,-1.5412,-1.4594,0.0,0.0,0.0,0.0,0.0,0.0,0.0,0.0,0.0,0.0,0.0,0.0,0.0,0.0,0.0,0.0,0.0,0.0,0.0,-0.7212,-0.7295,-0.7554,0.0,0.0,0.0,0.0,0.0,0.0,0.0,0.0,0.0,-0.9484,-0.9457,-0.9542,0.0,0.0,-1.1081,-1.1472,-1.2036,-1.2708,-1.355,-1.406,0.0,0.0,-1.5673,-1.6004,-1.613,-1.6624,-1.7106,-1.7346,-1.7574,-1.7802,-1.8133,-1.8195,-1.832,-1.8653,-1.8143,-1.774,-1.775,-1.7781,-1.7874,-1.8048,-1.8068,-1.8181,-1.6304,-1.607,-1.5596,-1.5375,-1.5397,-1.5516,-1.5672,-1.5763,-1.5369,-1.5091,-1.4941,-1.4657,-1.4361,-1.4043,-1.4066,0.0,0.0,0.0,-1.5917,-1.6207,-1.6703,-1.7049,-1.7301,-1.7537,-1.7803,-1.8105,-1.8105,-1.8261,-1.851,-1.8569,-1.799,-1.679,0.0,0.0,-1.6446,-1.6915,-1.7247,-1.7423,-1.7909,-1.8279,-1.8498,-1.8769,-1.8908,-1.8922,-1.8831,-1.8532,-1.805,-1.7632,-1.6903,-1.5841,-1.5066,-1.4033,0.0,0.0,0.0,0.0,0.0,0.0,0.0,0.0,0.0,0.0,0.0,-0.7988,-0.7854,0.0,0.0,0.0,-0.7422,-0.7463,-0.7517,-0.78,0.0,0.0,0.0,0.0,0.0,0.0,0.0,-0.9751,-0.9851,-0.9983,-1.0196,-1.0479,-1.0675,-1.0699,-1.132,-1.1888,-1.2241,0.0,-1.3531,-1.4326,-1.4813,-1.5333,-1.5971,-1.6415,-1.6728,-1.7004,-1.7379,-1.7755,-1.797,-1.813,-1.8361,-1.8611,-1.8726,-1.8874,-1.9233,-1.8814,-1.849,-1.8617,-1.8649,-1.867,-1.8848,-1.8932,-1.9026,-1.8175,-1.8564,-1.677,-1.6051,-1.6029,-1.5899,-1.5914,-1.5959,-1.5845,-1.5827,-1.5854,-1.5865,-1.5844,-1.5811,-1.5818,0.0,-1.5865,-1.618,-1.6342,-1.633,-1.7091,-1.7595,-1.7878,-1.8363,-1.8603,-1.8658,-1.8633,-1.8598,-1.8545,-1.8663,-1.8719,-1.8768,-1.8453,-1.8047,-1.7563,-1.7723,-1.7888,-1.8018,-1.8051,-1.8196,-1.8464,-1.8664,-1.8765,-1.875,-1.8697,-1.8615,-1.8484,-1.7828,-1.7061,-1.6214,-1.5576,-1.4557,-1.3074,0.0,0.0,0.0,0.0,0.0,0.0,0.0,0.0,0.0,0.0,0.0,0.0,0.0,0.0,0.0,-0.7746,0.0,-0.7808,-0.8392,0.0,0.0,0.0,-0.9593,-0.9935,-0.9937,-0.999,-1.0047,0.0,0.0,-1.0676,-1.1381,-1.1848,-1.1681,-1.2018,-1.2473,-1.3003,-1.378,-1.4561,-1.5108,-1.5603,-1.6079,-1.6689,-1.707,-1.7463,-1.8089,-1.8438,-1.8556,-1.8747,-1.8924,-1.9088,-1.911,-1.9208,-1.9308,-1.9341,-1.9474,-1.9648,-1.967,-1.9627,-1.9649,-1.9803,-1.9944,-2.0106,-1.8479,-1.8654,-1.8196,-1.7999,-1.8021,-1.7981,-1.7784,-1.7457,-1.7457,-1.7043,-1.6334,-1.6334,-1.6138,-1.5822,-1.6171,-1.6323,-1.6372,-1.6932,-1.7233,-1.7364,-1.7655,-1.7955,-1.8262,-1.8486,-1.8715,-1.8911,-1.9002,-1.9214,-1.9447,-1.9497,-1.9482,-1.9402,-1.9318,-1.9097,-1.8715,-1.8746,-1.8888,-1.9116,-1.8735,-1.846,-1.8352,-1.8383,-1.8436,-1.8422,-1.8383,-1.8352,-1.8282,-1.8017,-1.7528,-1.6816,-1.6021,-1.4919,-1.3489,-1.279,0.0,0.0,0.0,0.0,0.0,0.0,0.0,0.0,0.0,-0.8911,-0.9025,0.0,-0.8893,0.0,-0.8715,-0.8577,-0.8826,-0.9125,0.0,0.0,-0.993,-1.0058,-1.0391,-1.0428,-1.0463,-1.0516,-1.0783,-1.1124,-1.1548,-1.1788,-1.2181,-1.2913,-1.3114,-1.3346,-1.3807,-1.4219,-1.4784,-1.5505,-1.5964,-1.6351,-1.683,-1.7426,-1.793,-1.8381,-1.8617,-1.8774,-1.8965,-1.9075,-1.9142,-1.9241,-1.9274,-1.9417,-1.9703,-1.9813,-2.0029,-2.0432,-2.0203,-1.9868,-2.0009,-2.0216,-2.0499,-1.9053,-1.9342,-1.9311,-1.9311,-1.9278,-1.8873,-1.8545,-1.8316,-1.8305,-1.7999,-1.7475,-1.7278,-1.6918,-1.6476,-1.6732,-1.6972,-1.7191,-1.7622,-1.795,-1.8258,-1.8464,-1.8691,-1.8929,-1.9097,-1.9349,-1.9657,-1.9534,-1.9656,-1.9964,-1.9846,-1.9762,-1.9697,-1.9809,-1.9827,-1.9708,-1.9304,-1.9178,-1.9324,-1.918,-1.8923,-1.8596,-1.8616,-1.8517,-1.8268,-1.8254,-1.8214,-1.8095,-1.8016,-1.757,-1.682,-1.6248,-1.5423,-1.4197,-1.3601,-1.277,0.0,0.0,0.0,0.0,0.0,0.0,0.0,0.0,0.0,0.0,0.0,-0.9633,-0.9769,-0.9418,-0.9351,-0.971,-0.9897,-1.0102,-1.0386,-1.0528,-1.069,-1.0843,-1.0987,-1.1089,-1.1111,-1.135,-1.1666,-1.2024,-1.2317,-1.2704,-1.3433,-1.3783,-1.4065,-1.431,-1.4705,-1.5221,-1.5823,-1.6281,-1.6726,-1.7201,-1.7769,-1.8212,-1.8448,-1.8684,-1.8875,-1.9075,-1.9285,-1.9443,-1.9632,-1.9857,-2.0141,-2.0436,-2.0616,-2.0781,-2.1012,-2.0902,-2.0772,-2.0851,-2.1019,-2.1319,-1.9736,-2.0118,-2.0118,-2.0118,-2.0042,-1.9202,-1.884,-1.8785,-1.8785,-1.8742,-1.8665,-1.8272,-1.7857,-1.7492,-1.7492,-1.7693,-1.8086,-1.8192,-1.85,-1.8909,-1.9227,-1.9436,-1.9595,-1.9801,-2.0077,-2.0377,-2.0017,-1.9996,-2.0235,-1.995,-1.9808,-1.9885,-2.0054,-2.0246,-2.0397,-1.9632,-1.9249,-1.9216,-1.9507,-1.9425,-1.8963,-1.8995,-1.8769,-1.824,-1.8164,-1.8069,-1.7928,-1.7868,-1.7458,-1.6652,-1.6388,-1.5832,-1.4917,-1.4622,-1.3874,0.0,-1.2933,0.0,0.0,0.0,0.0,0.0,0.0,0.0,0.0,-1.0332,-1.02,-1.0179,-1.0064,-1.0132,-1.0474,-1.0626,-1.0763,-1.0946,-1.1195,-1.1362,-1.1305,-1.158,-1.1757,-1.1695,-1.1868,-1.2096,-1.2441,-1.2936,-1.3317,-1.374,-1.4265,-1.4732,-1.4949,-1.5287,-1.5682,-1.614,-1.671,-1.7369,-1.7893,-1.8306,-1.8624,-1.8717,-1.8951,-1.9083,-1.9292,-1.9616,-1.9979,-2.0194,-2.0631,-2.1037,-2.1301,-2.1455,-2.1592,-2.1658,-2.1658,-2.1684,-2.1781,-2.1909,-2.2171,-2.0031,-2.0118,-2.0118,-2.0118,-2.0064,-1.9922,-1.9616,-1.9277,-1.9277,-1.9058,-1.8687,-1.863,-1.8512,-1.8425,-1.8425,-1.8498,-1.8556,-1.8586,-1.8701,-1.892,-1.916,-1.9328,-1.9465,-1.9754,-1.993,-2.0018,-2.0017,-2.0172,-2.0418,-1.9996,-1.9976,-2.0277,-1.9998,-1.9939,-2.008,0.0,0.0,0.0,-2.0007,-1.9806,-1.9244,-1.8771,-1.8489,-1.8347,-1.7886,0.0,-1.7598,-1.7522,-1.7372,-1.707,-1.6355,0.0,0.0,0.0,0.0,0.0,0.0,0.0,0.0,0.0,0.0,0.0,-1.1581,-1.1355,-1.1007,-1.1073,-1.1145,-1.1224,-1.1099,-1.1046,-1.1121,-1.1145,-1.1337,-1.1716,-1.175,-1.1746,-1.1823,-1.1992,-1.21,-1.2077,-1.2294,-1.2677,-1.3156,-1.3382,-1.3814,-1.4675,-1.5017,-1.547,-1.6321,-1.6029,-1.6026,-1.6648,-1.7528,-1.8379,-1.9118,-1.9407,-1.9545,-1.9849,-2.0006,-2.0071,-2.0096,-2.0334,-2.0614,-2.0776,-2.1037,-2.1334,-2.1544,-2.1592,-2.1767,-2.2106,-2.2146,-2.2108,-2.1959,-2.1998,-2.2261,-2.0118,0.0,-2.0118,-2.0118,0.0,-2.0118,-1.9976,-1.9747,-1.9747,-1.9475,-1.9047,-1.9047,-1.8916,-1.8698,-1.8698,-1.8818,-1.9047,-1.9047,-1.9282,-1.9638,-1.9856,-2.0031,-2.0174,-2.0442,-2.0595,-2.0621,-2.0437,-2.0458,-2.0671,-2.0299,-2.0113,-2.0095,-2.0029,-1.993,-1.981,-2.0003,-2.0167,-2.0289,-2.0475,-2.0292,-1.9754,-1.9448,-1.8963,-1.8327,0.0,0.0,0.0,0.0,0.0,0.0,0.0,0.0,0.0,0.0,0.0,-1.3731,-1.3543,-1.3157,-1.2559,-1.2474,-1.2488,-1.2442,-1.2348,-1.2131,-1.1765,-1.1714,-1.1773,-1.1975,-1.1728,-1.1678,-1.2012,-1.1895,-1.1965,-1.235,-1.239,-1.238,-1.238,-1.2551,-1.2669,-1.2568,-1.2656,-1.2986,-1.3637,-1.3948,-1.4417,-1.531,-1.5818,-1.6296,-1.6853,-1.6733,-1.6782,-1.7639,-1.8237,-1.8909,-1.9446,-1.9769,-1.997,-2.0139,-2.0298,-2.0385,-2.0374,-2.075,-2.1087,-2.1335,-2.1685,-2.2064,-2.2244,-2.228,-2.2357,-2.2586,-2.2652,-2.267,-2.2576,-2.2711,-2.2945,-2.0194,-2.0118,-2.0118,-2.0118,-2.0118,-2.0118,-2.0118,-2.0118,0.0,0.0,0.0,-1.9518,-1.9289,-1.8949,-1.8938,-1.9168,-1.9507,-1.9518,-1.9832,-2.0335,-2.0604,-2.0754,-2.0882,-2.1094,-2.1253,-2.1345,-2.0908,-2.0803,-2.0974,-2.0677,-2.033,-2.0033,-2.0095,-1.9934,-1.9602,-1.9798,-2.0105,-2.0422,-2.0662,-2.0601,-2.0221,-2.0102,-1.9539,-1.8442,-1.8197,-1.7813,-1.7284,-1.7033,-1.6812,-1.6616,-1.6346,-1.6054,-1.5726,-1.5413,-1.4937,-1.4272,-1.4123,-1.3773,-1.3081,-1.3263,-1.3332,-1.3163,-1.2969,-1.277,-1.252,-1.224,-1.2228,-1.2563,-1.2238,-1.2242,-1.2708,-1.259,-1.2552,-1.2822,-1.2952,-1.2946,-1.2813,-1.3028,-1.3105,-1.301,-1.3066,-1.3335,-1.4036,-1.4539,-1.5078,-1.5797,-1.653,-1.7182,-1.7474,-1.7537,-1.7804,-1.8638,-1.9101,-1.9387,-1.9806,-2.0086,-2.0275,-2.0518,-2.0622,-2.0633,-2.0721,-2.1162,-2.1602,-2.1781,-2.2344,-2.2728,-2.2942,-2.2936,-2.3001,-2.3001,-2.3001,-2.3049,-2.3224,-2.3409,-2.3559,-2.0522,-2.0118,-2.0118,-2.0118,-2.0118,-2.0118,-2.0118,-2.0118,-2.0129,-2.0074,-2.0009,-2.002,-1.9976,-1.9911,-1.9911,-1.9943,-2.0009,-2.0009,-2.0053,0.0,-2.054,-2.0701,-2.0733,-2.1042,-2.1221,-2.1221,-2.1152,-2.1201,-2.1257,-2.0833,-2.0633,-2.0647,-2.0148,-1.9703,-1.947,-1.9565,-1.9694,-1.9734,-2.0105,-2.0283,-2.018,-1.9742,-1.9444,-1.9203,-1.8172,-1.7568,-1.7457,-1.6838,-1.6414,-1.6275,-1.6013,-1.5726,-1.5402,-1.5131,-1.4946,-1.4936,-1.4622,-1.4391,-1.4238,-1.3984,-1.3669,-1.3408,-1.3241,-1.3067,-1.2923,-1.2626,-1.2571,-1.2874,-1.2898,-1.2774,-1.2601,-1.2836,-1.2972,-1.2954,-1.298,-1.304,-1.3114,-1.3193,-1.3207,-1.3221,-1.3592,-1.3984,-1.4517,-1.514,-1.5806,-1.6548,-1.7156,-1.7796,-1.8608,-1.8721,-1.8826,-1.9409,-1.9834,-2.0282,-2.0709,-2.1118,-2.1247,-2.1535,-2.1521,-2.1497,-2.1497,-2.1832,-2.2131,-2.2285,-2.2611,-2.2879,-2.3001,-2.3001,-2.2964,-2.2964,-2.2964,-2.3001,-2.3038,-2.3176,-2.3372,-2.1134,-2.0937,-2.0937,-2.0892,-2.0903,-2.0892,-2.0892,-2.0904,-2.0642,-2.0347,-2.0129,-2.0118,-2.0118,-2.0118,-2.0118,-2.0118,-2.0118,-2.0118,-2.0183,-2.0281,-2.0443,-2.0604,-2.0701,-2.085,-2.0978,-2.1031,-2.1019,-2.1115,-2.125,-2.1093,-2.0931,-2.0708,-1.9922,-1.9507,-1.9447,-1.9332,-1.9291,-1.9396,-1.9785,-1.9991,-1.9978,-1.9737,-1.9459,-1.9069,-1.8408,-1.7902,-1.7559,-1.7125,-1.6782,-1.6585,-1.6433,-1.6149,-1.5755,-1.5514,-1.5307,-1.5124,-1.483,-1.4563,-1.4307,-1.4019,-1.3791,-1.3738,-1.3508,-1.3386,-1.3441,-1.3236,-1.3126,-1.3151,-1.3284,-1.3342,-1.3207,-1.3282,-1.3338,-1.3421,-1.3351,-1.3295,-1.3346,-1.3346,-1.3484,-1.3756,-1.4022,-1.4441,-1.5219,-1.5825,-1.641,-1.711,-1.7704,-1.8536,-1.9432,-1.9474,-1.9507,-1.9947,-2.037,-2.0735,-2.1126,-2.1349,-2.1578,-2.1769,-2.1807,-2.1807,-2.1807,-2.2063,-2.2214,-2.2262,-2.2478,-2.2665,-2.2665,-2.2703,-2.2665,-2.2665,-2.2665,-2.2665,-2.2703,-2.2777,-2.3001,-2.1539,-2.1441,-2.1441,-2.1476,-2.1522,-2.1592,-2.1603,-2.1594,-2.1177,-2.0817,-2.0445,-2.0216,-2.0118,-2.0118,-2.0118,-2.0118,-2.0118,-2.0118,-2.0183,-2.0313,-2.0378,-2.0475,-2.0637,-2.068,-2.0765,-2.0839,-2.0871,-2.0946,-2.1074,-2.121,-2.1039,-2.0568,-1.9931,-1.9601,-1.9629,-1.928,-1.9114,-1.9223,-1.9419,-1.9566,-1.9669,-1.9669,-1.9393,-1.8894,-1.8595,-1.8188,-1.7665,-1.735,-1.707,-1.6811,-1.6698,-1.6473,-1.6058,-1.5789,-1.5508,-1.5216,-1.4946,-1.4596,-1.4233,-1.396,-1.3884,-1.3978,-1.3731,-1.3647,-1.3772,-1.3817,-1.3688,-1.3478,-1.3538,-1.3671,-1.3658,-1.363,-1.362,-1.3731,-1.3608,-1.3528,-1.3587,-1.3601,-1.3837,-1.4306,-1.4509,-1.4934,-1.574,-1.6429,-1.703,-1.7664,-1.829,-1.9011,-1.9715,-1.9912,-2.0029,-2.0352,-2.0664,-2.0925,-2.1167,-2.1359,-2.1589,-2.1769,-2.1807,-2.1807,-2.1845,-2.1959,-2.2063,-2.2138,-2.2252,-2.2402,-2.2392,-2.2429,-2.244,-2.244,-2.244,-2.244,-2.244,-2.2429,-2.259,-2.1439,-2.1098,-2.1108,-2.1171,-2.138,-2.1555,-2.1636,-2.1625,-2.1538,-2.1494,-2.1328,-2.05,-2.0107,-2.0118,-2.014,-2.014,-2.0118,-2.0118,-2.0118,-2.0151,-2.0313,-2.041,-2.0443,-2.0604,-2.0701,-2.0733,-2.0733,-2.0722,-2.0765,-2.0903,-2.0843,-2.0618,-2.0528,-2.0297,-2.0012,-1.9535,-1.9265,-1.9281,-1.8904,-1.8895,-1.9239,-1.9265,-1.915,-1.8967,-1.8355,-1.7964,-1.7765,-1.719,-1.6733,-1.6471,-1.6294,-1.6069,-1.5811,-1.5414,-1.5289,-1.5485,-1.5002,-1.4648,-1.4451,-1.4159,-1.3995,-1.3973,-1.3859,-1.3765,-1.3835,-1.4093,-1.415,-1.3863,-1.3753,-1.3731,-1.3549,-1.3665,-1.3694,-1.3593,-1.355,-1.3616,-1.3857,-1.3976,-1.4169,-1.4718,-1.513,-1.5594,-1.5991,-1.675,-1.7609,-1.8353,-1.854,-1.898,-1.9666,-1.9902,-2.0059,-2.045,-2.0741,-2.0945,-2.1177,-2.1359,-2.155,-2.1731,-2.1807,-2.1807,-2.1845,-2.1959,-2.2101,-2.2073,-2.2214,-2.2327,-2.2365,-2.2392,-2.2365,-2.2327,-2.2327,-2.2365,-2.2402,-2.2327,-2.2402,-2.2009,-2.1813,-2.1839,-2.1875,-2.1949,-2.2058,-2.2058,-2.2037,-2.1793,-2.1675,-2.1553,-2.0941,-2.0602,-2.0577,-2.0566,-2.0424,-2.0118,-2.0118,-2.0118,-2.0118,-2.0205,-2.0216,-2.0248,-2.0313,-2.041,-2.0496,-2.054,-2.0604,-2.0701,-2.0754,-2.0749,-2.0617,-2.0356,-2.0125,-1.9958,-1.9579,-1.9218,-1.8896,-1.883,-1.8685,-1.8476,-1.864,-1.8706,-1.8602,-1.82,-1.7936,-1.7832,-1.7425,-1.7133,-1.693,-1.6677,-1.6396,-1.6172,-1.5849,-1.5606,-1.5479,-1.4917,-1.4549,-1.4499,-1.4214,-1.4055,-1.4053,-1.3897,-1.3884,-1.4134,-1.4098,-1.4047,-1.415,-1.4163,-1.4037,-1.3739,-1.3751,-1.3717,-1.3565,-1.3667,-1.388,-1.3998,-1.4303,-1.4687,-1.5206,-1.5556,-1.6021,-1.6549,-1.7155,-1.7861,-1.854,-1.8709,-1.898,-1.9606,-1.9824,-2.002,-2.0333,-2.0576,-2.078,-2.1012,-2.1282,-2.1512,-2.1627,-2.1731,-2.1807,-2.1807,-2.1845,-2.1911,-2.1921,-2.1997,-2.2035,-2.2035,-2.2025,-2.2025,-2.2035,-2.1921,-2.1845,-2.1693,-2.1693,-2.1693,-2.2252,-2.2252,-2.2289,-2.2327,-2.2327,-2.2375,-2.2392,-2.2371,-2.203,-2.1892,-2.1849,-2.1541,-2.1278,-2.1103,-2.0986,-2.0626,-2.0215,-2.0138,-2.0106,-1.9955,-1.9976,-1.9955,-1.9976,-1.9976,-2.0042,-2.014,-2.0183,-2.0302,-2.0496,-2.0529,-2.0593,-2.0613,-2.031,-2.0111,-2.0086,-1.9711,-1.9302,-1.8924,-1.8923,-1.8566,-1.8053,-1.8085,-1.8194,-1.8134,-1.7909,-1.776,-1.765,-1.7468,-1.7273,-1.7099,-1.6846,-1.6563,-1.6278,-1.6038,-1.57,-1.5186,-1.4857,-1.4583,-1.4403,-1.4275,-1.4202,-1.4175,-1.3991,-1.4048,-1.425,-1.4085,-1.3975,-1.4148,-1.4217,-1.4065,-1.3863,-1.3843,-1.3778,-1.3689,-1.3916,-1.4174,-1.426,-1.4691,-1.5142,-1.5652,-1.5923,-1.634,-1.7025,-1.7456,-1.7878,-1.8531,-1.8709,-1.89,-1.9448,-1.9754,-1.9912,-2.0264,-2.0411,-2.0615,-2.0867,-2.1099,-2.132,-2.1436,-2.154,-2.1578,-2.1627,-2.1617,-2.1606,-2.1589,-2.1617,-2.1655,-2.1655,-2.1617,-2.1655,-2.1617,-2.1512,-2.1418,-2.131,-2.1215,-2.1237,-2.1845,-2.1835,-2.2025,-2.2101,-2.2101,-2.2289,-2.2402,-2.2354,-2.2322,-2.236,-2.2312,-2.2269,-2.2062,-2.163,-2.1211,-2.0743,-2.0373,-2.032,-2.0085,-1.9712,-1.968,-1.9648,-1.9605,-1.9605,-1.9648,-1.9714,-1.9704,-1.9835,-2.0139,-2.0139,-2.0313,-2.0669,-2.0581,-2.0613,-2.0502,-2.0068,-1.9749,-1.9417,-1.9075,-1.8585,-1.7981,-1.7817,-1.7726,-1.7601,-1.7507,-1.7346,-1.7095,-1.7039,-1.6899,-1.6627,-1.6477,-1.6249,-1.5941,-1.5623,-1.5176,-1.4673,-1.4885,-1.4786,-1.4268,-1.4395,-1.4496,-1.4391,-1.4191,-1.4158,-1.4308,-1.4176,-1.4011,-1.3863,-1.3893,-1.3864,-1.385,-1.3918,-1.3961,-1.402,-1.4291,-1.4553,-1.4791,-1.51,-1.5496,-1.5957,-1.6257,-1.6667,-1.7261,-1.7392,-1.7838,-1.8411,-1.87,-1.89,-1.9369,-1.9606,-1.9794,-2.0108,-2.0303,-2.042,-2.079,-2.0984,-2.1061,-2.1167,-2.1244,-2.1244,-2.1244,-2.1215,-2.1244,-2.1244,-2.132,-2.132,-2.1244,-2.1244,-2.1233,-2.1254,-2.1286,-2.1218,-2.1055,-2.1188,-2.1222,-2.1807,-2.1807,-2.1883,-2.1921,-2.1921,-2.1987,-2.2025,-2.1987,-2.2025,-2.2025,-2.2035,-2.2035,-2.1931,-2.1774,-2.158,-2.1245,-2.0783,-2.0729,-2.052,-2.0071,-2.0029,-1.9903,-1.9626,-1.9583,-1.9583,-1.9583,-1.9583,-1.9671,-1.9769,-1.9802,-1.9868,-1.9966,-2.0009,-2.0009,-1.9944,-1.9814,-1.9533,-1.9167,-1.8973,-1.8579,-1.7968,-1.7855,-1.7699,-1.742,-1.7105,-1.6881,-1.674,-1.6542,-1.6332,-1.6161,-1.5884,-1.5662,-1.5449,-1.5306,-1.5046,-1.4747,-1.4746,-1.4687,-1.4463,-1.4447,-1.4391,-1.4212,-1.4261,-1.4233,-1.4171,-1.4036,-1.3863,-1.3827,-1.3852,-1.3911,-1.394,-1.3998,-1.4108,-1.4328,-1.4575,-1.4776,-1.4988,-1.5401,-1.5875,-1.6139,-1.6525,-1.7017,-1.731,-1.7505,-1.7829,-1.8371,-1.862,-1.8851,-1.9161,-1.9448,-1.9636,-1.9843,-1.9951,-2.0098,-2.0225,-2.0664,-2.0945,-2.1012,-2.1089,-2.1167,-2.1177,-2.1128,-2.1128,-2.1089,-2.1099,-2.1091,-2.1072,-2.1182,-2.1152,-2.0967,-2.1026,-2.1066,-2.0837,-2.1034,-2.1197,-2.1807,-2.1807,-2.1807,-2.1807,-2.1807,-2.1807,-2.1807,-2.1807,-2.1807,-2.1769,-2.1731,-2.1693,-2.1655,-2.1617,-2.1578,-2.1432,-2.1089,-2.103,-2.0776,-2.0344,-2.0333,-2.0081,-1.9691,-1.9605,-1.9477,-1.9328,-1.9285,-1.9274,-1.9341,-1.9351,-1.9384,-1.944,-1.944,-1.944,-1.945,-1.945,-1.9238,-1.8953,-1.8858,-1.8552,-1.7925,-1.7791,-1.7583,-1.7172,-1.6758,-1.654,-1.6494,-1.627,-1.6066,-1.5861,-1.5595,-1.5366,-1.5266,-1.5108,-1.4939,-1.4753,-1.4698,-1.4614,-1.4488,-1.4472,-1.4361,-1.4116,-1.4142,-1.4109,-1.3928,-1.3799,-1.3712,-1.3674,-1.3825,-1.3959,-1.4074,-1.4142,-1.4307,-1.4618,-1.4863,-1.5053,-1.5101,-1.5662,-1.6098,-1.6319,-1.6648,-1.7066,-1.7351,-1.7505,-1.7829,-1.8313,-1.8523,-1.8692,-1.8962,-1.9201,-1.9478,-1.9585,-1.9855,-2.004,-2.0313,-2.0747,-2.0673,-2.0654,-2.082,-2.0947,-2.1034,-2.1014,-2.1004,-2.0936,-2.0907,-2.0908,-2.0957,-2.1096,-2.1026,-2.0808,-2.0941,-2.1111,-2.1024,-2.0932,-2.1089,-2.1807,-2.1807,-2.1807,-2.1769,-2.1769,-2.1769,-2.1769,-2.1731,-2.178,-2.1655,-2.1512,-2.1502,-2.1397,-2.1244,-2.1282,-2.1213,-2.1187,-2.1104,-2.0829,-2.0416,-2.0395,-2.0193,-1.9779,-1.962,-1.9336,-1.8923,-1.866,-1.865,-1.8852,-1.8841,-1.8942,-1.9065,-1.9065,-1.9075,-1.9065,-1.9042,-1.8965,-1.878,-1.8736,-1.8387,-1.7707,-1.7615,-1.7317,-1.675,-1.6538,-1.6398,-1.6315,-1.6266,-1.6105,-1.58,-1.5598,-1.5455,-1.5286,-1.5056,-1.4813,-1.4685,-1.479,-1.4599,-1.4252,-1.4383,-1.4363,-1.4083,-1.3884,-1.3761,-1.3587,-1.3546,-1.3547,-1.3511,-1.3673,-1.3954,-1.424,-1.4432,-1.4622,-1.4889,-1.5163,-1.5323,-1.5436,-1.579,-1.6252,-1.6525,-1.6689,-1.6902,-1.727,-1.7432,-1.7668,-1.8152,-1.8446,-1.861,-1.8959,-1.9115,-1.9243,-1.9546,-1.9866,-2.0079,-2.0482,-2.0851,-2.0488,-2.0273,-2.0464,-2.0643,-2.0769,-2.0789,-2.0867,-2.0818,-2.0748,-2.0756,-2.097,-2.1065,-2.1065,-2.0967,-2.1116,-2.1076,-2.0941,-2.0865,-2.0955,-2.1807,-2.1807,-2.1807,-2.1731,-2.1617,-2.1578,-2.154,-2.1397,-2.1387,-2.1359,-2.132,-2.1282,-2.1244,-2.1215,-2.1215,-2.1215,-2.1195,-2.1159,-2.0903,-2.0518,-2.0467,-2.0234,-1.988,-1.9727,-1.9515,-1.9081,-1.868,-1.8516,-1.8593,-1.8593,-1.8617,-1.8674,-1.8674,-1.864,-1.8563,-1.8539,-1.8438,-1.8269,-1.8245,-1.8045,-1.7682,-1.7547,-1.7312,-1.7039,-1.6852,-1.6565,-1.6132,-1.6027,-1.5864,-1.5546,-1.5474,-1.5249,-1.4946,-1.4881,-1.474,-1.451,-1.4606,-1.4624,-1.4348,-1.424,-1.4101,-1.3783,-1.3645,-1.3542,-1.3404,-1.3381,-1.3505,-1.3617,-1.395,-1.4195,-1.4326,-1.4523,-1.4738,-1.5029,-1.5247,-1.5389,-1.5472,-1.5846,-1.6162,-1.6435,-1.6607,-1.6861,-1.7147,-1.731,-1.7588,-1.7929,-1.8376,-1.8795,-1.8945,-1.9277,-1.9564,-1.9775,-1.9952,-2.0087,-2.0397,-2.0684,-2.0573,-2.0439,-2.0596,-2.0628,-2.0676,-2.0704,-2.0752,-2.0709,-2.0636,-2.0699,-2.091,-2.0996,-2.1039,-2.0968,-2.0948,-2.086,-2.0728,-2.0734,-2.0808,-2.1759,-2.1693,-2.1693,-2.1578,-2.1397,-2.1397,-2.132,-2.1215,-2.1215,-2.1167,-2.1089,-2.1089,-2.1012,-2.0896,-2.0858,-2.0819,-2.0731,-2.0693,-2.0584,-2.0386,-2.0659,-2.0466,-1.9946,-1.9601,-1.9315,-1.9013,-1.8728,-1.8503,-1.8345,-1.8345,-1.8267,-1.8173,-1.811,-1.8076,-1.7998,-1.792,-1.7818,-1.7691,-1.7623,-1.7486,-1.7295,-1.7157,-1.7028,-1.6821,-1.6656,-1.6322,-1.5867,-1.5764,-1.5668,-1.5464,-1.5426,-1.5212,-1.4765,-1.4759,-1.4673,-1.4468,-1.4391,-1.431,-1.4109,-1.392,-1.3702,-1.3397,-1.3374,-1.3362,-1.3279,-1.3348,-1.3613,-1.3746,-1.4035,-1.4214,-1.4241,-1.4435,-1.465,-1.479,-1.5082,-1.534,-1.5506,-1.5839,-1.617,-1.6402,-1.6599,-1.6812,-1.7057,-1.7335,-1.7614,-1.7919,-1.8446,-1.8987,-1.9106,-1.9423,-1.9639,-1.9848,-2.0038,-2.015,-2.0247,-2.044,-2.0591,-2.0695,-2.0819,-2.0815,-2.0818,-2.0818,-2.0846,-2.0671,-2.0583,-2.0613,-2.0778,-2.0979,-2.1049,-2.0962,-2.0866,-2.0861,-2.0793,-2.0615,-2.0649,-2.1655,-2.1502,-2.1464,-2.1349,-2.1205,-2.1177,-2.1167,-2.1138,-2.1128,-2.0974,-2.0858,-2.079,-2.0625,-2.0342,-2.0342,-2.0225,-1.999,-1.9981,-2.001,-2.0129,-2.0546,-2.0581,-2.0074,-1.9395,-1.9008,-1.8832,-1.87,-1.8455,-1.8195,-1.814,-1.7906,-1.7618,-1.7599,-1.748,-1.7436,-1.7245,-1.7166,-1.7097,-1.6968,-1.6786,-1.6559,-1.6533,-1.6403,-1.6132,-1.6026,-1.5833,-1.5517,-1.5396,-1.5418,-1.5463,-1.5357,-1.5141,-1.4867,-1.4677,-1.4502,-1.4314,-1.4165,-1.3884,-1.3564,-1.3492,-1.3338,-1.3058,-1.3173,-1.3237,-1.3215,-1.3518,-1.377,-1.3749,-1.3978,-1.4139,-1.4132,-1.4272,-1.4398,-1.4482,-1.4873,-1.5249,-1.5616,-1.5873,-1.6121,-1.6319,-1.6574,-1.6795,-1.7081,-1.739,-1.7737,-1.8154,-1.8582,-1.8981,-1.9307,-1.9505,-1.96,-1.9843,-2.0132,-2.0272,-2.043,-2.0536,-2.0678,-2.0817,-2.0944,-2.0918,-2.0924,-2.0915,-2.0881,-2.0741,-2.0587,-2.062,-2.072,-2.0916,-2.0988,-2.0909,-2.0882,-2.097,-2.0772,-2.0464,-2.0283,-2.1474,-2.1282,-2.1282,-2.1167,-2.0984,-2.0984,-2.0896,-2.076,-2.0615,-2.0547,-2.043,-2.0225,-2.0147,-2.0029,-1.9981,-1.9942,-1.9863,-1.9863,-1.9794,-1.9715,-1.9872,-2.0031,-1.9869,-1.944,-1.9165,-1.9071,-1.8648,-1.8341,-1.8238,-1.8091,-1.7852,-1.7491,-1.7481,-1.7254,-1.691,-1.6804,-1.6612,-1.6412,-1.6342,-1.6193,-1.6009,-1.5877,-1.5744,-1.5674,-1.5363,-1.5185,-1.5043,-1.4828,-1.4832,-1.5035,-1.4791,-1.4641,-1.4505,-1.431,-1.4101,-1.3819,-1.3674,-1.3492,-1.3156,-1.3053,-1.3035,-1.2982,-1.3075,-1.3165,-1.342,-1.3581,-1.3789,-1.3908,-1.4062,-1.4088,-1.4088,-1.4166,-1.4243,-1.4398,-1.479,-1.5173,-1.5465,-1.5658,-1.5906,-1.6162,-1.6376,-1.6741,-1.713,-1.7492,-1.7788,-1.8204,-1.863,-1.9062,-1.9387,-1.962,-1.9724,-2.003,-2.0292,-2.0435,-2.0559,-2.0657,-2.0773,-2.0908,-2.0971,-2.0918,-2.0952,-2.0987,-2.0926,-2.0846,-2.0766,-2.0758,-2.0838,-2.0953,-2.0898,-2.069,-2.06,-2.0464,-2.0246,-1.9928,-1.9845,-2.1244,-2.1051,-2.1061,-2.0906,-2.0664,-2.0625,-2.0498,-2.0323,-2.0177,-2.0147,-2.0108,-1.9981,-1.9784,-1.9666,-1.9627,-1.9548,-1.9399,-1.939,-1.9329,-1.925,-1.925,-1.932,-1.9365,-1.9171,-1.9058,-1.904,-1.8647,-1.8408,-1.8233,-1.8093,-1.783,-1.7532,-1.7378,-1.7099,-1.6661,-1.6404,-1.6201,-1.592,-1.578,-1.563,-1.5426,-1.5319,-1.5141,-1.5034,-1.4792,-1.4649,-1.4433,-1.4181,-1.4217,-1.4425,-1.4389,-1.4173,-1.4,-1.3928,-1.3666,-1.3273,-1.3236,-1.3083,-1.2891,-1.285,-1.2934,-1.2988,-1.3081,-1.3353,-1.3581,-1.37,-1.3935,-1.4048,-1.4082,-1.4088,-1.4088,-1.4088,-1.4208,-1.4398,-1.4699,-1.5041,-1.5264,-1.5533,-1.5816,-1.6107,-1.6426,-1.6786,-1.7274,-1.7631,-1.7996,-1.837,-1.8803,-1.9138,-1.9462,-1.9662,-1.9808,-1.9982,-2.0073,-2.0121,-2.015,-2.0229,-2.0292,-2.0456,-2.0546,-2.0591,-2.0817,-2.0862,-2.0836,-2.0818,-2.0853,-2.0826,-2.069,-2.0555,-2.0374,-2.0155,-2.0073,-1.9982,-1.9754,-1.9433,-1.935,-2.1051,-2.0867,-2.0829,-2.0625,-2.0303,-2.0264,-2.0147,-1.9942,-1.9863,-1.9824,-1.9824,-1.9784,-1.9508,-1.9262,-1.9231,-1.9042,-1.8732,-1.8772,-1.8652,-1.8612,-1.8571,-1.8643,-1.8705,-1.8767,-1.8661,-1.8621,-1.8603,-1.8334,-1.8096,-1.7995,-1.7784,-1.7427,-1.7133,-1.6897,-1.6547,-1.6221,-1.5836,-1.5513,-1.5292,-1.5092,-1.488,-1.4784,-1.4685,-1.4425,-1.4245,-1.4036,-1.3783,-1.3564,-1.3637,-1.3956,-1.3992,-1.3775,-1.3455,-1.3455,-1.3273,-1.3001,-1.2956,-1.2873,-1.2702,-1.2866,-1.3018,-1.3044,-1.336,-1.362,-1.3706,-1.3921,-1.4055,-1.4082,-1.4088,-1.4088,-1.4088,-1.4088,-1.4166,-1.4377,-1.4594,-1.4888,-1.5091,-1.546,-1.5863,-1.6189,-1.6576,-1.7005,-1.7437,-1.7903,-1.8348,-1.8522,-1.8899,-1.91,-1.9302,-1.9467,-1.9571,-1.9671,-1.9716,-1.9671,-1.9662,-1.9671,-1.9716,-1.9799,-1.9891,-2.0027,-2.0428,-2.051,-2.06,-2.0555,-2.0382,-2.0201,-2.0065,-1.9936,-1.9845,-1.9754,-1.9662,-1.9579,-1.9442,-1.902,-1.8789,-2.0751,-2.042,-2.042,-2.0264,-2.002,-1.9981,-1.9942,-1.9863,-1.9548,-1.9429,-1.935,-1.9121,-1.8931,-1.8851,-1.8803,-1.8772,-1.8612,-1.8491,-1.8282,-1.7902,-1.7716,-1.7716,-1.7878,-1.8161,-1.8322,-1.8161,-1.7991,-1.7891,-1.7774,-1.7595,-1.7326,-1.6991,-1.6885,-1.6696,-1.6358,-1.6056,-1.5697,-1.5303,-1.5017,-1.4699,-1.4411,-1.4307,-1.4206,-1.3988,-1.3689,-1.3397,-1.3163,-1.3046,-1.3083,-1.3156,-1.3221,-1.3191,-1.3089,-1.3075,-1.2942,-1.2864,-1.2897,-1.2917,-1.2858,-1.301,-1.3246,-1.3394,-1.3507,-1.37,-1.3975,-1.4028,-1.4088,-1.4088,-1.4088,-1.4088,-1.4088,-1.4088,-1.4144,-1.4304,-1.4695,-1.5084,-1.524,-1.5583,-1.5976,-1.6251,-1.6539,-1.7014,-1.7691,-1.7829,-1.8265,-1.8661,-1.8894,-1.8996,-1.915,-1.9288,-1.9342,-1.9396,-1.9442,-1.9396,-1.9396,-1.9396,-1.9396,-1.9396,-1.9396,-1.9442,-1.9845,-2.0019,-2.0019,-1.9928,-1.9808,-1.9671,-1.9662,-1.9571,-1.9579,-1.9442,-1.925,-1.9112,-1.8881,-1.8504,-1.8226,-2.042,-2.0108,-2.0108,-1.999,-1.9754,-1.9666,-1.9548,-1.9429,-1.9161,-1.9002,-1.8962,-1.878,-1.8571,-1.8371,-1.8371,-1.829,-1.8089,-1.8,-1.7789,-1.7538,-1.7343,-1.718,-1.7066,-1.7343,-1.7497,-1.7627,-1.7627,-1.7497,-1.7416,-1.7286,-1.7106,-1.675,-1.6678,-1.6429,-1.6117,-1.5897,-1.5513,-1.5141,-1.4881,-1.4592,-1.4298,-1.4163,-1.4006,-1.3825,-1.3599,-1.3365,-1.3234,-1.3189,-1.3151,-1.3068,-1.3023,-1.2993,-1.2944,-1.2937,-1.2917,-1.2936,-1.3006,-1.3076,-1.3072,-1.3233,-1.3433,-1.3593,-1.372,-1.3915,-1.4048,-1.4088,-1.4088,-1.4088,-1.4088,-1.4088,-1.4088,-1.4088,-1.4128,-1.4381,-1.4811,-1.5208,-1.5472,-1.582,-1.625,-1.6484,-1.6825,-1.7206,-1.7584,-1.7888,-1.8155,-1.8588,-1.878,-1.892,-1.892,-1.9012,-1.9058,-1.9112,-1.9158,-1.9158,-1.9158,-1.9158,-1.9112,-1.9112,-1.9112,-1.9112,-1.9242,-1.9342,-1.9342,-1.9396,-1.9487,-1.9487,-1.9479,-1.9396,-1.9166,-1.8936,-1.8743,-1.855,-1.8311,-1.8032,-1.78,-2.0108,-1.9863,-1.9824,-1.9715,-1.9487,-1.928,-1.9112,-1.8962,-1.874,-1.8652,-1.858,-1.8571,-1.8241,-1.7991,-1.7919,-1.7684,-1.7392,-1.731,-1.7221,-1.7066,-1.6935,-1.6771,-1.6648,-1.6607,-1.6681,-1.7147,-1.7098,-1.7017,-1.6935,-1.6935,-1.6747,-1.6591,-1.6386,-1.6133,-1.5867,-1.5604,-1.5325,-1.492,-1.4719,-1.4496,-1.4268,-1.4105,-1.3903,-1.3662,-1.3537,-1.3413,-1.325,-1.3185,-1.3192,-1.3081,-1.3088,-1.3047,-1.303,-1.3031,-1.3054,-1.318,-1.322,-1.3267,-1.3327,-1.3487,-1.368,-1.3639,-1.3838,-1.3971,-1.3955,-1.3997,-1.3997,-1.4046,-1.4046,-1.4088,-1.4088,-1.4175,-1.4289,-1.4506,-1.4955,-1.5381,-1.5754,-1.6165,-1.657,-1.6823,-1.7032,-1.7316,-1.7642,-1.7918,-1.821,-1.8473,-1.8604,-1.8743,-1.8735,-1.8781,-1.8827,-1.892,-1.8974,-1.8936,-1.8889,-1.8889,-1.8835,-1.8789,-1.8743,-1.8743,-1.8735,-1.8735,-1.8827,-1.9212,-1.9304,-1.925,-1.9066,-1.8881,-1.8651,-1.8427,-1.8288,-1.8141,-1.7854,-1.7567,-1.738,-1.9824,-1.9636,-1.9469,-1.9271,-1.9082,-1.8891,-1.8772,-1.874,-1.8482,-1.8322,-1.8121,-1.7951,-1.7749,-1.7546,-1.7514,-1.7229,-1.6902,-1.682,-1.6656,-1.6458,-1.6327,-1.6245,-1.6203,-1.6079,-1.6072,-1.6072,-1.6196,-1.6286,-1.6294,-1.6252,-1.6203,-1.6121,-1.5906,-1.5707,-1.5602,-1.5355,-1.5022,-1.4695,-1.4484,-1.4238,-1.4003,-1.3875,-1.3684,-1.3413,-1.3267,-1.3087,-1.2849,-1.2743,-1.2644,-1.2598,-1.2644,-1.2787,-1.2978,-1.3107,-1.3174,-1.3253,-1.3393,-1.3445,-1.3491,-1.378,-1.3849,-1.3762,-1.3753,-1.3688,-1.3659,-1.3701,-1.3779,-1.387,-1.3962,-1.4088,-1.4095,-1.4282,-1.4449,-1.4673,-1.5198,-1.5763,-1.6064,-1.6479,-1.682,-1.696,-1.7198,-1.7377,-1.7584,-1.7822,-1.8009,-1.8195,-1.8373,-1.8512,-1.8512,-1.8604,-1.8735,-1.8781,-1.8827,-1.8705,-1.862,-1.8574,-1.852,-1.8411,-1.8365,-1.8365,-1.8319,-1.8218,-1.8411,-1.8789,-1.8843,-1.8751,-1.8558,-1.8411,-1.8272,-1.8094,-1.7908,-1.7721,-1.7434,-1.7145,-1.6918,-1.9478,-1.9289,-1.9082,-1.8922,-1.8812,-1.8491,-1.8322,-1.829,-1.8,-1.7829,-1.7708,-1.7587,-1.7432,-1.727,-1.7066,-1.6779,-1.65,-1.6417,-1.6294,-1.6087,-1.5873,-1.5741,-1.5707,-1.5541,-1.5325,-1.5235,-1.5325,-1.5499,-1.5597,-1.559,-1.5541,-1.5374,-1.5242,-1.5193,-1.5151,-1.497,-1.4747,-1.4475,-1.4255,-1.4035,-1.377,-1.3668,-1.3477,-1.332,-1.319,-1.3121,-1.2997,-1.2956,-1.2997,-1.3004,-1.2997,-1.3067,-1.3147,-1.3246,-1.332,-1.3298,-1.3396,-1.3487,-1.3493,-1.3678,-1.3633,-1.3555,-1.3525,-1.3525,-1.344,-1.3525,-1.3568,-1.3701,-1.3792,-1.4021,-1.4259,-1.4419,-1.4649,-1.4995,-1.5486,-1.5913,-1.635,-1.6739,-1.6922,-1.7053,-1.7208,-1.7343,-1.7412,-1.7628,-1.7768,-1.7955,-1.8133,-1.8234,-1.8288,-1.8419,-1.8504,-1.8504,-1.8504,-1.8458,-1.8334,-1.8288,-1.8195,-1.8048,-1.7947,-1.7947,-1.7947,-1.7893,-1.8087,-1.8365,-1.8326,-1.8141,-1.8187,-1.8087,-1.79,-1.7714,-1.7488,-1.7254,-1.7012,-1.6723,-1.6541,-1.9082,-1.8922,-1.8652,-1.8571,-1.8491,-1.808,-1.7878,-1.7797,-1.7554,-1.7351,-1.727,-1.727,-1.7106,-1.6894,-1.6656,-1.6376,-1.5997,-1.5955,-1.5873,-1.5665,-1.5443,-1.5269,-1.5144,-1.4936,-1.4734,-1.4734,-1.4664,-1.4748,-1.5041,-1.5082,-1.4866,-1.4776,-1.465,-1.4524,-1.4482,-1.4405,-1.4356,-1.4195,-1.4033,-1.3828,-1.3652,-1.3476,-1.3355,-1.3355,-1.3349,-1.3275,-1.3153,-1.311,-1.311,-1.3117,-1.3178,-1.3197,-1.3258,-1.3264,-1.3264,-1.3264,-1.3349,-1.3398,-1.3392,-1.3428,-1.344,-1.3349,-1.3349,-1.3307,-1.327,-1.3277,-1.3423,-1.3632,-1.3756,-1.3972,-1.4381,-1.4588,-1.4879,-1.5263,-1.5616,-1.5944,-1.6329,-1.6629,-1.6864,-1.7016,-1.72,-1.7293,-1.734,-1.7426,-1.7574,-1.7675,-1.7854,-1.7955,-1.8048,-1.8141,-1.8226,-1.8179,-1.8179,-1.8133,-1.804,-1.8001,-1.7861,-1.7682,-1.7581,-1.7574,-1.7621,-1.7613,-1.7761,-1.7761,-1.7667,-1.7527,-1.7667,-1.7667,-1.7387,-1.7153,-1.7019,-1.6784,-1.6494,-1.6298,-1.6116,-1.874,-1.87,-1.829,-1.808,-1.804,-1.7627,-1.7473,-1.7473,-1.7392,-1.7147,-1.6779,-1.6779,-1.6574,-1.6286,-1.6203,-1.5906,-1.5609,-1.5484,-1.5318,-1.5068,-1.4866,-1.4776,-1.4776,-1.4776,-1.4482,-1.4356,-1.4201,-1.4412,-1.4573,-1.4657,-1.4615,-1.4398,-1.4195,-1.4082,-1.3942,-1.3815,-1.3519,-1.3519,-1.3483,-1.344,-1.3355,-1.3349,-1.3228,-1.3137,-1.3052,-1.2966,-1.2796,-1.2796,-1.279,-1.279,-1.279,-1.279,-1.279,-1.279,-1.279,-1.2918,-1.3137,-1.3398,-1.3355,-1.3313,-1.3264,-1.3137,-1.3137,-1.3009,-1.301,-1.312,-1.3366,-1.3754,-1.376,-1.4026,-1.4468,-1.4747,-1.5068,-1.5352,-1.5611,-1.59,-1.6218,-1.6407,-1.6643,-1.6831,-1.7012,-1.7099,-1.7192,-1.7286,-1.7372,-1.7426,-1.7527,-1.7675,-1.7768,-1.7807,-1.7854,-1.7807,-1.7714,-1.7613,-1.7567,-1.7574,-1.7481,-1.7261,-1.7254,-1.72,-1.72,-1.7145,-1.6965,-1.6965,-1.6918,-1.6958,-1.7052,-1.7005,-1.6777,-1.6683,-1.6588,-1.6305,-1.5974,-1.5784,-1.5689,-1.8089,-1.829,-1.7991,-1.7749,-1.7635,-1.7343,-1.7139,-1.7017,-1.6894,-1.6656,-1.6417,-1.6327,-1.6121,-1.5782,-1.5699,-1.5443,-1.5068,-1.4992,-1.4901,-1.4671,-1.451,-1.4377,-1.4286,-1.411,-1.3899,-1.3899,-1.3773,-1.3737,-1.3942,-1.3984,-1.3899,-1.3857,-1.373,-1.3652,-1.3483,-1.3434,-1.3264,-1.3009,-1.2759,-1.2631,-1.2637,-1.2637,-1.2595,-1.2509,-1.2509,-1.2423,-1.2375,-1.2289,-1.2289,-1.2332,-1.2412,-1.2534,-1.2577,-1.2619,-1.2705,-1.2705,-1.2875,-1.296,-1.2966,-1.3003,-1.296,-1.2924,-1.2894,-1.29,-1.2923,-1.3045,-1.3317,-1.3805,-1.3836,-1.4103,-1.4448,-1.4667,-1.5006,-1.533,-1.5549,-1.5778,-1.6028,-1.6177,-1.6366,-1.6595,-1.6784,-1.6871,-1.7005,-1.7145,-1.7185,-1.7239,-1.734,-1.7387,-1.7394,-1.7394,-1.7394,-1.7387,-1.7246,-1.7099,-1.7005,-1.7012,-1.7005,-1.6871,-1.6871,-1.6824,-1.673,-1.6636,-1.6447,-1.6353,-1.64,-1.644,-1.6487,-1.6487,-1.6447,-1.6298,-1.6157,-1.5832,-1.5547,-1.541,-1.522,-1.7514,-1.7668,-1.7587,-1.7424,-1.7188,-1.7017,-1.6771,-1.6533,-1.6402,-1.6196,-1.5997,-1.588,-1.5582,-1.5318,-1.52,-1.5076,-1.4782,-1.4684,-1.4661,-1.4554,-1.4264,-1.4074,-1.3926,-1.3645,-1.344,-1.3404,-1.3398,-1.3355,-1.3222,-1.3222,-1.3173,-1.3222,-1.3222,-1.3143,-1.3058,-1.293,-1.2802,-1.2546,-1.2252,-1.2086,-1.2086,-1.2043,-1.2043,-1.2043,-1.2,-1.2,-1.2,-1.1995,-1.2,-1.208,-1.2203,-1.2289,-1.2332,-1.2375,-1.2454,-1.2454,-1.2497,-1.254,-1.2583,-1.2625,-1.2662,-1.2723,-1.2819,-1.2952,-1.3175,-1.323,-1.3377,-1.3865,-1.389,-1.4124,-1.4496,-1.4637,-1.4907,-1.5158,-1.5391,-1.5642,-1.5838,-1.5886,-1.6028,-1.6218,-1.64,-1.6588,-1.6723,-1.6958,-1.7052,-1.7099,-1.7145,-1.7145,-1.7106,-1.7019,-1.6972,-1.6965,-1.6918,-1.677,-1.6723,-1.6629,-1.6534,-1.644,-1.6393,-1.6305,-1.6163,-1.6069,-1.5974,-1.5927,-1.5879,-1.5832,-1.5832,-1.5974,-1.6109,-1.5832,-1.5594,-1.541,-1.5172,-1.5035,-1.4796,-1.7147,-1.6812,-1.7057,-1.6976,-1.6738,-1.6517,-1.6319,-1.6208,-1.6151,-1.6001,-1.5713,-1.5369,-1.5126,-1.4881,-1.4867,-1.4851,-1.485,-1.4619,-1.4566,-1.4405,-1.4152,-1.3892,-1.3729,-1.3565,-1.3382,-1.334,-1.3218,-1.2979,-1.2772,-1.2709,-1.2661,-1.2705,-1.2723,-1.2466,-1.2338,-1.2295,-1.2252,-1.208,-1.1952,-1.1914,-1.1914,-1.1914,-1.1914,-1.1957,-1.1957,-1.2,-1.2,-1.1914,-1.1914,-1.1914,-1.1995,-1.2037,-1.208,-1.2169,-1.2224,-1.223,-1.2282,-1.2287,-1.2337,-1.25,-1.2655,-1.2789,-1.2903,-1.3067,-1.3318,-1.3444,-1.3622,-1.3787,-1.3788,-1.4037,-1.4397,-1.4711,-1.4734,-1.4895,-1.5077,-1.5267,-1.541,-1.5499,-1.5642,-1.5832,-1.6021,-1.6116,-1.6163,-1.6305,-1.6723,-1.6777,-1.6871,-1.6871,-1.6777,-1.6737,-1.6636,-1.6636,-1.6588,-1.6534,-1.6534,-1.64,-1.6116,-1.5927,-1.5879,-1.5648,-1.5417,-1.5363,-1.5547,-1.541,-1.541,-1.5274,-1.5131,-1.522,-1.5267,-1.522,-1.5083,-1.4981,-1.479,-1.4598,-1.4364,-1.6615,-1.6327,-1.6451,-1.6417,-1.6327,-1.6245,-1.6194,-1.6159,-1.602,-1.584,-1.5626,-1.5438,-1.5177,-1.4902,-1.4784,-1.4669,-1.4486,-1.4359,-1.4353,-1.427,-1.4033,-1.3861,-1.3703,-1.3438,-1.3206,-1.3175,-1.296,-1.2839,-1.2711,-1.2461,-1.231,-1.2313,-1.2313,-1.2221,-1.2,-1.1888,-1.1845,-1.1753,-1.1661,-1.1575,-1.1564,-1.1564,-1.1564,-1.157,-1.157,-1.157,-1.1564,-1.1564,-1.1564,-1.1624,-1.1764,-1.1824,-1.1901,-1.2072,-1.2173,-1.2245,-1.228,-1.2348,-1.2331,-1.2489,-1.2543,-1.27,-1.2822,-1.3012,-1.3303,-1.3281,-1.3426,-1.3531,-1.3666,-1.3867,-1.3878,-1.4112,-1.4304,-1.455,-1.4742,-1.4844,-1.4981,-1.5124,-1.5261,-1.5452,-1.5458,-1.5506,-1.5553,-1.5648,-1.6076,-1.6494,-1.6541,-1.6541,-1.6447,-1.6305,-1.6211,-1.6116,-1.6116,-1.5927,-1.5927,-1.5791,-1.5648,-1.5506,-1.5356,-1.5172,-1.4939,-1.5131,-1.522,-1.5083,-1.4892,-1.4838,-1.4694,-1.4508,-1.4508,-1.47,-1.4742,-1.4646,-1.4448,-1.416,-1.3925,-1.6154,-1.5997,-1.5914,-1.5914,-1.5971,-1.6027,-1.6032,-1.597,-1.5879,-1.563,-1.5383,-1.539,-1.5129,-1.4822,-1.4681,-1.4611,-1.4339,-1.4234,-1.4199,-1.4074,-1.3884,-1.3692,-1.3513,-1.3259,-1.2971,-1.2911,-1.282,-1.27,-1.2575,-1.2451,-1.231,-1.2154,-1.1999,-1.1986,-1.1759,-1.1777,-1.1668,-1.163,-1.1619,-1.1553,-1.1569,-1.158,-1.1585,-1.1596,-1.1651,-1.1651,-1.1662,-1.1667,-1.1656,-1.1701,-1.1778,-1.185,-1.1938,-1.2093,-1.2282,-1.2355,-1.2434,-1.2506,-1.2501,-1.2575,-1.2592,-1.2814,-1.2865,-1.302,-1.3133,-1.3212,-1.341,-1.3471,-1.3528,-1.3497,-1.3497,-1.3732,-1.3829,-1.4064,-1.4166,-1.4262,-1.4502,-1.4694,-1.4838,-1.4981,-1.5029,-1.5178,-1.5226,-1.5322,-1.5458,-1.5791,-1.5838,-1.5886,-1.5886,-1.5791,-1.5737,-1.5648,-1.5553,-1.5369,-1.5178,-1.5226,-1.5267,-1.507,-1.4927,-1.4783,-1.4694,-1.479,-1.4694,-1.4358,-1.4262,-1.4352,-1.4214,-1.4027,-1.4172,-1.4358,-1.431,-1.4214,-1.4064,-1.3829,-1.363,-1.5955,-1.5699,-1.5484,-1.5526,-1.5725,-1.5845,-1.5784,-1.5684,-1.5618,-1.5401,-1.5044,-1.4992,-1.4766,-1.4417,-1.4383,-1.4347,-1.43,-1.4052,-1.399,-1.3992,-1.3596,-1.3292,-1.3123,-1.2985,-1.2888,-1.2717,-1.2682,-1.2634,-1.2476,-1.2431,-1.2277,-1.2159,-1.2031,-1.1863,-1.1424,-1.1585,-1.1682,-1.172,-1.1898,-1.189,-1.1895,-1.1834,-1.1828,-1.1823,-1.1868,-1.1847,-1.1842,-1.1892,-1.1881,-1.1937,-1.1948,-1.1999,-1.2071,-1.2086,-1.218,-1.2197,-1.2224,-1.2194,-1.2208,-1.2506,-1.2738,-1.2913,-1.2911,-1.3053,-1.3346,-1.3414,-1.3338,-1.3298,-1.3394,-1.3443,-1.3491,-1.3491,-1.3534,-1.3582,-1.3678,-1.3829,-1.407,-1.4214,-1.4358,-1.44,-1.479,-1.5035,-1.5035,-1.5035,-1.4981,-1.5077,-1.5131,-1.5178,-1.5315,-1.5315,-1.5315,-1.5118,-1.5022,-1.4838,-1.47,-1.4892,-1.4885,-1.4694,-1.4496,-1.431,-1.4118,-1.407,-1.3877,-1.3678,-1.3732,-1.3925,-1.3732,-1.3545,-1.3636,-1.3684,-1.3732,-1.3636,-1.3539,-1.3491,-1.334,-1.5401,-1.5026,-1.4943,-1.5106,-1.534,-1.5419,-1.5595,-1.5826,-1.5752,-1.5485,-1.5118,-1.5031,-1.4891,-1.4556,-1.4296,-1.4204,-1.4052,-1.3844,-1.3746,-1.3698,-1.3419,-1.3425,-1.3261,-1.3051,-1.2959,-1.2945,-1.285,-1.2716,-1.2681,-1.2512,-1.239,-1.2274,-1.2028,-1.1882,-1.1775,-1.1818,-1.1703,-1.1663,-1.1639,-1.1579,-1.1589,-1.16,-1.161,-1.1661,-1.1805,-1.1861,-1.1913,-1.2021,-1.2108,-1.2108,-1.2159,-1.2148,-1.2175,-1.2229,-1.2285,-1.2334,-1.2388,-1.2575,-1.257,-1.2723,-1.2788,-1.2848,-1.2912,-1.294,-1.3044,-1.3055,-1.3055,-1.305,-1.3104,-1.3104,-1.3007,-1.3147,-1.3244,-1.3292,-1.3389,-1.3539,-1.3732,-1.3727,-1.3775,-1.3823,-1.4022,-1.4118,-1.4166,-1.4358,-1.4406,-1.4502,-1.4598,-1.4838,-1.5029,-1.5077,-1.5077,-1.4729,-1.449,-1.4304,-1.4214,-1.4358,-1.431,-1.407,-1.3925,-1.3781,-1.3588,-1.3394,-1.3443,-1.334,-1.3443,-1.3497,-1.3298,-1.3104,-1.2958,-1.2958,-1.3104,-1.3201,-1.3152,-1.3098,-1.305,-1.4985,-1.4692,-1.4538,-1.473,-1.5067,-1.5196,-1.549,-1.5783,-1.5651,-1.5315,-1.5016,-1.4879,-1.4627,-1.4388,-1.4166,-1.3968,-1.3738,-1.3491,-1.3389,-1.3346,-1.3244,-1.3178,-1.3136,-1.3098,-1.2941,-1.2958,-1.291,-1.2791,-1.2759,-1.2645,-1.2496,-1.23,-1.2042,-1.1963,-1.1906,-1.1828,-1.1662,-1.1646,-1.1661,-1.1633,-1.1628,-1.1618,-1.1608,-1.166,-1.1759,-1.1796,-1.188,-1.201,-1.2192,-1.2233,-1.228,-1.2285,-1.2344,-1.242,-1.2533,-1.2597,-1.2646,-1.2748,-1.2684,-1.263,-1.2614,-1.2484,-1.2662,-1.2807,-1.2807,-1.2861,-1.2861,-1.2807,-1.2759,-1.2764,-1.2813,-1.2953,-1.2953,-1.3001,-1.305,-1.3195,-1.334,-1.334,-1.3389,-1.3389,-1.3394,-1.3443,-1.3394,-1.3545,-1.3732,-1.3877,-1.407,-1.4358,-1.4598,-1.4598,-1.4544,-1.425,-1.401,-1.3871,-1.3732,-1.3732,-1.3636,-1.3394,-1.3298,-1.3249,-1.3007,-1.2807,-1.2953,-1.3001,-1.2856,-1.2759,-1.2813,-1.2716,-1.2467,-1.2467,-1.2613,-1.2662,-1.271,-1.271,-1.2613,-1.4699,-1.4615,-1.425,-1.4372,-1.4852,-1.5073,-1.5324,-1.5425,-1.5213,-1.4933,-1.464,-1.4352,-1.416,-1.3877,-1.3642,-1.3539,-1.3443,-1.3201,-1.3147,-1.305,-1.3001,-1.291,-1.2861,-1.2856,-1.2861,-1.2807,-1.2764,-1.2764,-1.2759,-1.2565,-1.2463,-1.2339,-1.2029,-1.1907,-1.1862,-1.1695,-1.1567,-1.1602,-1.1672,-1.1679,-1.1636,-1.1783,-1.1709,-1.1704,-1.1806,-1.1859,-1.1961,-1.2116,-1.2281,-1.2394,-1.256,-1.2624,-1.2694,-1.2754,-1.2759,-1.2759,-1.2705,-1.2559,-1.2419,-1.237,-1.2322,-1.2224,-1.2467,-1.2662,-1.271,-1.2613,-1.2565,-1.2619,-1.2619,-1.2667,-1.2716,-1.271,-1.271,-1.271,-1.271,-1.2807,-1.2953,-1.3001,-1.3098,-1.3147,-1.3201,-1.3201,-1.3152,-1.3201,-1.3055,-1.3152,-1.3292,-1.334,-1.3534,-1.3775,-1.3727,-1.363,-1.3485,-1.3437,-1.3298,-1.3152,-1.3055,-1.2861,-1.2813,-1.271,-1.2467,-1.2322,-1.2419,-1.2419,-1.2127,-1.2078,-1.2127,-1.2078,-1.1932,-1.198,-1.1927,-1.217,-1.2219,-1.2175,-1.2127,-1.4159,-1.3984,-1.3695,-1.3933,-1.4372,-1.4558,-1.4741,-1.4867,-1.464,-1.44,-1.4124,-1.3829,-1.3727,-1.3588,-1.3346,-1.3249,-1.3152,-1.3007,-1.291,-1.2861,-1.2807,-1.2807,-1.2759,-1.2764,-1.2759,-1.2764,-1.2716,-1.2667,-1.2467,-1.237,-1.2224,-1.2068,-1.1834,-1.1731,-1.1609,-1.1473,-1.1492,-1.1487,-1.1551,-1.1521,-1.1487,-1.1487,-1.1487,-1.1536,-1.1634,-1.1688,-1.1785,-1.198,-1.2078,-1.2175,-1.2175,-1.2224,-1.2224,-1.2224,-1.2219,-1.2224,-1.2219,-1.217,-1.2127,-1.2127,-1.2078,-1.1975,-1.2122,-1.2175,-1.2224,-1.2273,-1.2273,-1.2322,-1.2327,-1.237,-1.237,-1.237,-1.237,-1.237,-1.237,-1.2419,-1.2516,-1.2565,-1.2613,-1.2662,-1.2716,-1.271,-1.2662,-1.2565,-1.2419,-1.2419,-1.2467,-1.2467,-1.2613,-1.2905,-1.305,-1.3001,-1.2905,-1.2856,-1.2613,-1.237,-1.237,-1.2322,-1.2224,-1.2175,-1.2029,-1.1932,-1.198,-1.1834,-1.1634,-1.1536,-1.1487,-1.1389,-1.1345,-1.11,-1.1096,-1.1438,-1.1683,-1.1634,-1.1536,-1.3743,-1.3568,-1.3355,-1.3455,-1.3752,-1.386,-1.4005,-1.419,-1.4058,-1.3877,-1.3738,-1.3491,-1.334,-1.3298,-1.3098,-1.3001,-1.2958,-1.2861,-1.2764,-1.2619,-1.2667,-1.2516,-1.2521,-1.2516,-1.2419,-1.2473,-1.2467,-1.237,-1.2219,-1.2029,-1.1834,-1.1829,-1.1585,-1.1487,-1.138,-1.1331,-1.1336,-1.1331,-1.1336,-1.1243,-1.1194,-1.1194,-1.1194,-1.1243,-1.1389,-1.1438,-1.1492,-1.1736,-1.1834,-1.1883,-1.1883,-1.198,-1.2029,-1.2029,-1.2024,-1.2029,-1.2029,-1.1975,-1.1878,-1.1829,-1.178,-1.1736,-1.1683,-1.1688,-1.1785,-1.1883,-1.198,-1.2078,-1.2029,-1.2029,-1.2029,-1.198,-1.2029,-1.2029,-1.2029,-1.2029,-1.2029,-1.2029,-1.2029,-1.2029,-1.2078,-1.2078,-1.2029,-1.1883,-1.1834,-1.1883,-1.1829,-1.178,-1.1975,-1.2268,-1.2419,-1.2467,-1.237,-1.2273,-1.198,-1.1785,-1.1785,-1.1736,-1.1541,-1.1492,-1.1492,-1.134,-1.1198,-1.1145,-1.1145,-1.0998,-1.0801,-1.0806,-1.0708,-1.0511,-1.0408,-1.0703,-1.0949,-1.0953,-1.09,-1.3349,-1.3313,-1.3125,-1.3049,-1.3104,-1.3159,-1.3311,-1.348,-1.3485,-1.3443,-1.3394,-1.3195,-1.3098,-1.305,-1.2856,-1.2759,-1.2716,-1.2662,-1.2516,-1.237,-1.237,-1.2273,-1.2127,-1.2029,-1.2127,-1.2078,-1.2029,-1.2122,-1.1927,-1.1736,-1.159,-1.1585,-1.134,-1.1243,-1.1243,-1.1243,-1.1243,-1.1243,-1.1243,-1.1194,-1.1194,-1.1194,-1.1194,-1.1194,-1.1243,-1.1243,-1.1296,-1.1394,-1.1585,-1.1639,-1.1736,-1.1883,-1.1883,-1.1834,-1.1883,-1.1883,-1.1834,-1.1736,-1.1634,-1.1585,-1.1438,-1.134,-1.1194,-1.1194,-1.1345,-1.159,-1.1688,-1.1736,-1.1736,-1.1731,-1.1683,-1.1634,-1.1585,-1.1541,-1.1492,-1.1492,-1.1443,-1.1443,-1.1443,-1.1443,-1.1443,-1.1443,-1.1443,-1.1296,-1.1247,-1.134,-1.1292,-1.1145,-1.1243,-1.1536,-1.1683,-1.1785,-1.1688,-1.159,-1.1536,-1.134,-1.1296,-1.1149,-1.0953,-1.0806,-1.0757,-1.056,-1.0364,-1.0314,-1.0359,-1.0261,-1.0162,-1.0068,-1.0015,-1.0015,-0.9961,-1.0015,-1.0113,-1.0162,-1.0216,-1.2875,-1.2857,-1.263,-1.2678,-1.2888,-1.2867,-1.302,-1.319,-1.3007,-1.3055,-1.3152,-1.2953,-1.2856,-1.2807,-1.2565,-1.2516,-1.2467,-1.237,-1.2175,-1.2127,-1.2078,-1.2029,-1.198,-1.1883,-1.1932,-1.198,-1.198,-1.1829,-1.1683,-1.1438,-1.1292,-1.1292,-1.1194,-1.1194,-1.1194,-1.1194,-1.1145,-1.1145,-1.1096,-1.1096,-1.11,-1.1194,-1.1194,-1.1194,-1.1194,-1.1194,-1.1243,-1.1243,-1.1292,-1.134,-1.134,-1.1389,-1.1389,-1.1389,-1.1389,-1.1394,-1.1443,-1.1389,-1.1292,-1.1243,-1.1194,-1.1145,-1.1047,-1.0949,-1.0998,-1.1247,-1.1394,-1.1389,-1.1389,-1.1389,-1.134,-1.1243,-1.1145,-1.1051,-1.1002,-1.0953,-1.0855,-1.0855,-1.0855,-1.0855,-1.0806,-1.0806,-1.0806,-1.0757,-1.0708,-1.0659,-1.0659,-1.0609,-1.0507,-1.0703,-1.0748,-1.085,-1.0855,-1.0757,-1.085,-1.0752,-1.0659,-1.056,-1.0413,-1.0265,-1.0117,-0.992,-0.9772,-0.9579,-0.948,-0.9525,-0.9472,-0.9221,-0.9171,-0.9369,-0.9418,-0.9418,-0.927,-0.927,-0.9324,-1.2497,-1.2344,-1.2186,-1.2327,-1.2586,-1.2524,-1.2583,-1.277,-1.2662,-1.2613,-1.2613,-1.2613,-1.257,-1.2467,-1.2273,-1.2224,-1.2224,-1.2073,-1.1932,-1.1883,-1.178,-1.1736,-1.1688,-1.1683,-1.159,-1.1639,-1.1639,-1.1541,-1.1438,-1.134,-1.1194,-1.1194,-1.1194,-1.1194,-1.1194,-1.1096,-1.0998,-1.1002,-1.0949,-1.09,-1.0953,-1.1047,-1.1194,-1.1194,-1.1194,-1.1194,-1.1194,-1.1194,-1.1194,-1.1194,-1.1243,-1.1243,-1.1243,-1.1243,-1.1145,-1.1096,-1.1047,-1.0998,-1.0904,-1.0855,-1.09,-1.0806,-1.0752,-1.0605,-1.0609,-1.0855,-1.085,-1.085,-1.085,-1.085,-1.085,-1.0752,-1.0757,-1.0708,-1.0659,-1.0609,-1.0609,-1.0609,-1.0511,-1.0364,-1.0314,-1.0265,-1.0167,-0.9924,-0.9875,-0.9821,-0.9826,-0.9768,-0.9768,-0.9916,-0.9961,-0.9961,-1.0015,-1.0167,-1.0314,-1.0167,-0.9875,-0.9826,-0.9871,-0.962,-0.9373,-0.9324,-0.9175,-0.8981,-0.8931,-0.9031,-0.8878,-0.8627,-0.8726,-0.9023,-0.8924,-0.8821,-0.8627,-0.8428,-0.8478,-1.216,-1.1914,-1.1705,-1.1888,-1.2239,-1.2145,-1.2182,-1.2323,-1.2322,-1.2175,-1.2024,-1.2224,-1.2127,-1.2078,-1.1932,-1.198,-1.1932,-1.178,-1.1683,-1.1585,-1.1541,-1.1492,-1.134,-1.1243,-1.1296,-1.1296,-1.1292,-1.1292,-1.1243,-1.1145,-1.1096,-1.1149,-1.11,-1.1096,-1.1047,-1.09,-1.0752,-1.0703,-1.0605,-1.0462,-1.0609,-1.0801,-1.0949,-1.1047,-1.1096,-1.1096,-1.1096,-1.1096,-1.1096,-1.1047,-1.0998,-1.0998,-1.0998,-1.0949,-1.09,-1.0801,-1.0752,-1.0654,-1.0511,-1.0511,-1.0511,-1.0413,-1.0364,-1.0314,-1.0314,-1.0216,-1.0212,-1.0212,-1.0212,-1.0408,-1.0408,-1.0261,-1.0265,-1.0216,-1.0216,-1.0167,-1.0167,-1.0167,-1.0019,-0.9821,-0.9772,-0.9673,-0.9525,-0.9232,-0.9133,-0.9084,-0.8985,-0.8878,-0.8874,-0.9171,-0.932,-0.932,-0.9274,-0.9476,-0.9723,-0.9575,-0.9229,-0.9278,-0.9274,-0.8973,-0.8676,-0.863,-0.8531,-0.8478,-0.8428,-0.8379,-0.8379,-0.823,-0.8428,-0.8528,-0.8329,-0.8077,-0.8031,-0.7832,-0.7683,-1.1693,-1.144,-1.1397,-1.1535,-1.1822,-1.1768,-1.1895,-1.2032,-1.2078,-1.1932,-1.1731,-1.1731,-1.1829,-1.198,-1.1736,-1.1683,-1.1634,-1.1487,-1.1389,-1.1292,-1.1243,-1.1194,-1.1145,-1.1047,-1.1145,-1.1145,-1.1096,-1.1198,-1.1047,-1.0904,-1.0855,-1.0904,-1.0659,-1.0609,-1.056,-1.0462,-1.0462,-1.0413,-1.0364,-1.0216,-1.0265,-1.0408,-1.0507,-1.056,-1.056,-1.056,-1.0556,-1.056,-1.0556,-1.0556,-1.0609,-1.0609,-1.0609,-1.0654,-1.0556,-1.0462,-1.0413,-1.0314,-1.0216,-1.0162,-1.0113,-1.0113,-0.9965,-0.9772,-0.9624,-0.9422,-0.9418,-0.9468,-0.9616,-1.0113,-1.0167,-0.9821,-0.9723,-0.9624,-0.9571,-0.9373,-0.927,-0.927,-0.9225,-0.9126,-0.9076,-0.9027,-0.8928,-0.8783,-0.873,-0.868,-0.868,-0.8577,-0.8528,-0.8627,-0.8676,-0.863,-0.8581,-0.873,-0.8928,-0.8924,-0.873,-0.8779,-0.873,-0.8428,-0.8134,-0.7942,-0.7842,-0.7882,-0.7733,-0.7584,-0.7633,-0.7829,-0.7733,-0.7733,-0.7534,-0.7385,-0.7388,-0.7394,-0.7253]},{"header":{"parameterUnit":"m.s-1","parameterCategory":1,"la1":31.0,"la2":29.5877,"lo1":-88.7671,"lo2":-86.6584,"dy":0.0162,"dx":0.0185,"nx":115,"ny":88,"refTime":"2024-06-09T12:00:00:Z","depth":0,"parameterNumber":3,"parameterNumberName":"V-component_of_WINDS"},"data":[0.0,0.0,0.0,0.0,0.0,0.0,0.0,0.0,0.0,0.0,0.0,0.0,0.0,0.0,0.0,0.0,0.0,0.0,0.0,0.0,0.0,0.0,0.0,0.0,0.0,0.0,0.0,0.0,0.0,0.0,0.0,0.0,0.0,0.0,0.0,0.0,0.0,0.0,0.0,0.0,0.0,0.0,0.0,0.0,0.0,0.0,0.0,0.0,0.0,0.0,0.0,0.0,0.0,0.0,0.0,0.0,0.0,0.0,0.0,0.0,0.0,0.0,0.0,0.0,0.0,0.0,0.0,0.0,0.0,0.0,0.0,0.0,0.0,0.0,0.0,0.0,0.0,0.0,0.0,0.0,0.0,0.0,0.0,0.0,0.0,0.0,0.0,0.0,0.0,0.0,0.0,0.0,0.0,0.0,0.0,0.0,0.0,0.0,0.0,0.0,0.0,0.0,0.0,0.0,0.0,0.0,0.0,0.0,0.0,0.0,0.0,0.0,0.0,0.0,0.0,0.0,0.0,0.0,0.0,0.0,0.0,0.0,0.0,0.0,0.0,0.0,0.0,0.0,0.0,0.0,0.0,0.0,0.0,0.0,0.0,0.0,0.0,0.0,0.0,0.0,0.0,0.0,0.0,0.0,0.0,0.0,0.0,0.0,0.0,0.0,0.0,0.0,0.0,0.0,0.0,0.0,0.0,0.0,0.0,0.0,0.0,0.0,0.0,0.0,0.0,0.0,0.0,0.0,0.0,0.0,0.0,0.0,0.0,0.0,0.0,0.0,0.0,0.0,0.0,0.0,0.0,0.0,0.0,0.0,0.0,0.0,0.0,0.0,0.0,0.0,0.0,0.0,0.0,0.0,0.0,0.0,0.0,0.0,0.0,0.0,0.0,0.0,0.0,0.0,0.0,0.0,0.0,0.0,0.0,0.0,0.0,0.0,0.0,0.0,0.0,0.0,0.0,0.0,0.0,0.0,0.0,0.0,0.0,0.0,0.0,0.0,0.0,0.0,0.0,0.0,0.0,0.0,0.0,0.0,0.0,0.0,0.0,0.0,0.0,0.0,0.0,0.0,0.0,0.0,0.0,0.0,0.0,0.0,0.0,0.0,0.0,0.0,0.0,0.0,0.0,0.0,0.0,0.0,0.0,0.0,0.0,0.0,0.0,0.0,0.0,0.0,0.0,0.0,0.0,0.0,0.0,0.0,0.0,0.0,0.0,0.0,0.0,0.0,0.0,0.0,0.0,0.0,0.0,0.0,0.0,0.0,0.0,0.0,0.0,0.0,0.0,0.0,0.0,0.0,0.0,0.0,0.0,0.0,0.0,0.0,0.0,0.0,0.0,0.0,0.0,0.0,0.0,0.0,0.0,0.0,0.0,0.0,0.0,0.0,0.0,0.0,0.0,0.0,0.0,0.0,0.0,0.0,0.0,0.0,0.0,0.0,0.0,0.0,0.0,0.0,0.0,0.0,0.0,0.0,0.0,0.0,0.0,0.0,0.0,0.0,0.0,0.0,0.0,0.0,0.0,0.0,0.0,0.0,0.0,0.0,0.0,0.0,0.0,0.0,0.0,0.0,0.0,0.0,0.0,0.0,0.0,0.0,0.0,0.0,0.0,0.0,0.0,0.0,0.0,0.0,0.0,0.0,0.0,0.0,0.0,0.0,0.0,0.0,0.0,0.0,0.0,0.0,0.0,0.0,0.0,0.0,0.0,0.0,0.0,0.0,0.0,0.0,0.0,0.0,0.0,0.0,0.0,0.0,0.0,0.0,0.0,0.0,0.0,0.0,0.0,0.0,0.0,0.0,0.0,0.0,0.0,0.0,0.0,0.0,0.0,0.0,0.0,0.0,0.0,0.0,0.0,0.0,0.0,0.0,0.0,0.0,0.0,0.0,0.0,0.0,0.0,0.0,0.0,0.0,0.0,0.0,0.0,0.0,0.0,0.0,0.0,0.0,0.0,0.0,0.0,0.0,0.0,0.0,0.0,0.0,0.0,0.0,0.0,0.0,0.0,0.0,0.0,0.0,0.0,0.0,0.0,0.0,0.0,0.0,0.0,0.0,0.0,0.0,0.0,0.0,0.0,0.0,0.0,0.0,0.0,0.0,0.0,0.0,0.0,0.0,0.0,0.0,0.0,0.0,0.0,0.0,0.0,0.0,0.0,0.0,0.0,0.0,0.0,0.0,0.0,0.0,0.0,0.0,0.0,0.0,0.0,0.0,0.0,0.0,0.0,0.0,0.0,0.0,0.0,0.0,0.0,0.0,0.0,0.0,0.0,0.0,0.0,0.0,0.0,0.0,0.0,0.0,0.0,0.0,0.0,0.0,0.0,0.0,0.0,0.0,0.0,0.0,0.0,0.0,0.0,0.0,0.0,0.0,0.0,0.0,0.0,0.0,0.0,0.0,0.0,0.0,0.0,0.0,0.0,0.0,0.0,0.0,0.0,0.0,0.0,0.0,0.0,0.0,0.0,0.0,0.0,0.0,0.0,0.0,0.0,0.0,0.0,0.0,0.0,0.0,0.0,0.0,0.0,0.0,0.0,0.0,0.0,0.0,0.0,0.0,0.0,0.0,0.0,0.0,0.0,0.0,0.0,0.0,0.0,0.0,0.0,0.0,0.0,0.0,0.0,0.0,0.0,0.0,0.0,0.0,0.0,0.0,0.0,0.0,0.0,0.0,0.0,0.0,0.0,0.0,0.0,0.0,0.0,0.0,0.0,0.0,0.0,0.0,0.0,0.0,0.0,0.0,0.0,0.0,0.0,0.0,0.0,0.0,0.0,0.0,0.0,0.0,0.0,0.0,0.0,0.0,0.0,0.0,0.0,0.0,0.0,0.0,0.0,0.0,0.0,0.0,0.0,0.0,0.0,0.0,0.0,0.0,0.0,0.0,0.0,0.0,0.0,0.0,0.0,0.0,0.0,0.0,0.0,0.0,0.0,0.0,0.0,0.0,0.0,0.0,0.0,0.0,0.0,0.0,0.0,0.0,0.0,0.0,0.0,0.0,0.0,0.0,0.0,0.0,0.0,0.0,0.0,0.0,0.0,0.0,0.0,0.0,0.0,0.0,0.0,0.0,0.0,0.0,0.0,0.0,0.0,0.0,0.0,0.0,0.0,0.0,0.0,0.0,0.0,0.0,0.0,0.0,0.0,0.0,0.0,0.0,0.0,0.0,0.0,0.0,0.0,0.0,0.0,0.0,0.0,0.0,0.0,0.0,0.0,0.0,0.0,0.0,0.0,0.0,0.0,0.0,0.0,0.0,0.0,0.0,0.0,0.0,0.0,0.0,0.0,0.0,0.0,0.0,0.0,0.0,0.0,0.0,0.0,0.0,0.0,0.0,0.0,0.0,0.0,0.0,0.0,0.0,0.0,0.0,0.0,0.0,0.0,0.0,0.0,0.0,0.0,0.0,0.0,0.0,0.0,0.0,0.0,0.0,0.0,0.0,0.0,0.0,0.0,0.0,0.0,0.0,0.0,0.0,0.0,0.0,0.0,0.0,0.0,0.0,0.0,0.0,0.0,0.0,0.0,0.0,0.0,0.0,0.0,0.0,0.0,0.0,0.0,0.0,0.0,0.0,0.0,0.0,0.0,0.0,0.0,0.0,0.0,0.0,0.0,0.0,0.0,0.0,0.0,0.0,0.0,0.0,0.0,0.0,0.0,0.0,0.0,0.0,0.0,0.0,0.0,0.0,0.0,0.0,0.0,0.0,0.0,0.0,0.0,0.0,0.0,0.0,0.0,0.0,0.0,0.0,0.0,0.0,0.0,0.0,0.0,0.0,0.0,0.0,0.0,0.0,0.0,0.0,0.0,0.0,0.0,0.0,0.0,0.0,0.0,0.0,0.0,0.0,0.0,0.0,0.0,0.0,0.0,0.0,0.0,0.0,0.0,0.0,0.0,0.0,0.0,0.0,0.0,0.0,0.0,0.0,0.0,0.0,0.0,0.0,0.0,0.0,0.0,0.0,0.0,0.0,0.0,0.0,0.0,0.0,0.0,0.0,0.0,0.0,0.0,0.0,0.0,0.0,0.0,0.0,0.0,0.0,0.0,0.0,0.0,0.0,0.0,0.0,0.0,0.0,0.0,0.0,0.0,0.0,0.0,0.0,0.0,0.0,0.0,0.0,0.0,0.0,0.0,0.0,0.0,0.0,0.0,0.0,0.0,0.0,0.0,0.0,0.0,0.0,0.0,0.0,0.0,0.0,0.0,0.0,0.0,0.0,0.0,0.0,0.0,0.0,0.0,0.0,0.0,0.0,0.0,0.0,1.2282,0.0,0.0,0.0,0.0,0.0,0.0,0.0,0.0,0.0,0.0,0.0,0.0,0.0,0.0,0.0,0.0,0.0,0.0,0.0,0.0,0.0,0.0,0.0,0.0,0.0,0.0,0.0,0.0,0.0,0.0,0.0,0.0,0.0,0.0,0.0,0.0,0.0,0.0,0.0,0.0,0.0,0.0,0.0,0.0,0.0,0.0,0.0,0.0,0.0,0.0,0.0,0.0,0.0,0.0,0.0,0.0,0.0,0.0,0.0,0.0,0.0,0.0,0.0,0.0,0.0,0.0,0.0,0.0,0.0,0.0,0.0,0.0,0.0,0.0,0.0,0.0,0.0,0.0,0.0,0.0,0.0,0.0,0.0,0.0,0.0,0.0,0.0,0.0,0.0,0.0,0.0,0.0,0.0,0.0,0.0,0.0,0.0,0.0,0.0,0.0,0.0,0.0,0.0,0.0,0.0,0.0,0.0,0.0,0.0,0.0,1.3959,1.387,1.3488,1.3007,1.2483,0.0,0.0,0.0,0.0,0.0,0.0,0.0,0.0,0.0,0.0,0.0,0.0,0.0,0.0,0.0,0.0,0.0,0.0,0.0,0.0,0.0,0.0,0.0,0.0,0.0,0.0,0.0,0.0,0.0,0.0,0.0,0.0,0.0,0.0,0.0,0.0,0.0,0.0,0.0,0.0,0.0,0.0,0.0,0.0,0.0,0.0,0.0,0.0,0.0,0.0,0.0,0.0,0.0,0.0,0.0,0.0,0.0,0.0,0.0,0.0,0.0,0.0,0.0,0.0,0.0,0.0,0.0,0.0,0.0,0.0,0.0,0.0,0.0,0.0,0.0,0.0,0.0,0.0,0.0,0.0,0.0,0.0,0.0,0.0,0.0,0.0,0.0,0.0,0.0,0.0,0.0,0.0,0.0,0.0,0.0,0.0,0.0,0.0,0.0,0.0,0.0,0.0,0.0,0.0,0.0,0.0,0.0,0.0,0.0,0.0,0.0,0.0,1.3945,1.3409,1.2347,0.0,0.0,0.0,0.0,0.0,0.0,0.0,0.0,0.0,0.0,0.0,0.0,0.0,0.0,0.0,0.0,0.0,0.0,0.0,0.0,0.0,0.0,0.0,0.0,0.0,0.0,0.0,0.0,0.0,0.0,0.0,0.0,0.0,0.0,0.0,0.0,0.0,0.0,0.0,0.0,0.0,0.0,0.0,0.0,0.0,0.0,0.0,0.0,0.0,0.0,0.0,0.0,0.0,0.0,0.0,0.0,0.0,0.0,0.0,0.0,0.0,0.0,0.0,0.0,0.0,0.0,0.0,0.0,0.0,0.0,0.0,0.0,0.0,0.0,0.0,0.0,0.0,0.0,0.0,0.0,0.0,0.0,0.0,0.0,0.0,0.0,0.0,0.0,0.0,0.0,0.0,0.0,0.0,0.0,0.0,0.0,0.0,0.0,0.0,0.0,0.0,0.0,0.0,0.0,0.0,0.0,0.0,0.0,0.0,0.0,1.4658,1.4512,1.4521,0.0,1.2205,0.0,0.0,0.0,0.0,0.0,0.0,0.0,0.0,0.0,0.0,0.0,0.0,0.0,0.0,0.0,0.0,0.0,0.0,0.0,0.0,0.0,0.0,0.0,0.0,0.0,0.0,0.0,0.0,0.0,0.0,0.0,0.0,0.0,0.0,0.0,0.0,0.0,0.0,0.0,0.0,0.0,0.0,0.0,0.0,0.0,0.0,0.0,0.0,0.0,0.0,0.0,0.0,0.0,0.0,0.0,0.0,0.0,0.0,0.0,0.0,0.0,0.0,0.0,0.0,0.0,0.0,0.0,0.0,0.0,0.0,0.0,0.0,0.0,0.0,0.0,0.0,0.0,0.0,0.0,0.0,0.0,0.0,0.0,0.0,0.0,0.0,0.0,0.0,0.0,0.0,0.0,0.0,0.0,0.0,0.0,0.0,0.0,0.0,0.0,0.0,0.0,0.0,0.0,0.0,0.0,0.0,0.0,0.0,0.0,0.0,1.4673,1.5004,1.4541,1.3944,0.0,0.0,0.0,0.0,0.0,0.0,0.0,0.0,0.0,0.0,0.0,0.0,0.0,0.0,0.0,0.0,0.0,0.0,0.0,0.0,0.0,0.0,0.0,0.0,0.0,0.0,0.0,0.0,0.0,0.0,0.0,0.0,0.0,0.0,0.0,0.0,0.0,0.0,0.0,0.0,0.0,0.0,0.0,0.0,0.0,0.0,0.0,0.0,0.0,0.0,0.0,0.0,0.0,0.0,0.0,0.0,0.0,0.0,0.0,0.0,0.0,0.0,0.0,0.0,0.0,0.0,0.0,0.0,0.0,0.0,0.0,0.0,0.0,0.0,0.0,0.0,0.0,0.0,0.0,0.0,0.0,0.0,0.0,0.0,0.0,0.0,0.0,0.0,0.0,0.0,0.0,0.0,0.0,0.0,0.0,0.0,0.0,0.0,0.0,0.0,0.0,0.0,0.0,0.0,0.0,0.0,0.0,0.0,0.0,0.0,1.437,0.0,1.5369,1.4683,1.4133,1.3803,0.0,0.0,0.0,0.0,0.0,0.0,0.0,0.0,0.0,0.0,0.0,0.0,0.0,0.0,0.0,0.0,0.0,0.0,0.0,0.0,0.0,0.0,0.0,0.0,0.0,0.0,0.0,0.0,0.0,0.0,0.0,0.0,0.0,0.0,0.0,0.0,0.0,0.0,0.0,0.0,0.0,0.0,0.0,0.0,0.0,0.0,0.0,0.0,0.0,0.0,0.0,0.0,0.0,0.0,0.0,0.0,0.0,0.0,0.0,0.0,0.0,0.0,0.0,0.0,0.0,0.0,0.0,0.0,0.0,0.0,0.0,0.0,0.0,0.0,0.0,0.0,0.0,0.0,0.0,0.0,0.0,0.0,0.0,0.0,0.0,0.0,0.0,0.0,0.0,0.0,0.0,0.0,0.0,0.0,0.0,0.0,0.0,0.0,0.0,0.0,0.0,0.0,0.0,0.0,0.0,0.0,0.0,0.0,0.0,1.4513,1.515,1.5739,1.5055,1.4339,0.0,0.0,0.0,0.0,0.0,0.0,0.0,0.0,0.0,0.0,0.0,0.0,0.0,0.0,0.0,0.0,0.0,0.0,0.0,0.0,0.0,0.0,0.0,0.0,0.0,0.0,0.0,0.0,0.0,0.0,0.0,0.0,0.0,0.0,0.0,0.0,0.0,0.0,0.0,0.0,0.0,0.0,0.0,0.0,0.0,0.0,0.0,0.0,0.0,0.0,0.0,0.0,0.0,0.0,0.0,0.0,0.0,0.0,0.0,0.0,0.0,0.0,0.0,0.0,0.0,0.0,0.0,0.0,0.0,0.0,0.0,0.0,0.0,0.0,0.0,0.0,0.0,0.0,0.0,0.0,0.0,0.0,0.0,0.0,0.0,0.0,0.0,0.0,0.0,0.0,0.0,0.0,0.0,0.0,0.0,0.0,0.0,0.0,0.0,0.0,0.0,0.0,0.0,0.0,0.0,0.0,0.0,0.0,0.0,1.4113,1.5255,1.5937,1.608,1.5069,1.435,0.0,0.0,0.0,0.0,0.0,0.0,0.0,0.0,0.0,0.0,0.0,0.0,0.0,0.0,0.0,0.0,0.0,0.0,0.0,0.0,0.0,0.0,0.0,0.0,0.0,0.0,0.0,0.0,0.0,0.0,0.0,0.0,0.0,0.0,0.0,0.0,0.0,0.0,0.0,0.0,0.0,0.0,0.0,0.0,0.0,0.0,0.0,0.0,0.0,0.0,0.0,0.0,0.0,0.0,0.0,0.0,0.0,0.0,0.0,0.0,0.0,0.0,0.0,0.0,0.0,0.0,0.0,0.0,0.0,0.0,0.0,0.0,0.0,0.0,0.0,0.0,0.0,0.0,0.0,0.0,0.0,0.0,0.0,0.0,0.0,0.0,0.0,0.0,0.0,0.0,0.0,0.0,0.0,0.0,0.0,0.0,0.0,0.0,0.0,0.0,0.0,0.0,0.0,0.0,0.0,0.0,0.0,0.0,0.0,1.4087,0.0,1.615,0.0,1.4924,1.4227,0.0,0.0,0.0,0.0,0.0,0.0,0.0,0.0,0.0,0.0,0.0,0.0,0.0,0.0,0.0,0.0,0.0,0.0,0.0,0.0,0.0,0.0,0.0,0.0,0.0,0.0,0.0,0.0,0.0,0.0,0.0,0.0,0.0,0.0,0.0,0.0,0.0,0.0,0.0,0.0,0.0,0.0,0.0,0.0,0.0,0.0,0.0,0.0,0.0,0.0,0.0,0.0,0.0,0.0,0.0,0.0,0.0,0.0,0.0,0.0,0.0,0.0,0.0,0.0,0.0,0.0,0.0,0.0,0.0,0.0,0.0,0.0,0.0,0.0,0.0,0.0,0.0,0.0,0.0,0.0,0.0,0.0,0.0,0.0,0.0,0.0,0.0,0.0,0.0,0.0,0.0,0.0,0.0,0.0,0.0,0.0,0.0,0.0,0.0,0.0,0.0,0.0,0.0,0.0,0.0,0.0,0.0,0.0,1.2253,1.3695,1.4971,1.5697,1.587,1.4621,1.395,0.0,0.0,0.0,0.0,0.0,0.0,0.0,0.0,0.0,0.0,0.0,0.0,0.0,0.0,0.0,0.0,0.0,0.0,0.0,0.0,0.0,0.0,0.0,0.0,0.0,0.0,0.0,0.0,0.0,0.0,0.0,0.0,0.0,0.0,0.0,0.0,0.0,0.0,0.0,0.0,0.0,0.0,0.0,0.0,0.0,0.0,0.0,0.0,0.0,0.0,0.0,0.0,0.0,0.0,0.0,0.0,0.0,0.0,0.0,0.0,0.0,0.0,0.0,0.0,0.0,0.0,0.0,0.0,0.0,0.0,0.0,0.0,0.0,0.0,0.0,0.0,0.0,0.0,0.0,0.0,0.0,0.0,0.0,0.0,0.0,0.0,0.0,0.0,0.0,0.0,0.0,0.0,0.0,0.0,0.0,0.0,0.0,0.0,0.0,0.0,0.0,0.0,0.0,0.0,0.0,0.0,0.0,0.0,0.0,1.3939,1.4907,1.5448,1.5521,1.4767,1.4167,0.0,0.0,0.0,0.0,0.0,0.0,0.0,0.0,0.0,0.0,0.0,0.0,0.0,0.0,0.0,0.0,0.0,0.0,0.0,0.0,0.0,0.0,0.0,0.0,0.0,0.0,0.0,0.0,0.0,0.0,0.0,0.0,0.0,0.0,0.0,0.0,0.0,0.0,0.0,0.0,0.0,0.0,0.0,0.0,0.0,0.0,0.0,0.0,0.0,0.0,0.0,0.0,0.0,0.0,0.0,0.0,0.0,0.0,0.0,0.0,0.0,0.0,0.0,0.0,0.0,0.0,0.0,0.0,0.0,0.0,0.0,0.0,0.0,0.0,0.0,0.0,0.0,0.0,0.0,0.0,0.0,0.0,0.0,0.0,0.0,0.0,0.0,0.0,0.0,0.0,0.0,0.0,0.0,0.0,0.0,0.0,0.0,0.0,0.0,0.0,0.0,0.0,0.0,0.0,0.0,0.0,0.0,0.0,0.0,1.4144,1.4795,1.5193,1.5314,1.4746,1.42,1.368,0.0,0.0,0.0,0.0,0.0,0.0,0.0,0.0,0.0,0.0,0.0,0.0,0.0,0.0,0.0,0.0,0.0,0.0,0.0,0.0,0.0,0.0,0.0,0.0,0.0,0.0,0.0,0.0,0.0,0.0,0.0,0.0,0.0,0.0,0.0,0.0,0.0,0.0,0.0,0.0,0.0,0.0,0.0,0.0,0.0,0.0,0.0,0.0,0.0,0.0,0.0,0.0,0.0,0.0,0.0,0.0,0.0,0.0,0.0,0.0,0.0,0.0,0.0,0.0,0.0,0.0,0.0,0.0,0.0,0.0,0.0,0.0,0.0,0.0,0.0,0.0,0.0,0.0,0.0,0.0,0.0,0.0,0.0,0.0,0.0,0.0,0.0,0.0,0.0,0.0,0.0,0.0,0.0,0.0,0.0,0.0,0.0,0.0,0.0,0.0,0.0,0.0,0.0,0.0,0.0,0.0,0.0,0.0,1.4341,1.4675,1.4944,1.5162,1.4674,1.4094,0.0,0.0,0.0,0.0,0.0,0.0,0.0,0.0,0.0,0.0,0.0,0.0,0.0,0.0,0.0,0.0,0.0,0.0,0.0,0.0,0.0,0.0,0.0,0.0,0.0,0.0,0.0,0.0,0.0,0.0,0.0,0.0,0.0,0.0,0.0,0.0,0.0,0.0,0.0,0.0,0.0,0.0,0.0,0.0,0.0,0.0,0.0,0.0,0.0,0.0,0.0,0.0,0.0,0.0,0.0,0.0,0.0,0.0,0.0,0.0,0.0,0.0,0.0,0.0,0.0,0.0,0.0,0.0,0.0,0.0,0.0,0.0,0.0,0.0,0.0,0.0,0.0,0.0,0.0,0.0,0.0,0.0,0.0,0.0,0.0,0.0,0.0,0.0,0.0,0.0,0.0,0.0,0.0,0.0,0.0,0.0,0.0,0.0,0.0,0.0,0.0,0.0,0.0,0.0,0.0,0.0,0.0,0.0,0.0,1.4914,1.5103,1.508,1.4914,1.5184,1.471,0.0,0.0,0.0,0.0,0.0,0.0,0.0,0.0,0.0,0.0,0.0,0.0,0.0,0.0,0.0,0.0,0.0,0.0,0.0,0.0,0.0,0.0,0.0,0.0,0.0,0.0,0.0,0.0,0.0,0.0,0.0,0.0,0.0,0.0,0.0,0.0,0.0,0.0,0.0,0.0,0.0,0.0,0.0,0.0,0.0,0.0,0.0,0.0,0.0,0.0,0.0,0.0,0.0,0.0,0.0,0.0,0.0,0.0,0.0,0.0,0.0,0.0,0.0,0.0,0.0,0.0,0.0,0.0,0.0,0.0,0.0,0.0,0.0,0.0,0.0,0.0,0.0,0.0,0.0,0.0,0.0,0.0,0.0,0.0,0.0,0.0,0.0,0.0,0.0,0.0,0.0,0.0,0.0,0.0,0.0,0.0,0.0,0.0,0.0,0.0,0.0,0.0,0.0,0.0,0.0,0.0,0.0,0.0,1.4309,1.5144,1.5719,1.5815,1.5383,1.5566,1.4979,0.0,0.0,0.0,0.0,0.0,0.0,0.0,0.0,0.0,0.0,0.0,0.0,0.0,0.0,0.0,0.0,0.0,0.0,0.0,0.0,0.0,0.0,0.0,0.0,0.0,0.0,0.0,0.0,0.0,0.0,0.0,0.0,0.0,0.0,0.0,0.0,0.0,0.0,0.0,0.0,0.0,0.0,0.0,0.0,0.0,0.0,0.0,0.0,0.0,0.0,0.0,0.0,0.0,0.0,0.0,0.0,0.0,0.0,0.0,0.0,0.0,0.0,0.0,0.0,0.0,0.0,0.0,0.0,0.0,0.0,0.0,0.0,0.0,0.0,0.0,0.0,0.0,0.0,0.0,0.0,0.0,0.0,0.0,0.0,0.0,0.0,0.0,0.0,0.0,0.0,0.0,0.0,0.0,0.0,0.0,0.0,0.0,0.0,0.0,0.0,0.0,0.0,0.0,0.0,0.0,0.0,0.0,0.0,1.5011,1.5192,1.6361,1.6766,1.63,1.5872,1.5087,0.0,0.0,0.0,0.0,0.0,0.0,0.0,0.0,0.0,0.0,0.0,0.0,0.0,0.0,0.0,0.0,0.0,0.0,0.0,0.0,0.0,0.0,0.0,0.0,0.0,0.0,0.0,0.0,0.0,0.0,0.0,0.0,0.0,0.0,0.0,0.0,0.0,0.0,0.0,0.0,0.0,0.0,0.0,0.0,0.0,0.0,0.0,0.0,0.0,0.0,0.0,0.0,0.0,0.0,0.0,0.0,0.0,0.0,0.0,0.0,0.0,0.0,0.0,0.0,0.0,0.0,0.0,0.0,0.0,0.0,0.0,0.0,0.0,0.0,0.0,0.0,0.0,0.0,0.0,0.0,0.0,0.0,0.0,0.0,0.0,0.0,0.0,0.0,0.0,0.0,0.0,0.0,0.0,0.0,0.0,0.0,0.0,0.0,0.0,0.0,0.0,0.0,0.0,0.0,0.0,0.0,0.0,0.0,1.5265,1.5725,1.655,1.6951,1.6834,1.6345,1.5558,0.0,0.0,0.0,0.0,0.0,0.0,0.0,0.0,0.0,0.0,0.0,0.0,0.0,0.0,0.0,0.0,0.0,0.0,0.0,0.0,0.0,0.0,0.0,0.0,0.0,0.0,0.0,0.0,0.0,0.0,0.0,0.0,0.0,0.0,0.0,0.0,0.0,0.0,0.0,0.0,0.0,0.0,0.0,0.0,0.0,0.0,0.0,0.0,1.8128,0.0,0.0,0.0,0.0,0.0,0.0,0.0,0.0,0.0,0.0,0.0,0.0,0.0,0.0,0.0,0.0,0.0,0.0,0.0,0.0,0.0,0.0,0.0,0.0,0.0,0.0,0.0,0.0,0.0,0.0,0.0,0.0,0.0,0.0,0.0,0.0,0.0,0.0,0.0,0.0,0.0,0.0,0.0,0.0,0.0,0.0,0.0,0.0,0.0,0.0,0.0,0.0,0.0,0.0,0.0,0.0,0.0,0.0,0.0,1.5748,1.6059,1.699,1.7413,1.7301,1.6534,1.5731,0.0,0.0,0.0,0.0,0.0,0.0,0.0,0.0,0.0,0.0,0.0,0.0,0.0,0.0,0.0,0.0,0.0,0.0,0.0,0.0,0.0,0.0,0.0,0.0,0.0,0.0,0.0,0.0,0.0,0.0,0.0,0.0,0.0,0.0,0.0,0.0,0.0,0.0,0.0,0.0,0.0,0.0,0.0,0.0,0.0,0.0,0.0,0.0,0.0,0.0,0.0,0.0,0.0,0.0,0.0,0.0,0.0,0.0,0.0,0.0,0.0,0.0,0.0,0.0,0.0,0.0,0.0,0.0,0.0,0.0,0.0,0.0,0.0,0.0,0.0,0.0,0.0,0.0,0.0,0.0,0.0,0.0,0.0,0.0,0.0,0.0,0.0,0.0,0.0,0.0,0.0,0.0,0.0,0.0,0.0,0.0,0.0,0.0,0.0,0.0,0.0,0.0,0.0,0.0,0.0,0.0,0.0,1.5291,1.6226,1.6232,1.7366,1.7841,1.7552,1.6537,1.5735,1.5233,0.0,0.0,0.0,0.0,0.0,0.0,0.0,0.0,0.0,0.0,0.0,0.0,0.0,0.0,0.0,0.0,0.0,0.0,0.0,0.0,0.0,0.0,0.0,0.0,0.0,0.0,0.0,0.0,0.0,0.0,0.0,0.0,0.0,0.0,0.0,0.0,0.0,0.0,1.5051,1.7243,0.0,0.0,0.0,0.0,0.0,0.0,0.0,0.0,2.0289,0.0,0.0,0.0,0.0,0.0,0.0,0.0,0.0,0.0,0.0,0.0,0.0,0.0,0.0,0.0,0.0,0.0,0.0,0.0,0.0,0.0,0.0,0.0,0.0,0.0,0.0,0.0,0.0,0.0,0.0,0.0,0.0,0.0,0.0,0.0,0.0,0.0,0.0,0.0,0.0,0.0,0.0,0.0,0.0,0.0,0.0,0.0,0.0,0.0,0.0,0.0,0.0,0.0,0.0,0.0,0.0,1.3645,1.5451,1.6308,1.6218,1.7322,1.7618,1.6973,1.6225,1.5559,1.4931,0.0,0.0,0.0,0.0,0.0,0.0,0.0,0.0,0.0,0.0,0.0,0.0,0.0,0.0,0.0,0.0,0.0,0.0,0.0,0.0,0.0,0.0,0.0,0.0,0.0,0.0,0.0,0.0,0.0,0.0,0.0,0.0,0.0,0.0,0.0,0.0,0.0,0.0,0.0,1.8536,2.0018,0.0,0.0,0.0,0.0,0.0,0.0,0.0,0.0,2.1009,0.0,0.0,0.0,0.0,0.0,0.0,0.0,0.0,0.0,0.0,0.0,0.0,0.0,0.0,0.0,0.0,0.0,0.0,0.0,0.0,0.0,0.0,0.0,0.0,0.0,0.0,0.0,0.0,0.0,0.0,0.0,0.0,0.0,0.0,0.0,0.0,0.0,0.0,0.0,0.0,0.0,0.0,0.0,0.0,0.0,0.0,0.0,0.0,0.0,0.0,0.0,0.0,0.0,0.0,0.0,1.425,1.5806,1.65,1.629,1.738,1.7564,1.6755,1.6104,1.5477,0.0,0.0,0.0,0.0,0.0,0.0,0.0,0.0,0.0,0.0,0.0,0.0,0.0,0.0,0.0,0.0,0.0,0.0,0.0,0.0,0.0,0.0,0.0,0.0,0.0,0.0,0.0,0.0,0.0,0.0,0.0,0.0,0.0,0.0,0.0,0.0,0.0,0.0,0.0,0.0,1.9741,2.0979,2.2242,0.0,0.0,0.0,0.0,0.0,0.0,2.1996,2.1461,0.0,0.0,0.0,0.0,0.0,0.0,0.0,0.0,0.0,0.0,0.0,0.0,0.0,0.0,0.0,0.0,0.0,0.0,0.0,0.0,0.0,0.0,0.0,0.0,0.0,0.0,0.0,0.0,0.0,0.0,0.0,0.0,0.0,0.0,0.0,0.0,0.0,0.0,0.0,0.0,0.0,0.0,0.0,0.0,0.0,0.0,0.0,0.0,0.0,0.0,0.0,0.0,0.0,0.0,0.0,1.4716,1.6047,1.6592,1.6371,1.7353,1.7476,1.6563,1.597,1.5328,0.0,0.0,0.0,0.0,0.0,0.0,0.0,0.0,0.0,0.0,0.0,0.0,0.0,0.0,0.0,0.0,0.0,0.0,0.0,0.0,0.0,0.0,0.0,0.0,0.0,0.0,0.0,0.0,0.0,0.0,0.0,0.0,0.0,0.0,0.0,0.0,0.0,0.0,0.0,0.0,0.0,2.1922,2.3381,2.3686,0.0,0.0,0.0,0.0,2.3244,2.2548,0.0,0.0,0.0,0.0,0.0,0.0,0.0,0.0,0.0,0.0,0.0,0.0,0.0,0.0,0.0,0.0,0.0,0.0,0.0,0.0,0.0,0.0,0.0,0.0,0.0,0.0,0.0,0.0,0.0,0.0,0.0,0.0,0.0,0.0,0.0,0.0,0.0,0.0,0.0,0.0,0.0,0.0,0.0,0.0,0.0,0.0,0.0,0.0,0.0,0.0,0.0,0.0,0.0,0.0,0.0,0.0,1.4779,1.5949,1.6445,1.6353,1.7244,1.7142,1.5936,1.5657,1.5008,0.0,0.0,0.0,0.0,0.0,0.0,0.0,0.0,0.0,0.0,0.0,0.0,0.0,0.0,0.0,0.0,0.0,0.0,0.0,0.0,0.0,0.0,0.0,0.0,0.0,0.0,0.0,0.0,0.0,0.0,0.0,0.0,0.0,0.0,0.0,0.0,0.0,0.0,0.0,0.0,0.0,2.2584,2.3476,2.4188,2.4648,0.0,0.0,2.4146,2.3996,2.3689,0.0,0.0,0.0,0.0,0.0,0.0,0.0,0.0,0.0,0.0,0.0,0.0,0.0,0.0,0.0,0.0,0.0,0.0,0.0,0.0,0.0,0.0,0.0,0.0,0.0,0.0,0.0,0.0,0.0,0.0,0.0,0.0,0.0,0.0,0.0,0.0,0.0,0.0,0.0,0.0,0.0,0.0,0.0,0.0,0.0,0.0,0.0,0.0,0.0,0.0,0.0,0.0,0.0,0.0,0.0,1.3813,1.5221,1.6131,1.6571,1.6673,1.7322,1.7237,1.6228,1.5751,1.5108,0.0,0.0,0.0,0.0,0.0,0.0,0.0,0.0,0.0,0.0,0.0,0.0,0.0,0.0,0.0,0.0,0.0,0.0,0.0,0.0,0.0,0.0,0.0,0.0,0.0,0.0,0.0,0.0,0.0,0.0,0.0,0.0,0.0,0.0,0.0,0.0,0.0,0.0,0.0,0.0,0.0,0.0,2.4167,2.4583,0.0,0.0,0.0,2.4229,2.4084,0.0,0.0,0.0,0.0,0.0,0.0,0.0,0.0,0.0,0.0,0.0,0.0,0.0,0.0,0.0,0.0,0.0,0.0,0.0,0.0,0.0,0.0,0.0,0.0,0.0,0.0,0.0,0.0,0.0,0.0,0.0,0.0,0.0,0.0,0.0,0.0,0.0,0.0,0.0,0.0,0.0,0.0,0.0,0.0,0.0,0.0,0.0,0.0,0.0,0.0,0.0,0.0,0.0,0.0,0.0,0.0,0.0,1.5563,1.617,1.6587,1.6894,1.739,1.7263,1.652,1.5845,0.0,0.0,0.0,0.0,0.0,0.0,0.0,0.0,0.0,0.0,0.0,0.0,0.0,0.0,0.0,0.0,0.0,0.0,0.0,0.0,0.0,0.0,0.0,0.0,0.0,0.0,0.0,1.0935,0.0,0.0,0.0,0.0,0.0,0.0,0.0,0.0,0.0,0.0,0.0,0.0,0.0,0.0,2.3999,2.4956,2.5081,2.5086,0.0,0.0,2.4705,2.4304,2.4064,2.3759,0.0,0.0,0.0,0.0,0.0,0.0,0.0,0.0,0.0,0.0,0.0,0.0,0.0,0.0,0.0,0.0,0.0,0.0,0.0,0.0,0.0,0.0,0.0,0.0,0.0,0.0,0.0,0.0,0.0,0.0,0.0,0.0,0.0,0.0,0.0,0.0,0.0,0.0,0.0,0.0,0.0,0.0,0.0,0.0,0.0,0.0,0.0,0.0,0.0,0.0,0.0,0.0,0.0,0.0,0.0,1.5533,1.589,1.6325,1.6888,1.723,1.7114,1.6507,1.5864,1.5212,0.0,0.0,0.0,0.0,0.0,0.0,0.0,0.0,0.0,0.0,0.0,0.0,0.0,0.0,0.0,0.0,0.0,0.0,0.0,0.0,0.0,0.0,0.0,0.0,0.0,0.0,0.0,0.0,0.0,0.0,0.0,0.0,0.0,0.0,0.0,0.0,0.0,0.0,0.0,0.0,0.0,2.4105,2.569,2.5863,2.6035,0.0,0.0,2.5998,2.4993,2.4682,2.4211,2.3279,0.0,0.0,0.0,0.0,0.0,0.0,0.0,0.0,0.0,0.0,0.0,0.0,0.0,0.0,0.0,0.0,0.0,0.0,0.0,0.0,0.0,0.0,0.0,0.0,0.0,0.0,0.0,0.0,0.0,0.0,0.0,0.0,0.0,0.0,0.0,0.0,0.0,0.0,0.0,0.0,0.0,0.0,0.0,0.0,0.0,0.0,0.0,0.0,0.0,0.0,0.0,0.0,0.0,1.4264,1.5983,1.6027,1.6394,1.7223,1.7354,1.7244,1.6946,1.6009,1.5401,0.0,0.0,0.0,0.0,0.0,0.0,0.0,0.0,0.0,0.0,0.0,0.0,0.0,0.0,0.0,0.0,0.0,0.0,0.0,0.0,0.0,0.0,0.0,0.0,0.0,0.0,0.0,0.0,1.3479,1.386,1.4648,0.0,0.0,0.0,0.0,0.0,0.0,0.0,0.0,0.0,0.0,2.5261,2.5863,2.6303,0.0,0.0,2.6586,2.6238,2.566,2.5372,2.5031,2.4537,2.4301,0.0,0.0,0.0,0.0,0.0,0.0,0.0,0.0,0.0,0.0,0.0,0.0,0.0,0.0,0.0,0.0,0.0,0.0,0.0,0.0,0.0,0.0,0.0,0.0,0.0,0.0,0.0,0.0,0.0,0.0,0.0,0.0,0.0,0.0,0.0,0.0,0.0,0.0,0.0,0.0,0.0,0.0,0.0,0.0,0.0,0.0,0.0,0.0,0.0,0.0,0.0,0.0,1.4578,1.6271,1.6059,1.642,1.7489,1.7378,1.7295,1.7186,1.6271,1.5683,0.0,0.0,0.0,0.0,0.0,0.0,0.0,0.0,0.0,0.0,0.0,0.0,0.0,0.0,0.0,0.0,0.0,0.0,0.0,0.0,0.0,0.0,0.0,0.0,0.0,0.0,0.0,0.0,1.42,1.4691,1.5493,0.0,0.0,0.0,0.0,0.0,0.0,0.0,0.0,0.0,0.0,2.6134,2.6548,2.7018,2.7324,2.7353,2.7181,2.6867,2.6361,2.6085,2.5777,2.5317,0.0,0.0,0.0,0.0,0.0,0.0,0.0,0.0,0.0,0.0,0.0,0.0,0.0,0.0,0.0,0.0,0.0,0.0,0.0,0.0,0.0,0.0,0.0,0.0,0.0,0.0,0.0,0.0,0.0,0.0,1.262,0.0,0.0,0.0,0.0,0.0,0.0,0.0,0.0,0.0,0.0,0.0,0.0,0.0,0.0,0.0,0.0,0.0,0.0,0.0,0.0,0.0,0.0,1.4509,1.6271,1.5995,1.6365,1.7456,1.7323,1.7199,1.7199,1.6663,1.6101,1.5487,0.0,0.0,0.0,0.0,0.0,0.0,0.0,0.0,0.0,0.0,0.0,0.0,0.0,0.0,0.0,0.0,0.0,0.0,0.0,0.0,0.0,0.0,0.0,0.0,0.0,0.0,1.4044,1.4701,1.5536,0.0,0.0,0.0,0.0,0.0,0.0,0.0,0.0,0.0,0.0,2.5847,2.6491,2.7989,2.8096,2.8181,2.875,2.8664,2.8173,2.7077,2.6782,2.6342,0.0,0.0,0.0,0.0,0.0,0.0,0.0,0.0,0.0,0.0,0.0,0.0,0.0,0.0,0.0,0.0,0.0,0.0,0.0,0.0,0.0,0.0,0.0,0.0,0.0,0.0,0.0,1.4902,1.4777,0.0,0.0,0.0,0.0,0.0,0.0,0.0,0.0,0.0,0.0,0.0,1.8142,1.8345,0.0,0.0,0.0,0.0,0.0,0.0,0.0,0.0,0.0,0.0,0.0,0.0,1.5377,1.6239,1.6402,1.6802,1.7469,1.7289,1.7212,1.7199,1.6676,1.597,1.5059,0.0,0.0,0.0,0.0,0.0,0.0,0.0,0.0,0.0,0.0,0.0,0.0,0.0,0.0,0.0,0.0,0.0,0.0,0.0,0.0,0.0,0.0,0.0,0.0,0.0,1.508,0.0,0.0,0.0,0.0,0.0,0.0,0.0,0.0,0.0,0.0,0.0,2.5316,2.645,2.7084,2.7615,2.8107,2.8495,2.8938,0.0,0.0,0.0,0.0,0.0,0.0,0.0,0.0,0.0,0.0,0.0,0.0,0.0,0.0,2.5829,2.4493,2.4289,2.4305,2.4337,0.0,0.0,0.0,0.0,0.0,0.0,0.0,0.0,0.0,0.0,0.0,0.0,0.0,0.0,1.7174,0.0,1.6326,0.0,0.0,0.0,0.0,0.0,0.0,0.0,0.0,1.915,1.9484,1.9592,1.9811,1.9614,0.0,1.8821,1.7767,0.0,0.0,0.0,0.0,0.0,0.0,0.0,0.0,1.6149,1.6633,1.6788,1.7082,1.7469,1.7344,1.7253,1.7186,1.6703,1.6106,1.5404,1.4772,1.4194,0.0,0.0,0.0,0.0,0.0,0.0,0.0,0.0,0.0,0.0,0.0,0.0,0.0,0.0,0.0,0.0,0.0,0.0,0.0,0.0,0.0,0.0,0.0,1.6189,0.0,0.0,0.0,0.0,0.0,0.0,0.0,0.0,0.0,2.4303,2.5384,2.647,2.7279,2.8079,2.8643,2.8836,0.0,0.0,0.0,0.0,0.0,0.0,0.0,2.8888,2.8093,2.7843,2.7658,2.7434,2.7205,2.7173,2.7616,0.0,0.0,2.593,2.5697,2.5714,2.5714,2.5731,2.5714,2.5646,2.5629,2.5595,0.0,0.0,0.0,0.0,0.0,0.0,0.0,0.0,1.9388,1.9339,0.0,1.8459,0.0,0.0,0.0,0.0,0.0,1.9114,0.0,0.0,2.0606,2.1152,2.1635,2.2228,2.2028,2.1026,2.0354,1.9542,1.8581,1.7927,0.0,0.0,0.0,0.0,0.0,0.0,1.6792,1.7263,1.7129,1.7201,1.7503,1.7432,1.7329,1.7186,1.6764,1.654,1.6474,1.5639,1.4907,1.4357,1.3821,0.0,0.0,0.0,0.0,0.0,0.0,0.0,0.0,0.0,0.0,0.0,0.0,0.0,0.0,0.0,0.0,0.0,0.0,0.0,0.0,1.6169,0.0,0.0,0.0,0.0,0.0,0.0,0.0,0.0,0.0,0.0,2.458,2.6015,2.7345,2.8096,0.0,0.0,0.0,0.0,3.1079,3.0776,3.0635,3.0394,3.0085,2.9927,2.9711,2.942,0.0,0.0,2.8718,2.851,2.8376,2.8426,2.8426,2.8445,2.8505,2.8375,2.836,2.8434,2.8367,2.8462,2.8307,2.7984,2.7993,2.1712,0.0,0.0,0.0,0.0,2.2118,2.2329,2.2248,2.1776,2.1257,2.0661,1.9965,0.0,0.0,0.0,0.0,0.0,0.0,2.1599,2.2237,2.2288,2.2301,2.2324,2.2511,2.2272,2.169,2.1508,2.1117,2.0568,2.0371,1.9251,1.7243,0.0,0.0,0.0,0.0,1.7361,1.7371,1.7595,1.7738,1.7788,1.7536,1.7384,1.7329,1.7247,1.7057,1.6741,1.6583,1.6055,1.508,1.4657,0.0,0.0,0.0,0.0,0.0,0.0,0.0,0.0,0.0,0.0,0.0,0.0,0.0,0.0,0.0,0.0,0.0,0.0,0.0,1.699,1.7886,1.8814,0.0,0.0,0.0,0.0,0.0,0.0,0.0,0.0,0.0,2.774,2.8264,2.8936,0.0,0.0,3.0864,3.0992,3.105,3.116,3.1443,3.1304,0.0,0.0,3.0594,3.0179,2.9401,2.9012,2.8753,2.8586,2.8469,2.8558,2.9019,2.9118,2.9248,2.9707,2.9036,2.8459,2.8337,2.8318,2.8259,2.8125,2.8089,2.8063,2.4458,2.3769,2.3122,2.2848,2.288,2.3387,2.3565,2.3481,2.311,2.2638,2.2151,2.173,2.1341,2.0919,2.0903,0.0,0.0,0.0,2.2784,2.32,2.3256,2.3198,2.3011,2.3273,2.3045,2.2408,2.2408,2.2054,2.1434,2.1409,2.0514,1.8812,0.0,0.0,1.7752,1.7982,1.8017,1.7847,1.8026,1.8042,1.7902,1.7618,1.744,1.7453,1.7522,1.7471,1.7241,1.7139,1.6683,1.5841,1.5398,1.4659,0.0,0.0,0.0,0.0,0.0,0.0,0.0,0.0,0.0,0.0,0.0,1.5263,1.5332,0.0,0.0,0.0,1.7069,1.7689,1.8259,1.9367,0.0,0.0,0.0,0.0,0.0,0.0,0.0,2.744,2.8109,2.889,3.0035,3.0434,3.0676,3.0854,3.1421,3.1796,3.1682,0.0,3.1876,3.2083,3.1948,3.1701,3.1429,3.1199,3.081,3.0054,2.9726,2.9549,2.9396,2.9297,2.9383,2.9711,2.9823,2.9914,3.0335,2.9675,2.9094,2.9013,2.8993,2.8956,2.8817,2.8739,2.8677,2.7201,2.7458,2.4922,2.3852,2.382,2.3907,2.3873,2.3772,2.3826,2.3743,2.3561,2.3577,2.3544,2.3496,2.3562,0.0,2.3577,2.3433,2.3392,2.3376,2.3795,2.3887,2.3725,2.4313,2.4081,2.3092,2.3112,2.2611,2.1713,2.1612,2.1486,2.126,2.0494,1.9782,1.9166,1.8964,1.8809,1.8658,1.8489,1.8236,1.7909,1.7672,1.7537,1.7523,1.7666,1.7781,1.7889,1.7443,1.7024,1.668,1.6129,1.5373,1.4457,0.0,0.0,0.0,0.0,0.0,0.0,0.0,0.0,0.0,0.0,0.0,0.0,0.0,0.0,0.0,1.8248,0.0,1.9385,2.0771,0.0,0.0,0.0,2.4749,2.6395,2.6666,2.7354,2.9075,0.0,0.0,3.1564,3.225,3.2331,3.1664,3.2143,3.2493,3.2284,3.2661,3.2898,3.2586,3.2439,3.2249,3.1805,3.1603,3.1342,3.094,3.0915,3.073,3.0592,3.0506,3.0472,3.0435,3.0443,3.038,3.0359,3.0204,3.0184,3.0216,3.0151,3.0113,2.9919,2.9778,2.9669,2.7656,2.7656,2.6976,2.6685,2.6717,2.672,2.6429,2.5943,2.5943,2.5327,2.4274,2.4274,2.3982,2.3512,2.4031,2.4257,2.4272,2.4694,2.4842,2.4798,2.4808,2.4713,2.4511,2.4588,2.4389,2.3989,2.3942,2.3622,2.3125,2.3082,2.271,2.1978,2.1739,2.1256,2.0468,2.0413,2.0255,2.0013,1.9486,1.8827,1.7996,1.7908,1.7882,1.7868,1.7908,1.7996,1.8123,1.8056,1.7798,1.7375,1.6919,1.6211,1.5213,1.4942,0.0,0.0,0.0,0.0,0.0,0.0,0.0,0.0,0.0,1.7028,1.776,0.0,1.9235,0.0,2.0468,2.1096,2.1776,2.2729,0.0,0.0,2.5372,2.6202,2.7246,2.7983,2.8845,2.9904,3.0556,3.1305,3.2274,3.2498,3.2687,3.2888,3.3081,3.3136,3.2925,3.2898,3.282,3.2507,3.2284,3.209,3.1819,3.1519,3.1213,3.0972,3.0831,3.0712,3.0572,3.0526,3.0485,3.0422,3.0401,3.0333,3.0195,3.0076,3.0261,3.0579,3.038,3.0017,2.9946,2.983,2.9826,2.8447,2.8676,2.8697,2.8697,2.8649,2.798,2.7494,2.7154,2.7138,2.6685,2.5907,2.5616,2.5082,2.4484,2.4806,2.5163,2.5486,2.576,2.6056,2.6318,2.6126,2.5964,2.5816,2.5691,2.5502,2.5216,2.4891,2.4545,2.4219,2.3809,2.3344,2.2809,2.2738,2.241,2.1888,2.1252,2.0838,2.0677,2.0168,1.9467,1.8637,1.8535,1.8357,1.8109,1.8095,1.8135,1.8254,1.8333,1.8194,1.7803,1.7616,1.7204,1.6513,1.6353,1.5947,0.0,0.0,0.0,0.0,0.0,0.0,0.0,0.0,0.0,0.0,0.0,2.0657,2.1498,2.2121,2.2785,2.3587,2.4418,2.5241,2.6032,2.69,2.7759,2.862,2.9484,3.0363,3.1268,3.1722,3.2272,3.3036,3.3053,3.3095,3.3353,3.3274,3.3135,3.3008,3.2834,3.2641,3.2353,3.2126,3.1874,3.1598,3.1327,3.1072,3.0932,3.079,3.0651,3.0526,3.0787,3.0964,3.0891,3.1095,3.1238,3.1022,3.0926,3.1027,3.1225,3.1135,3.0869,3.0768,3.0654,3.066,2.9329,2.9896,2.9896,2.9896,2.9783,2.8535,2.7931,2.785,2.785,2.7786,2.7672,2.7089,2.6474,2.5872,2.5872,2.6231,2.6814,2.6719,2.6981,2.7577,2.7332,2.7185,2.7094,2.6944,2.6764,2.6437,2.5852,2.5422,2.5157,2.4256,2.3816,2.3751,2.348,2.329,2.3105,2.1851,2.1145,2.1016,2.0692,2.0204,1.9509,1.9287,1.8934,1.844,1.8323,1.8307,1.8364,1.8503,1.8437,1.8173,1.8201,1.8172,1.7976,1.8016,1.7639,0.0,1.8173,0.0,0.0,0.0,0.0,0.0,0.0,0.0,0.0,2.1124,2.175,2.2663,2.3566,2.4385,2.5131,2.5893,2.6723,2.7701,2.8421,2.9216,3.0137,3.0972,3.1761,3.2573,3.2719,3.301,3.3611,3.3591,3.3484,3.3482,3.3304,3.3186,3.3088,3.2783,3.2422,3.2196,3.2015,3.1907,3.1706,3.1469,3.1304,3.1227,3.1154,3.0912,3.0874,3.1317,3.1665,3.1622,3.1921,3.224,3.2183,3.2034,3.2012,3.2109,3.2109,3.1997,3.1765,3.1582,3.159,2.9767,2.9896,2.9896,2.9896,2.9886,2.9605,2.9151,2.8579,2.8579,2.8255,2.7705,2.7555,2.7446,2.7316,2.7316,2.7361,2.751,2.749,2.753,2.7593,2.7427,2.7285,2.7164,2.7003,2.6873,2.6808,2.6564,2.6348,2.6134,2.5422,2.4889,2.4543,2.3886,2.3501,2.3407,0.0,0.0,0.0,2.1455,2.1054,2.0457,1.991,1.9612,1.9504,1.8972,0.0,1.8707,1.8831,1.8917,1.8875,1.8649,0.0,0.0,0.0,0.0,0.0,0.0,0.0,0.0,0.0,0.0,0.0,2.178,2.1987,2.1661,2.2957,2.4176,2.5062,2.5374,2.5865,2.6766,2.6989,2.7712,2.9181,2.9546,3.001,3.0901,3.1756,3.2363,3.2517,3.3103,3.346,3.3506,3.3437,3.3557,3.385,3.3828,3.3946,3.4217,3.3231,3.2319,3.1981,3.2198,3.2485,3.2782,3.2702,3.2529,3.255,3.2408,3.2276,3.2238,3.2227,3.228,3.2223,3.224,3.2232,3.2091,3.2012,3.2271,3.2773,3.291,3.27,3.1951,3.171,3.1718,2.9896,0.0,2.9896,2.9896,0.0,2.9896,2.9686,2.9345,2.9345,2.894,2.8239,2.8239,2.8045,2.7721,2.7721,2.7899,2.8239,2.8239,2.8387,2.864,2.849,2.8343,2.8218,2.8072,2.796,2.7868,2.7494,2.721,2.7,2.6275,2.5628,2.5094,2.4569,2.407,2.3661,2.3473,2.3047,2.2337,2.2246,2.1856,2.1183,2.0855,2.0425,1.987,0.0,0.0,0.0,0.0,0.0,0.0,0.0,0.0,0.0,0.0,0.0,1.9474,2.0031,2.0357,2.0295,2.1123,2.1905,2.2446,2.3408,2.3872,2.3597,2.4491,2.5392,2.6202,2.642,2.7018,2.8213,2.8453,2.8974,3.0188,3.0763,3.1229,3.1733,3.2484,3.3003,3.3063,3.3405,3.3719,3.3966,3.3882,3.4067,3.4489,3.441,3.4358,3.4459,3.393,3.3295,3.2827,3.2901,3.3083,3.3178,3.3146,3.3071,3.2945,3.2802,3.2702,3.2685,3.2888,3.3021,3.2931,3.3076,3.3177,3.3056,3.3032,3.3145,3.3485,3.3582,3.3452,3.2925,3.2737,3.2693,3.001,2.9896,2.9896,2.9896,2.9896,2.9896,2.9896,2.9896,0.0,0.0,0.0,2.9005,2.8665,2.8093,2.8077,2.8417,2.8989,2.9005,2.9265,2.9726,2.9563,2.9434,2.9344,2.9167,2.9052,2.8912,2.8385,2.8049,2.7897,2.7069,2.6375,2.5815,2.5319,2.4672,2.3885,2.3646,2.3385,2.3083,2.2947,2.2581,2.1923,2.1793,2.1276,2.0347,2.0121,1.9783,1.9365,1.9379,1.9468,1.9584,1.9785,2.0048,2.0356,2.0594,2.0653,2.0478,2.1288,2.1724,2.1556,2.2856,2.3806,2.4056,2.4912,2.5474,2.5598,2.5733,2.6149,2.6941,2.7326,2.8072,2.9402,2.975,3.0211,3.1051,3.1757,3.2244,3.2528,3.3073,3.3484,3.3563,3.3708,3.396,3.4416,3.4461,3.4676,3.517,3.5048,3.4841,3.4761,3.4511,3.411,3.3884,3.376,3.3664,3.3624,3.3594,3.3412,3.34,3.3244,3.31,3.316,3.3459,3.3665,3.362,3.3999,3.4096,3.4093,3.4003,3.4101,3.4101,3.4101,3.4092,3.3949,3.3822,3.3646,3.0425,2.9896,2.9896,2.9896,2.9896,2.9896,2.9896,2.9896,2.9913,2.9832,2.9734,2.9751,2.9686,2.9589,2.9589,2.9637,2.9734,2.9734,2.9799,0.0,2.9608,2.9496,2.9473,2.9229,2.9075,2.9075,2.898,2.8848,2.8661,2.8027,2.7567,2.7214,2.6022,2.4882,2.4043,2.3839,2.3732,2.3674,2.3385,2.3179,2.3062,2.2511,2.2123,2.1945,2.0951,2.0389,2.0305,1.9934,1.978,1.9919,2.0131,2.0356,2.0626,2.0826,2.1246,2.1989,2.2409,2.2974,2.3755,2.4222,2.4915,2.5895,2.6199,2.6352,2.6423,2.6545,2.6959,2.7766,2.855,2.9203,2.9597,3.024,3.103,3.1862,3.2125,3.248,3.3186,3.3386,3.3528,3.3564,3.4068,3.4395,3.4513,3.482,3.5294,3.5793,3.5766,3.5692,3.5651,3.4751,3.4138,3.4393,3.4353,3.4431,3.4723,3.4887,3.4672,3.4631,3.4525,3.4402,3.4402,3.4352,3.4324,3.4317,3.4243,3.4159,3.4101,3.4101,3.4126,3.4126,3.4126,3.4101,3.4075,3.3958,3.3848,3.1332,3.104,3.104,3.1047,3.1063,3.1047,3.1047,3.0992,3.0603,3.0237,2.9913,2.9896,2.9896,2.9896,2.9896,2.9896,2.9896,2.9896,2.9852,2.9786,2.9675,2.9563,2.9496,2.9366,2.9275,2.9213,2.9198,2.9129,2.8982,2.8636,2.8222,2.7731,2.6318,2.5308,2.4835,2.4304,2.4036,2.3952,2.3631,2.3458,2.3443,2.316,2.2884,2.2575,2.2084,2.1717,2.1443,2.1242,2.124,2.142,2.1561,2.1774,2.2037,2.2208,2.2587,2.3178,2.339,2.3764,2.435,2.5033,2.587,2.6889,2.7093,2.737,2.7865,2.7985,2.823,2.8692,2.949,3.0234,3.074,3.1196,3.1809,3.2705,3.2839,3.3009,3.3346,3.3452,3.3586,3.3939,3.4274,3.4756,3.5424,3.5649,3.6007,3.6588,3.6499,3.6281,3.6165,3.5497,3.5011,3.5256,3.5104,3.5026,3.5247,3.5182,3.5041,3.4923,3.4899,3.4899,3.4899,3.4715,3.4618,3.4611,3.4448,3.4325,3.4325,3.43,3.4325,3.4325,3.4325,3.4325,3.43,3.425,3.4101,3.2236,3.2089,3.2089,3.2066,3.2059,3.2012,3.2028,3.194,3.1396,3.0862,3.0383,3.0042,2.9896,2.9896,2.9896,2.9896,2.9896,2.9896,2.9852,2.9764,2.972,2.9653,2.9541,2.9534,2.945,2.935,2.9328,2.9298,2.9206,2.9059,2.8628,2.7859,2.6751,2.6071,2.5755,2.5014,2.4575,2.4439,2.4034,2.3788,2.3702,2.3702,2.3525,2.3177,2.3117,2.2917,2.2559,2.2458,2.2499,2.2718,2.2825,2.2988,2.3256,2.3463,2.3767,2.4116,2.4331,2.4656,2.5092,2.5913,2.6814,2.7731,2.792,2.8373,2.92,2.9546,2.9606,2.9659,3.0318,3.107,3.1694,3.211,3.258,3.3253,3.3367,3.3484,3.3628,3.3665,3.3927,3.4537,3.4812,3.5397,3.6199,3.647,3.6625,3.693,3.6886,3.652,3.6122,3.6014,3.5949,3.579,3.5611,3.5435,3.5314,3.5198,3.5058,3.4923,3.4899,3.4899,3.4875,3.4804,3.4715,3.4667,3.4594,3.4497,3.448,3.4456,3.4472,3.4472,3.4472,3.4472,3.4472,3.4456,3.4374,3.2934,3.241,3.2426,3.2292,3.2225,3.2107,3.2077,3.206,3.1931,3.1866,3.1695,3.0464,2.9951,2.9896,2.9929,2.9929,2.9896,2.9896,2.9896,2.9874,2.9764,2.9697,2.9675,2.9563,2.9496,2.9473,2.9473,2.9457,2.945,2.9305,2.8819,2.7992,2.7742,2.7306,2.6617,2.5924,2.5566,2.5529,2.4859,2.4349,2.4078,2.4057,2.4074,2.4168,2.3705,2.3464,2.3468,2.302,2.2873,2.3038,2.3163,2.3272,2.3496,2.3735,2.4232,2.4962,2.5278,2.589,2.6824,2.7199,2.7766,2.8649,2.8813,2.9268,3.0183,3.0924,3.1049,3.0686,3.1163,3.1769,3.2017,3.2688,3.3163,3.3331,3.3433,3.3701,3.4298,3.4482,3.4741,3.5423,3.5971,3.6516,3.6558,3.6861,3.7022,3.6811,3.6783,3.6558,3.6127,3.5997,3.591,3.5689,3.5566,3.5469,3.5331,3.5198,3.5081,3.4947,3.4899,3.4899,3.4875,3.4804,3.4691,3.4732,3.4618,3.4546,3.4521,3.448,3.4521,3.4546,3.4546,3.4521,3.4497,3.4546,3.4497,3.3891,3.3669,3.3629,3.3605,3.3557,3.3485,3.3485,3.3452,3.3005,3.2825,3.2718,3.1789,3.1053,3.0506,3.049,3.0279,2.9896,2.9896,2.9896,2.9896,2.9814,2.983,2.9808,2.9764,2.9697,2.9614,2.9608,2.9563,2.9496,2.9434,2.9223,2.8837,2.8472,2.8084,2.7723,2.701,2.6451,2.6009,2.5622,2.5194,2.4742,2.4569,2.4544,2.4574,2.4484,2.4461,2.4488,2.4373,2.4412,2.4577,2.4725,2.4889,2.5082,2.5241,2.553,2.6017,2.6366,2.6726,2.7197,2.7896,2.85,2.8893,2.9465,3.0204,3.1013,3.1479,3.1737,3.1969,3.2284,3.2573,3.2763,3.3097,3.3322,3.3469,3.3828,3.4247,3.4537,3.4961,3.5457,3.6151,3.6427,3.6737,3.6952,3.7105,3.7031,3.6783,3.6719,3.6558,3.6204,3.6041,3.5932,3.5756,3.5639,3.5543,3.5406,3.5245,3.5105,3.5034,3.4947,3.4899,3.4899,3.4875,3.4811,3.4828,3.478,3.4756,3.4756,3.4739,3.4739,3.4756,3.4828,3.4875,3.497,3.497,3.497,3.4594,3.4594,3.457,3.4546,3.4546,3.4538,3.448,3.4448,3.3923,3.3711,3.3645,3.317,3.2455,3.1658,3.1407,3.0943,3.0325,3.0282,3.0163,3.0006,2.9968,3.0006,2.9968,2.9968,2.9924,2.9858,2.9852,2.9748,2.9614,2.9592,2.9547,2.9438,2.9006,2.8788,2.8686,2.8019,2.7375,2.6901,2.6591,2.6149,2.5603,2.5413,2.5215,2.5017,2.5107,2.5188,2.5266,2.5416,2.5549,2.5712,2.5879,2.6061,2.624,2.6365,2.6521,2.6842,2.7292,2.7572,2.7667,2.8631,2.9363,2.9636,3.0348,3.1095,3.1818,3.2105,3.243,3.2929,3.3091,3.3135,3.3262,3.3524,3.3677,3.3777,3.4443,3.4971,3.5294,3.5688,3.622,3.6874,3.695,3.6916,3.7251,3.7223,3.7066,3.6766,3.6719,3.6599,3.6289,3.6101,3.6014,3.5817,3.5711,3.5616,3.5514,3.5377,3.5222,3.5152,3.5065,3.5041,3.5034,3.5018,3.5001,3.5058,3.5018,3.4994,3.4994,3.5018,3.4994,3.5018,3.5105,3.5208,3.5205,3.5308,3.5431,3.4875,3.4859,3.4739,3.4691,3.4691,3.457,3.4497,3.4505,3.4456,3.4431,3.4439,3.4374,3.3973,3.3228,3.2662,3.1941,3.1297,3.1215,3.0855,3.0282,3.0233,3.0184,3.0189,3.0189,3.0184,3.0141,3.0124,3.0038,2.9788,2.9788,2.9694,2.9518,2.9461,2.9438,2.9349,2.8794,2.8469,2.8318,2.7819,2.7231,2.672,2.6665,2.628,2.5609,2.5413,2.5476,2.5645,2.5682,2.5775,2.5974,2.6115,2.6258,2.64,2.659,2.6892,2.7237,2.7921,2.848,2.8852,2.9595,3.0392,3.1217,3.1502,3.1987,3.2711,3.2896,3.3009,3.3262,3.3334,3.3367,3.3436,3.4021,3.4446,3.4591,3.5261,3.6019,3.6723,3.6681,3.7067,3.7593,3.7613,3.7434,3.7336,3.7297,3.7085,3.6826,3.6702,3.6599,3.6331,3.6204,3.6079,3.5905,3.5795,3.5728,3.556,3.5446,3.54,3.5314,3.5268,3.5268,3.5268,3.5308,3.5268,3.5268,3.5222,3.5222,3.5268,3.5268,3.5251,3.5285,3.5425,3.5488,3.5744,3.5438,3.5759,3.4899,3.4899,3.4851,3.4828,3.4828,3.4763,3.4739,3.4763,3.4739,3.4739,3.4756,3.4756,3.4591,3.4343,3.4119,3.3268,3.2079,3.1997,3.1597,3.0981,3.0915,3.0647,3.0222,3.0227,3.0227,3.0227,3.0227,3.0146,3.0081,3.006,3.0017,2.9951,2.9946,2.9946,2.9919,2.9724,2.9371,2.8958,2.8665,2.827,2.7735,2.7692,2.7583,2.7344,2.6339,2.5809,2.5901,2.6028,2.6137,2.6243,2.6435,2.6589,2.6759,2.7401,2.7856,2.8104,2.894,2.9538,2.9736,3.0545,3.1217,3.1642,3.2219,3.2637,3.2983,3.3168,3.3262,3.3382,3.3858,3.4108,3.4181,3.4431,3.4808,3.5351,3.6073,3.6687,3.698,3.7297,3.7628,3.7792,3.7667,3.7448,3.7334,3.7222,3.7068,3.6846,3.6742,3.6602,3.6419,3.6289,3.6165,3.6075,3.5993,3.5888,3.5839,3.5611,3.5469,3.5406,3.536,3.5314,3.5331,3.5337,3.5337,3.536,3.5377,3.545,3.5507,3.5692,3.5641,3.5773,3.5874,3.6303,3.6457,3.6524,3.6994,3.4899,3.4899,3.4899,3.4899,3.4899,3.4899,3.4899,3.4899,3.4899,3.4923,3.4947,3.497,3.4994,3.5018,3.5041,3.4466,3.3344,3.3011,3.2455,3.178,3.1764,3.1369,3.0761,3.07,3.0573,3.0413,3.0417,3.0401,3.0359,3.0375,3.0354,3.0295,3.0295,3.0295,3.0312,3.0312,3.0053,2.9679,2.9601,2.9332,2.8826,2.8749,2.8693,2.8509,2.7549,2.6859,2.6589,2.6681,2.6804,2.6926,2.708,2.7368,2.7826,2.8488,2.8929,2.9112,2.9969,3.0552,3.072,3.1481,3.2068,3.2176,3.2719,3.3137,3.3214,3.3521,3.3725,3.3951,3.4543,3.5099,3.539,3.5447,3.5634,3.6182,3.6904,3.7375,3.7377,3.7696,3.7809,3.7757,3.7613,3.7447,3.7316,3.7222,3.7068,3.6831,3.6748,3.6684,3.6523,3.6398,3.6251,3.626,3.638,3.6434,3.6551,3.6576,3.6079,3.5955,3.5791,3.5649,3.562,3.5587,3.557,3.5542,3.5582,3.5672,3.5846,3.6083,3.6236,3.6407,3.6825,3.7313,3.7541,3.786,3.8242,3.4899,3.4899,3.4899,3.4923,3.4923,3.4923,3.4923,3.4947,3.4939,3.4994,3.5105,3.5088,3.5175,3.5268,3.5245,3.5218,3.4914,3.4187,3.3415,3.2752,3.2718,3.2315,3.1653,3.1705,3.1399,3.0804,3.0827,3.081,3.0688,3.0671,3.0609,3.051,3.051,3.0526,3.051,3.0547,3.0572,3.0571,3.0575,3.0376,2.9986,2.9905,2.9694,2.9233,2.9083,2.8691,2.7837,2.7752,2.7824,2.7998,2.8066,2.8612,2.9365,2.979,2.9955,3.0192,3.0922,3.1487,3.1731,3.24,3.2836,3.2978,3.3211,3.3325,3.3628,3.4171,3.4611,3.4856,3.5505,3.6234,3.6856,3.6991,3.7001,3.7084,3.7647,3.8046,3.8085,3.8003,3.7828,3.7667,3.7595,3.7521,3.7353,3.7278,3.7145,3.6911,3.6896,3.6923,3.6811,3.6818,3.6575,3.6569,3.6973,3.7369,3.7528,3.7615,3.7057,3.6573,3.6355,3.6209,3.6339,3.6373,3.6418,3.6424,3.6486,3.6593,3.6876,3.7137,3.7518,3.7729,3.8094,3.8317,3.8568,3.8831,3.9204,3.4899,3.4899,3.4899,3.4947,3.5018,3.5041,3.5065,3.5175,3.5158,3.5198,3.5222,3.5245,3.5268,3.5308,3.5308,3.5308,3.5274,3.4954,3.4447,3.3812,3.3729,3.3345,3.276,3.267,3.2319,3.16,3.1089,3.0892,3.0868,3.0868,3.0831,3.0773,3.0773,3.0794,3.0818,3.0855,3.0915,3.1015,3.1052,3.0943,3.0859,3.0936,3.0912,3.0818,3.0876,3.0588,2.9867,2.9213,2.899,2.9162,2.9178,2.945,2.9977,3.0596,3.099,3.1206,3.1957,3.2464,3.2608,3.2847,3.3119,3.3274,3.3352,3.3731,3.4248,3.4634,3.5067,3.5589,3.634,3.6978,3.72,3.771,3.7899,3.7911,3.8097,3.8209,3.8175,3.8021,3.7846,3.7685,3.7631,3.7539,3.741,3.7334,3.7291,3.7171,3.7366,3.7595,3.7585,3.7833,3.8191,3.8192,3.843,3.8382,3.8461,3.8596,3.8389,3.7841,3.7444,3.7024,3.7109,3.716,3.7246,3.7359,3.7421,3.7632,3.7917,3.8271,3.8648,3.882,3.8986,3.9232,3.9501,3.9829,4.0186,3.4906,3.497,3.497,3.5041,3.5175,3.5175,3.5222,3.5308,3.5308,3.5314,3.536,3.536,3.5406,3.5475,3.5498,3.552,3.5549,3.5571,3.5296,3.4869,3.4639,3.4231,3.3609,3.3359,3.3119,3.2684,3.2195,3.1807,3.1536,3.1536,3.1401,3.1162,3.1131,3.1151,3.1173,3.1196,3.1254,3.1349,3.1387,3.1464,3.1524,3.16,3.1691,3.1802,3.1911,3.1776,3.1394,3.0855,3.0421,3.035,3.0522,3.0847,3.1129,3.165,3.2012,3.2212,3.261,3.3008,3.3137,3.3196,3.3286,3.3473,3.3735,3.4138,3.4819,3.5232,3.605,3.6522,3.729,3.7765,3.7838,3.8099,3.8415,3.8403,3.8289,3.8207,3.814,3.8003,3.7864,3.7721,3.7613,3.754,3.7429,3.771,3.7667,3.7674,3.8136,3.8502,3.8531,3.8744,3.8963,3.9164,3.9221,3.9229,3.9311,3.9475,3.9661,3.9231,3.8745,3.8237,3.7946,3.7946,3.7997,3.827,3.8407,3.8767,3.9077,3.9457,3.9796,3.9842,3.987,4.0181,4.048,4.0789,4.1079,3.4994,3.5088,3.5111,3.5182,3.5291,3.5331,3.5314,3.5354,3.5337,3.5429,3.5498,3.556,3.5633,3.5773,3.5773,3.5839,3.5971,3.5954,3.5915,3.5759,3.5498,3.5026,3.4508,3.402,3.3768,3.3799,3.3649,3.3294,3.2656,3.2642,3.2303,3.1703,3.1669,3.1534,3.1536,3.1596,3.1617,3.1654,3.1746,3.182,3.1895,3.193,3.202,3.2179,3.2232,3.2283,3.235,3.2278,3.1964,3.1442,3.1928,3.2377,3.2718,3.2868,3.286,3.2921,3.307,3.3211,3.3364,3.3393,3.3539,3.3796,3.4316,3.494,3.5345,3.6399,3.7201,3.7521,3.8145,3.8585,3.8566,3.8556,3.851,3.8478,3.837,3.8223,3.8053,3.7968,3.7863,3.7757,3.7667,3.7612,3.759,3.8158,3.8364,3.86,3.9068,3.9353,3.9368,3.9445,3.9311,3.9582,4.0049,4.011,4.0205,4.0304,4.0473,4.0203,3.9807,3.9445,3.9043,3.9026,3.9066,3.9318,3.9443,3.9822,4.0122,4.0394,4.0643,4.0706,4.0873,4.1157,4.1323,4.1498,4.1587,3.5128,3.5245,3.5245,3.5314,3.5446,3.5446,3.5475,3.5509,3.5616,3.5678,3.5745,3.5839,3.5883,3.5949,3.5954,3.5975,3.6019,3.6019,3.6079,3.6122,3.6036,3.5859,3.5479,3.4891,3.4575,3.4582,3.4257,3.3779,3.3591,3.367,3.3311,3.2552,3.2534,3.228,3.1887,3.1855,3.1912,3.2037,3.2073,3.2126,3.2197,3.2284,3.237,3.2404,3.2574,3.2658,3.2724,3.2821,3.2734,3.2426,3.2645,3.2884,3.2965,3.3008,3.3119,3.3259,3.3319,3.3393,3.3506,3.3567,3.3846,3.4493,3.4855,3.5447,3.6747,3.7187,3.7756,3.8212,3.8634,3.8707,3.8707,3.8658,3.8609,3.851,3.8403,3.8274,3.8157,3.8036,3.7933,3.7846,3.7775,3.7935,3.8361,3.8605,3.892,3.9374,3.9952,4.0418,4.0306,4.0563,4.0664,4.0841,4.1147,4.1098,4.1124,4.1206,4.1213,4.1035,4.0827,4.0723,4.0464,4.0423,4.0521,4.0694,4.0428,4.0629,4.0786,4.1012,4.1237,4.1386,4.1431,4.1498,4.1626,4.178,4.1841,3.5268,3.5383,3.54,3.5492,3.5611,3.5633,3.5684,3.5739,3.5844,3.5883,3.5905,3.5954,3.6062,3.6127,3.6148,3.6191,3.6293,3.6276,3.6353,3.6395,3.6395,3.6335,3.6134,3.5773,3.5656,3.5621,3.5255,3.4895,3.4656,3.4664,3.425,3.3679,3.3561,3.3199,3.2611,3.2632,3.2494,3.2371,3.2353,3.2404,3.2523,3.2574,3.2657,3.2706,3.2838,3.2902,3.2997,3.3106,3.3091,3.2979,3.2995,3.3088,3.3183,3.3214,3.3301,3.3481,3.3495,3.3534,3.3692,3.3917,3.4365,3.4971,3.5457,3.6439,3.7312,3.7768,3.8285,3.8597,3.8689,3.8707,3.8707,3.8707,3.8643,3.851,3.8417,3.8305,3.8259,3.8087,3.8182,3.8293,3.8349,3.8491,3.9258,3.9484,3.9834,4.0308,4.0905,4.1159,4.1266,4.169,4.188,4.1776,4.1732,4.16,4.1543,4.1591,4.1604,4.148,4.1436,4.1413,4.13,4.1277,4.1225,4.119,4.126,4.1318,4.1386,4.1453,4.1542,4.167,4.1732,4.1776,4.1884,4.2034,4.2094,3.5383,3.5514,3.5537,3.5633,3.5795,3.5817,3.5883,3.5975,3.6019,3.6041,3.6041,3.6062,3.6212,3.6322,3.636,3.6482,3.6664,3.6643,3.6705,3.6725,3.6745,3.6687,3.6612,3.6536,3.6525,3.6545,3.6708,3.6275,3.5804,3.5702,3.5283,3.4763,3.4647,3.4263,3.3739,3.3723,3.3388,3.2892,3.2888,3.283,3.2841,3.282,3.2886,3.2979,3.3057,3.3168,3.3274,3.3364,3.3334,3.318,3.3165,3.3256,3.3408,3.3408,3.3481,3.365,3.3751,3.3866,3.3973,3.4641,3.5168,3.5595,3.6707,3.7547,3.7786,3.8248,3.8615,3.8689,3.8707,3.8707,3.8707,3.8707,3.8658,3.858,3.8519,3.8532,3.8432,3.8264,3.8416,3.9084,3.9049,3.9461,4.0103,4.0688,4.1089,4.1118,4.1591,4.1671,4.175,4.1867,4.197,4.1945,4.1923,4.1945,4.1927,4.1945,4.1923,4.1862,4.1819,4.1754,4.1538,4.1475,4.1431,4.1453,4.156,4.1648,4.1714,4.1797,4.1841,4.1884,4.1927,4.1987,4.2051,4.2222,4.2325,3.5583,3.5728,3.5728,3.5817,3.5932,3.5954,3.5975,3.6019,3.6191,3.6255,3.6297,3.644,3.6561,3.6602,3.6606,3.6643,3.6725,3.6786,3.6869,3.7011,3.7143,3.7143,3.7066,3.6928,3.6849,3.6928,3.6989,3.6886,3.6747,3.6682,3.6529,3.5823,3.57,3.5401,3.4783,3.473,3.4443,3.3872,3.3828,3.3605,3.3241,3.3201,3.3265,3.3358,3.346,3.3473,3.3524,3.3549,3.3534,3.3506,3.3564,3.3702,3.3658,3.3621,3.3715,3.3953,3.4379,3.4664,3.4852,3.5504,3.627,3.6798,3.7235,3.7768,3.8395,3.8542,3.8707,3.8707,3.8707,3.8707,3.8707,3.8707,3.8728,3.8774,3.9045,3.9294,3.9317,3.9183,3.9172,3.9355,3.9806,4.0327,4.093,4.1126,4.1511,4.1912,4.2065,4.2169,4.2142,4.2079,4.2076,4.2072,4.2051,4.2072,4.2072,4.2072,4.2072,4.2072,4.2072,4.2051,4.1841,4.1736,4.1736,4.178,4.188,4.1945,4.1927,4.197,4.1987,4.2051,4.2118,4.2181,4.2284,4.243,4.255,3.5728,3.5905,3.5905,3.5971,3.6101,3.6127,3.6191,3.6255,3.6419,3.6502,3.6523,3.6661,3.6745,3.6846,3.6846,3.6886,3.6985,3.7007,3.7087,3.7185,3.7298,3.7373,3.7447,3.7298,3.7204,3.7164,3.7164,3.7204,3.7242,3.7281,3.7106,3.6861,3.6808,3.647,3.5883,3.581,3.5466,3.4926,3.4846,3.4693,3.4413,3.4406,3.4449,3.4543,3.4633,3.4703,3.4816,3.4812,3.4826,3.4836,3.4832,3.4635,3.4278,3.426,3.4434,3.4948,3.5255,3.5563,3.5793,3.6358,3.7033,3.7474,3.7823,3.823,3.8597,3.8707,3.8707,3.8707,3.8707,3.8707,3.8707,3.8707,3.8817,3.9245,3.9481,3.9748,4.0045,4.0034,4.0094,4.0293,4.0745,4.1284,4.1677,4.176,4.1879,4.2244,4.218,4.2246,4.2246,4.2205,4.2184,4.2181,4.216,4.216,4.216,4.216,4.2181,4.2181,4.2181,4.2181,4.21,4.2076,4.2076,4.2072,4.203,4.203,4.2012,4.2072,4.2178,4.2282,4.2346,4.2409,4.2492,4.2611,4.2709,3.5905,3.6019,3.6041,3.6122,3.6268,3.6356,3.6423,3.6523,3.6681,3.6705,3.6763,3.6745,3.6888,3.6989,3.7046,3.718,3.7297,3.7334,3.7354,3.7447,3.7485,3.7558,3.7613,3.7631,3.7577,3.741,3.7411,3.7448,3.7485,3.7485,3.7505,3.7595,3.7685,3.7327,3.6931,3.6873,3.6546,3.591,3.5867,3.5768,3.5649,3.5693,3.5751,3.5823,3.5849,3.5875,3.5915,3.5981,3.6123,3.6309,3.6328,3.5968,3.5559,3.5205,3.5384,3.6211,3.6321,3.645,3.6615,3.718,3.7713,3.7728,3.8279,3.8646,3.8735,3.8719,3.8719,3.8723,3.8723,3.8707,3.8707,3.8946,3.9258,3.9719,3.9865,4.0331,4.0773,4.0906,4.127,4.1379,4.1631,4.2063,4.233,4.2469,4.2514,4.2486,4.2407,4.2346,4.2328,4.2308,4.2287,4.2246,4.2243,4.2282,4.2302,4.2302,4.2305,4.2325,4.2346,4.2346,4.2328,4.2328,4.2287,4.2157,4.2115,4.2118,4.2202,4.2284,4.2387,4.2506,4.2566,4.2607,4.2707,4.2805,4.2881,3.6041,3.6165,3.6233,3.6339,3.6461,3.6582,3.6643,3.6681,3.6768,3.6849,3.6948,3.7009,3.7106,3.7203,3.7239,3.7372,3.7521,3.7558,3.7631,3.7739,3.7775,3.781,3.7828,3.7881,3.7863,3.7863,3.781,3.7793,3.7811,3.7828,3.7828,3.7863,3.7933,3.7804,3.7784,3.7885,3.7535,3.6951,3.6887,3.6731,3.6361,3.6264,3.6358,3.6479,3.6574,3.6577,3.6537,3.6491,3.6464,3.6459,3.6464,3.6745,3.6905,3.6507,3.6317,3.6538,3.7048,3.732,3.7448,3.7988,3.8441,3.8596,3.8703,3.8788,3.884,3.8825,3.8777,3.8765,3.8753,3.8707,3.8726,3.9239,3.9698,4.0178,4.0921,4.1606,4.1847,4.2105,4.2159,4.1977,4.2301,4.2608,4.2714,4.2763,4.2685,4.2606,4.2508,4.2447,4.2447,4.2407,4.2328,4.2308,4.2287,4.2384,4.2443,4.2463,4.2465,4.247,4.249,4.249,4.251,4.2532,4.247,4.2325,4.2323,4.2364,4.2427,4.247,4.253,4.2627,4.2706,4.2783,4.288,4.2975,4.3087,3.6251,3.6374,3.6461,3.6544,3.6623,3.6786,3.6849,3.6886,3.7007,3.7068,3.7126,3.7184,3.7278,3.7353,3.7447,3.7576,3.7721,3.7757,3.7811,3.7899,3.7968,3.8002,3.8037,3.8105,3.8171,3.8186,3.8171,3.8122,3.8124,3.8106,3.8105,3.8172,3.8204,3.8203,3.8219,3.8249,3.8168,3.7833,3.7875,3.779,3.7451,3.7426,3.7537,3.7614,3.7638,3.7704,3.7747,3.7761,3.7747,3.7765,3.7747,3.795,3.8046,3.7929,3.7614,3.7683,3.796,3.8217,3.8236,3.8626,3.8766,3.8815,3.8866,3.8866,3.8896,3.8866,3.8851,3.8825,3.8814,3.8918,3.931,3.9751,4.0249,4.1058,4.1835,4.228,4.2595,4.2905,4.2686,4.2339,4.2592,4.2791,4.2826,4.2822,4.2764,4.2686,4.2589,4.2568,4.2566,4.2488,4.243,4.243,4.243,4.245,4.2546,4.2566,4.2606,4.2647,4.2668,4.2668,4.2668,4.267,4.2609,4.249,4.2528,4.2607,4.2588,4.2609,4.2688,4.2765,4.2879,4.2974,4.305,4.3142,4.3233,3.6461,3.6544,3.6705,3.6745,3.6786,3.6968,3.7066,3.7105,3.722,3.7316,3.7353,3.7353,3.7428,3.7503,3.7631,3.7775,3.7916,3.7933,3.7968,3.8054,3.8103,3.8152,3.8201,3.8283,3.8382,3.8382,3.8451,3.8419,3.8305,3.8289,3.8352,3.8366,3.8415,3.8462,3.8478,3.8528,3.8525,3.8606,3.8686,3.878,3.8822,3.8862,3.8925,3.8925,3.8906,3.8828,3.8746,3.8761,3.8761,3.8779,3.882,3.8876,3.8917,3.8935,3.8935,3.8935,3.8906,3.891,3.8892,3.8859,3.8896,3.8906,3.8906,3.8921,3.8954,3.8972,3.8984,3.9036,3.9116,3.9455,4.0055,4.0354,4.1018,4.1792,4.2328,4.2644,4.2958,4.3178,4.3087,4.2922,4.2975,4.2937,4.2918,4.2862,4.2823,4.2803,4.2707,4.2686,4.2647,4.2607,4.255,4.257,4.257,4.2589,4.2629,4.2667,4.2725,4.2821,4.2841,4.2823,4.2804,4.2786,4.2746,4.2746,4.2785,4.2842,4.2785,4.2785,4.2899,4.2994,4.3068,4.316,4.3251,4.3304,4.3393,3.6681,3.6702,3.6886,3.6968,3.6987,3.7164,3.7259,3.7259,3.7297,3.741,3.7576,3.7576,3.7667,3.7793,3.7828,3.7933,3.8035,3.8086,3.8153,3.8252,3.8352,3.8366,3.8366,3.8366,3.8478,3.8525,3.8624,3.8546,3.8465,3.8433,3.8449,3.851,3.8606,3.8689,3.8698,3.8743,3.8848,3.8848,3.8881,3.8896,3.8925,3.8906,3.8968,3.8979,3.9007,3.9036,3.9092,3.9092,3.9073,3.9073,3.9073,3.9073,3.9073,3.9073,3.9073,3.9031,3.8979,3.891,3.8925,3.8939,3.8935,3.8979,3.8979,3.9021,3.9165,3.9211,3.9375,3.9944,3.9963,4.0305,4.0999,4.1646,4.2112,4.2466,4.2892,4.3098,4.3376,4.3305,4.3215,4.3142,4.305,4.2994,4.2957,4.2919,4.2863,4.2862,4.2842,4.2803,4.2764,4.2727,4.2707,4.2727,4.2765,4.2786,4.2805,4.2823,4.2861,4.2992,4.2974,4.2975,4.2975,4.2975,4.3068,4.3068,4.3087,4.305,4.3013,4.3031,4.3142,4.3178,4.3214,4.3322,4.3445,4.3515,4.3549,3.6985,3.6886,3.6989,3.7106,3.7182,3.7298,3.7392,3.7448,3.7503,3.7631,3.7757,3.7775,3.7863,3.7984,3.8019,3.8103,3.8252,3.8303,3.8318,3.8469,3.8551,3.858,3.8593,3.8637,3.8713,3.8713,3.8758,3.8792,3.8698,3.8683,3.8713,3.8728,3.8773,3.8822,3.8881,3.8877,3.8935,3.9021,3.9124,3.9166,3.9184,3.9184,3.9198,3.9225,3.9225,3.9253,3.9248,3.9275,3.9275,3.9261,3.9215,3.9156,3.9142,3.9129,3.9101,3.9101,3.9045,3.9017,3.9036,3.9003,3.9017,3.905,3.9101,3.9263,3.9626,3.9853,4.0092,4.0814,4.0907,4.1249,4.1812,4.2295,4.2673,4.2993,4.3309,4.3351,4.3446,4.3412,4.3341,4.3233,4.316,4.3105,4.3031,4.2975,4.2939,4.2938,4.2918,4.2899,4.2918,4.2918,4.2918,4.2899,4.2956,4.2994,4.3031,4.305,4.3031,4.3105,4.3105,4.3123,4.316,4.3196,4.3269,4.3304,4.3286,4.325,4.3232,4.3232,4.3269,4.3304,4.3357,4.3497,4.36,4.3669,4.3736,3.7239,3.7145,3.7184,3.726,3.7391,3.7448,3.7558,3.7685,3.7721,3.781,3.7916,3.7986,3.8088,3.8153,3.8221,3.8396,3.8761,3.8757,3.8953,3.9056,3.9059,3.9065,3.9056,3.9073,3.8896,3.8929,3.891,3.8925,3.895,3.895,3.8946,3.895,3.895,3.8997,3.9026,3.9068,3.911,3.9193,3.9307,3.9378,3.9378,3.9391,3.9391,3.9391,3.9405,3.9405,3.9405,3.9386,3.9405,3.936,3.9301,3.9275,3.9261,3.9248,3.9202,3.9202,3.9188,3.9175,3.9161,3.9147,3.9115,3.9157,3.9454,3.9863,4.055,4.0717,4.1018,4.1742,4.1816,4.2211,4.2704,4.2966,4.3141,4.3406,4.3614,4.3566,4.3516,4.3498,4.3446,4.3376,4.3286,4.3214,4.3142,4.305,4.3013,4.2994,4.2975,4.2975,4.3012,4.3068,4.3086,4.3068,4.3087,4.3123,4.3142,4.3178,4.3214,4.325,4.3268,4.3322,4.3375,4.341,4.3445,4.3463,4.348,4.3497,4.3497,4.3445,4.3375,4.3497,4.3583,4.3669,4.3753,4.382,4.3902,3.741,3.754,3.7429,3.7466,3.7594,3.7649,3.7757,3.7953,3.7935,3.8041,3.8288,3.828,3.8523,3.8514,3.8729,3.9069,3.9717,3.9761,4.0155,4.0399,4.0385,4.0062,3.9871,3.9534,3.9143,3.9157,3.9363,3.936,3.9161,3.9407,3.9259,3.9101,3.9157,3.9239,3.928,3.9293,3.9307,3.936,3.9399,3.9431,3.9431,3.9431,3.9431,3.9418,3.9418,3.9405,3.9405,3.9431,3.9431,3.9431,3.9386,3.9373,3.936,3.9496,3.952,3.9538,3.9706,3.9725,3.973,3.9495,3.924,3.9361,3.9858,4.0667,4.1448,4.153,4.1924,4.259,4.2753,4.3042,4.35,4.3807,4.3717,4.3724,4.3786,4.3719,4.3669,4.3617,4.3566,4.3497,4.3428,4.3393,4.3375,4.3322,4.3142,4.3142,4.3105,4.3105,4.3142,4.3178,4.3196,4.3196,4.3214,4.3214,4.3214,4.3286,4.3393,4.3463,4.348,4.3584,4.3688,4.3686,4.36,4.3669,4.3669,4.3738,4.3788,4.3736,4.3719,4.3736,4.3804,4.3818,4.3883,4.3947,4.4045,3.7649,3.7775,3.7721,3.7757,3.7775,3.781,3.8151,3.8653,3.8795,3.9206,3.967,3.9827,3.9928,3.9989,4.0075,4.0304,4.0764,4.083,4.1101,4.1151,4.1046,4.0981,4.0807,4.0752,4.0643,4.055,4.064,4.0719,4.078,4.0285,4.0106,3.9962,3.9656,3.9357,3.9405,3.95,3.9513,3.952,3.9527,3.9552,3.9514,3.9514,3.9514,3.9533,3.9533,3.9533,3.9514,3.9514,3.9514,3.9558,3.9557,3.96,3.97,3.9954,4.0128,4.0208,4.0483,4.0707,4.0651,4.0378,4.0239,4.0742,4.1134,4.1586,4.2354,4.2443,4.2909,4.3409,4.3674,4.3815,4.4016,4.4085,4.4023,4.3963,4.3899,4.3886,4.3818,4.3769,4.3701,4.3634,4.3652,4.3635,4.3618,4.3584,4.3429,4.3251,4.3233,4.3233,4.3269,4.3322,4.3358,4.3393,4.3393,4.3463,4.3463,4.3533,4.3584,4.3635,4.3667,4.3753,4.3853,4.3788,4.3736,4.3804,4.3869,4.3867,4.3915,4.3998,4.3998,4.3934,4.3899,4.3931,4.3976,4.407,4.4165,3.7828,3.7916,3.7951,3.7951,3.7969,3.8221,3.8705,3.928,3.9675,4.0193,4.0873,4.0891,4.1009,4.1142,4.1172,4.1404,4.1643,4.1782,4.198,4.2063,4.2106,4.1984,4.1898,4.1733,4.1455,4.174,4.1768,4.1703,4.1618,4.1207,4.1065,4.0868,4.0506,4.0143,3.9538,3.9757,3.9871,3.9902,4.019,4.029,4.0347,4.0384,4.0403,4.044,4.0465,4.0465,4.0503,4.0522,4.0484,4.0471,4.0408,4.0326,4.0463,4.0662,4.0972,4.1215,4.1477,4.1884,4.1702,4.1455,4.1348,4.1913,4.2081,4.2585,4.3123,4.3384,4.3691,4.4061,4.4248,4.4318,4.4318,4.4226,4.4195,4.4101,4.4089,4.4058,4.3979,4.3915,4.3867,4.3818,4.3802,4.3771,4.3754,4.3721,4.3652,4.3533,4.3516,4.3498,4.3498,4.3533,4.3532,4.3584,4.3618,4.3704,4.3771,4.3754,4.3719,4.3767,4.3816,4.3865,4.3915,4.3883,4.3915,4.4026,4.4058,4.4008,4.4073,4.4153,4.4107,4.4026,4.4042,4.4073,4.4101,4.4195,4.4237,3.7933,3.8019,3.8086,3.8069,3.8198,3.8972,3.9439,3.9815,4.0554,4.1054,4.1332,4.133,4.1411,4.1575,4.1773,4.2115,4.2585,4.277,4.3058,4.3385,4.3122,4.2972,4.2758,4.2473,4.2319,4.1922,4.2137,4.2314,4.2117,4.1967,4.1951,4.1884,4.1616,4.1034,3.984,4.0403,4.0741,4.0872,4.1492,4.1636,4.1655,4.1612,4.1593,4.1574,4.1561,4.1486,4.1467,4.1473,4.1436,4.146,4.1498,4.1503,4.1584,4.1804,4.1959,4.2015,4.2109,4.2179,4.2053,4.1884,4.2324,4.2904,4.3067,4.3371,4.3997,4.4221,4.4142,4.4358,4.4329,4.4314,4.43,4.43,4.4266,4.4252,4.4222,4.4195,4.4119,4.4073,4.4026,4.3992,4.3883,4.382,4.382,4.382,4.3818,4.3786,4.3788,4.3771,4.3703,4.3703,4.3703,4.3751,4.3783,4.3867,4.3934,4.3869,4.3851,4.3915,4.3961,4.4042,4.4104,4.4119,4.418,4.4222,4.4226,4.4165,4.4226,4.4304,4.4255,4.424,4.4226,4.4255,4.4285,4.43,4.4325,3.8119,3.8269,3.8302,3.8594,3.9069,3.9395,4.0102,4.1227,4.2132,4.2688,4.284,4.2892,4.2941,4.3035,4.3039,4.3234,4.3571,4.374,4.4099,4.4114,4.3893,4.3911,4.3716,4.3535,4.34,4.3526,4.3554,4.3451,4.3685,4.3103,4.2854,4.2806,4.247,4.1781,4.1405,4.1555,4.1669,4.1701,4.1971,4.2109,4.2146,4.2184,4.2222,4.2228,4.2208,4.2233,4.2239,4.2269,4.2224,4.2224,4.223,4.2192,4.2286,4.2474,4.2844,4.3013,4.32,4.3675,4.3656,4.3652,4.3694,4.3901,4.3943,4.4037,4.4393,4.443,4.443,4.4411,4.4416,4.4416,4.4444,4.4383,4.4354,4.434,4.431,4.4285,4.4226,4.4207,4.4192,4.4177,4.4135,4.4104,4.4089,4.4026,4.4011,4.3979,4.3947,4.3867,4.3802,4.3786,4.3786,4.3862,4.3942,4.4023,4.4073,4.4026,4.4042,4.4119,4.4165,4.4211,4.427,4.4329,4.4314,4.4325,4.4314,4.4318,4.4358,4.4416,4.4458,4.4458,4.4416,4.4387,4.4401,4.4397,4.4411,3.8285,3.8399,3.8499,3.9136,4.0032,4.0108,4.102,4.2496,4.3293,4.3703,4.3765,4.3832,4.3876,4.3955,4.4089,4.4131,4.4244,4.43,4.431,4.4344,4.4354,4.4312,4.4345,4.4397,4.4219,4.4458,4.4473,4.4426,4.4313,4.3919,4.3758,4.3611,4.3237,4.3137,4.293,4.283,4.2592,4.2718,4.2957,4.3228,4.3209,4.3171,4.3133,4.3139,4.3133,4.3082,4.3019,4.2942,4.287,4.2838,4.2825,4.2844,4.305,4.3313,4.3707,4.3933,4.4102,4.4458,4.4416,4.4411,4.4354,4.4452,4.4524,4.4482,4.4482,4.4487,4.4487,4.4482,4.4496,4.4515,4.4501,4.444,4.444,4.4426,4.4411,4.4368,4.4325,4.4325,4.431,4.431,4.4329,4.4314,4.4329,4.4304,4.4226,4.418,4.4119,4.4026,4.3947,4.3947,4.3945,4.402,4.4097,4.4162,4.4226,4.4226,4.4255,4.4329,4.4358,4.4373,4.4444,4.4482,4.444,4.4426,4.4468,4.4496,4.4501,4.4528,4.4578,4.4578,4.4537,4.4524,4.451,4.451,4.4537,3.8417,3.8449,3.8627,3.9622,4.0944,4.1134,4.2103,4.356,4.3718,4.3835,4.3913,4.4008,4.407,4.418,4.4274,4.4285,4.4314,4.4387,4.4383,4.4411,4.4426,4.4473,4.4487,4.4468,4.4487,4.4482,4.4515,4.4515,4.4496,4.4368,4.4377,4.4493,4.4314,4.4246,4.4076,4.3838,4.3548,4.3681,4.3945,4.4165,4.4197,4.436,4.4279,4.426,4.4253,4.4259,4.4252,4.425,4.4285,4.4315,4.4349,4.4392,4.4453,4.4477,4.4496,4.4496,4.4491,4.4532,4.4592,4.4605,4.4619,4.4646,4.4578,4.4524,4.451,4.4537,4.4551,4.4556,4.4556,4.4542,4.4528,4.451,4.451,4.451,4.451,4.4482,4.444,4.4426,4.4397,4.4383,4.4387,4.4387,4.4401,4.4387,4.443,4.4401,4.434,4.4325,4.4266,4.4192,4.4207,4.4237,4.4281,4.4296,4.4358,4.4401,4.443,4.4487,4.4501,4.451,4.4578,4.4619,4.4592,4.4592,4.4672,4.4685,4.4672,4.4685,4.4725,4.4712,4.4706,4.464,4.4627,4.4659,4.4672,3.864,3.8683,3.8807,3.9758,4.1301,4.258,4.3426,4.3795,4.3913,4.3992,4.4123,4.4195,4.4207,4.427,4.4344,4.4373,4.4401,4.4444,4.4473,4.4487,4.4482,4.4482,4.4496,4.4515,4.4496,4.4515,4.4528,4.4542,4.4578,4.4605,4.4646,4.4648,4.4751,4.4757,4.4688,4.4562,4.4436,4.4417,4.4663,4.4752,4.4821,4.4821,4.4821,4.4808,4.4783,4.4789,4.4764,4.4712,4.4685,4.4659,4.4659,4.4646,4.4646,4.4646,4.4627,4.4646,4.4627,4.464,4.4672,4.4672,4.4685,4.4693,4.4653,4.4659,4.4646,4.4632,4.4632,4.4619,4.4638,4.4605,4.4605,4.4605,4.4605,4.4605,4.4605,4.4592,4.4565,4.4551,4.4537,4.4524,4.4528,4.451,4.4524,4.4551,4.4592,4.4592,4.4578,4.4578,4.4537,4.4454,4.4411,4.4426,4.4454,4.4468,4.4537,4.4605,4.4605,4.4619,4.4646,4.4659,4.4699,4.4725,4.4712,4.4751,4.4783,4.4808,4.4821,4.4846,4.4877,4.4938,4.4919,4.4833,4.477,4.4783,4.4808,3.881,3.8851,3.8925,3.9922,4.1553,4.2976,4.3751,4.3999,4.4082,4.418,4.4244,4.43,4.4325,4.4358,4.4397,4.4426,4.4458,4.4487,4.4515,4.4556,4.4542,4.4565,4.4584,4.4565,4.4592,4.4597,4.4578,4.4605,4.4627,4.4699,4.4751,4.4732,4.4796,4.4821,4.4808,4.482,4.4839,4.482,4.4839,4.4883,4.4895,4.4895,4.4895,4.4883,4.4846,4.4833,4.484,4.4776,4.4751,4.4738,4.4738,4.4712,4.4699,4.4699,4.468,4.4699,4.4699,4.4693,4.4719,4.4732,4.4745,4.4776,4.477,4.4789,4.4764,4.4738,4.4712,4.4685,4.4699,4.4699,4.4699,4.4712,4.4699,4.4699,4.4699,4.4699,4.4699,4.4699,4.4699,4.4699,4.4685,4.4685,4.4699,4.4738,4.4751,4.4738,4.4732,4.4745,4.4693,4.4613,4.4592,4.4578,4.4605,4.4632,4.4712,4.4764,4.4764,4.4776,4.4827,4.484,4.484,4.4858,4.4914,4.4907,4.4907,4.4943,4.4991,4.501,4.5033,4.508,4.5084,4.5014,4.4955,4.4974,4.4967,3.8906,3.8939,3.9085,4.016,4.1721,4.2706,4.3538,4.4262,4.4281,4.4314,4.4329,4.4368,4.4397,4.4411,4.4468,4.4496,4.4528,4.4524,4.4565,4.4605,4.4605,4.4632,4.4672,4.4699,4.4672,4.4685,4.4699,4.4653,4.4706,4.4776,4.4815,4.4796,4.4858,4.4883,4.4883,4.4883,4.4883,4.4883,4.4883,4.4895,4.4895,4.4895,4.4895,4.4895,4.4883,4.4883,4.4889,4.4865,4.4796,4.4802,4.4776,4.4738,4.4738,4.4751,4.4738,4.4738,4.4751,4.4776,4.4783,4.4796,4.4833,4.4858,4.4895,4.4895,4.4877,4.4815,4.4789,4.4776,4.4776,4.4757,4.477,4.4783,4.4796,4.4827,4.484,4.484,4.4852,4.4852,4.4852,4.4852,4.4852,4.4852,4.4852,4.4889,4.4902,4.4858,4.487,4.4907,4.4883,4.4808,4.477,4.4764,4.4789,4.4815,4.4808,4.4858,4.4889,4.4926,4.4974,4.501,4.5022,4.5068,4.5114,4.5125,4.5095,4.5117,4.514,4.5181,4.5173,4.5173,4.5164,4.5173,4.5151,4.514,4.5148,3.9045,3.9133,3.9904,4.0831,4.1829,4.2754,4.3605,4.435,4.4444,4.443,4.4401,4.444,4.4468,4.4482,4.4551,4.4565,4.4578,4.4605,4.4659,4.4672,4.4685,4.4699,4.4712,4.4738,4.4725,4.4712,4.4712,4.4732,4.477,4.4833,4.487,4.487,4.4895,4.4895,4.4895,4.4895,4.4907,4.4907,4.4919,4.4919,4.4938,4.4895,4.4895,4.4895,4.4895,4.4895,4.4883,4.4883,4.487,4.4858,4.4858,4.4846,4.4846,4.4846,4.4846,4.4865,4.4852,4.4846,4.487,4.4883,4.4895,4.4907,4.4931,4.4955,4.4943,4.4902,4.4865,4.4846,4.4846,4.4846,4.4858,4.4883,4.4907,4.495,4.4962,4.4974,4.4998,4.4998,4.4998,4.4998,4.501,4.501,4.501,4.5022,4.5033,4.5045,4.5045,4.5057,4.5061,4.5014,4.4984,4.4979,4.4998,4.5022,4.4979,4.5003,4.5045,4.5068,4.5103,4.5136,4.517,4.5213,4.5246,4.5307,4.5328,4.5298,4.529,4.5321,4.5331,4.5291,4.5281,4.5281,4.5311,4.5311,4.532,3.9188,3.9298,3.9858,4.0795,4.1819,4.2449,4.3347,4.435,4.4524,4.4537,4.4537,4.4537,4.457,4.4578,4.4632,4.4646,4.4646,4.4667,4.4725,4.4738,4.4745,4.4776,4.4789,4.477,4.4815,4.4802,4.4802,4.4827,4.4833,4.4858,4.4895,4.4895,4.4895,4.4895,4.4895,4.4919,4.4943,4.4962,4.4955,4.4967,4.4974,4.4931,4.4895,4.4895,4.4895,4.4895,4.4895,4.4895,4.4895,4.4895,4.4883,4.4883,4.4883,4.4883,4.4907,4.4919,4.4931,4.4943,4.4986,4.4998,4.4967,4.501,4.5003,4.5038,4.5057,4.4998,4.4979,4.4979,4.4979,4.4979,4.4979,4.5003,4.5022,4.5033,4.5045,4.5057,4.5057,4.5057,4.508,4.5114,4.5125,4.5136,4.5159,4.5233,4.5243,4.5235,4.5254,4.5227,4.5227,4.5194,4.5164,4.5164,4.5173,4.5159,4.5125,4.5159,4.5243,4.5254,4.5224,4.5258,4.531,4.532,4.5351,4.5409,4.5419,4.54,4.541,4.5438,4.5419,4.5361,4.5381,4.5381,4.5438,4.5475,4.5466,3.9315,3.9431,3.9514,4.0457,4.182,4.201,4.3015,4.4436,4.4619,4.4659,4.468,4.4646,4.4672,4.4685,4.4725,4.4712,4.4725,4.4745,4.477,4.4796,4.4827,4.484,4.4858,4.4883,4.4889,4.4889,4.487,4.487,4.4883,4.4907,4.4919,4.4926,4.4938,4.4919,4.4931,4.4967,4.5003,4.5014,4.5038,4.5091,4.5057,4.4991,4.4955,4.4931,4.4919,4.4919,4.4919,4.4919,4.4919,4.4931,4.4943,4.4943,4.4943,4.4955,4.4967,4.4991,4.5003,4.5026,4.508,4.508,4.508,4.5103,4.5114,4.5125,4.5125,4.5148,4.5129,4.5129,4.5129,4.5084,4.5084,4.5117,4.5136,4.5148,4.5148,4.5159,4.5159,4.5159,4.5192,4.5235,4.5246,4.5267,4.5298,4.5379,4.5399,4.5409,4.5429,4.541,4.539,4.5331,4.5301,4.5301,4.533,4.5309,4.5256,4.5288,4.536,4.535,4.533,4.5371,4.5429,4.5457,4.5476,4.5466,4.5475,4.5485,4.5485,4.5512,4.5475,4.5457,4.5494,4.5519,4.5547,4.5582,4.5607,3.9476,3.9571,3.9583,4.056,4.1919,4.2077,4.3075,4.4516,4.4685,4.4725,4.4757,4.4757,4.4732,4.4712,4.4776,4.477,4.4783,4.4821,4.4846,4.487,4.4883,4.4895,4.4907,4.4931,4.4907,4.4907,4.4919,4.4914,4.4931,4.4986,4.4998,4.4986,4.5045,4.5057,4.5068,4.5091,4.5091,4.5103,4.5114,4.5148,4.5136,4.5084,4.5061,4.5068,4.5068,4.5068,4.5049,4.5068,4.5049,4.5049,4.5057,4.5057,4.5057,4.5026,4.5049,4.5091,4.5103,4.5125,4.5148,4.514,4.5151,4.5151,4.5184,4.5246,4.5277,4.53,4.5281,4.527,4.5239,4.5151,4.5159,4.5235,4.5256,4.5277,4.5269,4.531,4.5311,4.5311,4.5341,4.5361,4.537,4.538,4.54,4.5448,4.5438,4.5448,4.5448,4.5448,4.5457,4.5438,4.5429,4.5457,4.5467,4.5438,4.54,4.5381,4.5438,4.5429,4.5438,4.5475,4.5549,4.5622,4.564,4.5573,4.5599,4.5624,4.5616,4.5563,4.5599,4.5599,4.5632,4.5657,4.5676,4.5714,4.5796]}]]